<?xml version="1.0" encoding="UTF-8" standalone="no" ?>
<gpx xmlns="http://www.topografix.com/GPX/1/1" xmlns:xsi="http://www.w3.org/2001/XMLSchema-instance" xsi:schemaLocation="http://www.topografix.com/GPX/1/1 http://www.topografix.com/GPX/1/1/gpx.xsd" version="1.1" creator="VisuGPX - https://www.visugpx.com">
  <metadata>
    <name>140524ROBVinsMichelinSignore</name>
    <desc><![CDATA[Nos jeunes ont fait 20 km avec 400 m de dénivelé
]]></desc>
  </metadata>
  <trk>
    <name><![CDATA[140524ROBVinsMichelinSignore]]></name>
    <trkseg>
      <trkpt lat="43.43199" lon="6.14248">
        <ele>185.31188964844</ele>
        <time>2014-05-24T12:07:45Z</time>
      </trkpt>
      <trkpt lat="43.43199" lon="6.14248">
        <ele>185.31188964844</ele>
        <time>2014-05-24T12:07:50Z</time>
      </trkpt>
      <trkpt lat="43.43198" lon="6.14246">
        <ele>185.2294921875</ele>
        <time>2014-05-24T12:07:56Z</time>
      </trkpt>
      <trkpt lat="43.43197" lon="6.14242">
        <ele>185.17456054688</ele>
        <time>2014-05-24T12:07:59Z</time>
      </trkpt>
      <trkpt lat="43.43196" lon="6.14239">
        <ele>185.11962890625</ele>
        <time>2014-05-24T12:08:01Z</time>
      </trkpt>
      <trkpt lat="43.43191" lon="6.14227">
        <ele>184.76257324219</ele>
        <time>2014-05-24T12:08:07Z</time>
      </trkpt>
      <trkpt lat="43.43189" lon="6.14227">
        <ele>184.62524414062</ele>
        <time>2014-05-24T12:08:08Z</time>
      </trkpt>
      <trkpt lat="43.43183" lon="6.14234">
        <ele>184.18579101562</ele>
        <time>2014-05-24T12:08:11Z</time>
      </trkpt>
      <trkpt lat="43.43182" lon="6.14243">
        <ele>184.130859375</ele>
        <time>2014-05-24T12:08:13Z</time>
      </trkpt>
      <trkpt lat="43.43179" lon="6.1425">
        <ele>183.9111328125</ele>
        <time>2014-05-24T12:08:15Z</time>
      </trkpt>
      <trkpt lat="43.43169" lon="6.14254">
        <ele>183.16955566406</ele>
        <time>2014-05-24T12:08:19Z</time>
      </trkpt>
      <trkpt lat="43.43166" lon="6.14252">
        <ele>183</ele>
        <time>2014-05-24T12:08:21Z</time>
      </trkpt>
      <trkpt lat="43.43157" lon="6.14247">
        <ele>183</ele>
        <time>2014-05-24T12:08:25Z</time>
      </trkpt>
      <trkpt lat="43.43145" lon="6.14241">
        <ele>183</ele>
        <time>2014-05-24T12:08:30Z</time>
      </trkpt>
      <trkpt lat="43.43129" lon="6.1423">
        <ele>183</ele>
        <time>2014-05-24T12:08:35Z</time>
      </trkpt>
      <trkpt lat="43.43128" lon="6.14226">
        <ele>183</ele>
        <time>2014-05-24T12:08:36Z</time>
      </trkpt>
      <trkpt lat="43.43127" lon="6.14217">
        <ele>183.15226745606</ele>
        <time>2014-05-24T12:08:38Z</time>
      </trkpt>
      <trkpt lat="43.43128" lon="6.14198">
        <ele>183.69564819336</ele>
        <time>2014-05-24T12:08:43Z</time>
      </trkpt>
      <trkpt lat="43.43127" lon="6.14171">
        <ele>184.72384643555</ele>
        <time>2014-05-24T12:08:50Z</time>
      </trkpt>
      <trkpt lat="43.43126" lon="6.14168">
        <ele>184.85430908203</ele>
        <time>2014-05-24T12:08:51Z</time>
      </trkpt>
      <trkpt lat="43.43125" lon="6.14162">
        <ele>185.07180786133</ele>
        <time>2014-05-24T12:08:53Z</time>
      </trkpt>
      <trkpt lat="43.43122" lon="6.14148">
        <ele>185.61390686035</ele>
        <time>2014-05-24T12:08:58Z</time>
      </trkpt>
      <trkpt lat="43.4312" lon="6.14139">
        <ele>186.06372070312</ele>
        <time>2014-05-24T12:09:01Z</time>
      </trkpt>
      <trkpt lat="43.43118" lon="6.14132">
        <ele>186.51861572266</ele>
        <time>2014-05-24T12:09:03Z</time>
      </trkpt>
      <trkpt lat="43.43117" lon="6.14126">
        <ele>186.8258972168</ele>
        <time>2014-05-24T12:09:05Z</time>
      </trkpt>
      <trkpt lat="43.43117" lon="6.14123">
        <ele>186.92889404297</ele>
        <time>2014-05-24T12:09:06Z</time>
      </trkpt>
      <trkpt lat="43.43118" lon="6.14103">
        <ele>187.57263183594</ele>
        <time>2014-05-24T12:09:12Z</time>
      </trkpt>
      <trkpt lat="43.43115" lon="6.14084">
        <ele>188.5442199707</ele>
        <time>2014-05-24T12:09:17Z</time>
      </trkpt>
      <trkpt lat="43.43113" lon="6.14055">
        <ele>189.8625793457</ele>
        <time>2014-05-24T12:09:24Z</time>
      </trkpt>
      <trkpt lat="43.43108" lon="6.14019">
        <ele>191.77043151856</ele>
        <time>2014-05-24T12:09:33Z</time>
      </trkpt>
      <trkpt lat="43.43106" lon="6.13986">
        <ele>192.41450500488</ele>
        <time>2014-05-24T12:09:41Z</time>
      </trkpt>
      <trkpt lat="43.43102" lon="6.13964">
        <ele>192.89297485352</ele>
        <time>2014-05-24T12:09:47Z</time>
      </trkpt>
      <trkpt lat="43.43099" lon="6.13958">
        <ele>193.28575134277</ele>
        <time>2014-05-24T12:09:49Z</time>
      </trkpt>
      <trkpt lat="43.43098" lon="6.13951">
        <ele>193.41592407227</ele>
        <time>2014-05-24T12:09:51Z</time>
      </trkpt>
      <trkpt lat="43.43089" lon="6.13923">
        <ele>195.83372497559</ele>
        <time>2014-05-24T12:09:58Z</time>
      </trkpt>
      <trkpt lat="43.43081" lon="6.13897">
        <ele>194.75759887695</ele>
        <time>2014-05-24T12:10:03Z</time>
      </trkpt>
      <trkpt lat="43.43079" lon="6.13892">
        <ele>194.41738891602</ele>
        <time>2014-05-24T12:10:04Z</time>
      </trkpt>
      <trkpt lat="43.43078" lon="6.13862">
        <ele>191.31842041016</ele>
        <time>2014-05-24T12:10:09Z</time>
      </trkpt>
      <trkpt lat="43.43076" lon="6.13844">
        <ele>190.43049621582</ele>
        <time>2014-05-24T12:10:12Z</time>
      </trkpt>
      <trkpt lat="43.43071" lon="6.13819">
        <ele>189.38327026367</ele>
        <time>2014-05-24T12:10:16Z</time>
      </trkpt>
      <trkpt lat="43.43068" lon="6.138">
        <ele>188.18823242188</ele>
        <time>2014-05-24T12:10:19Z</time>
      </trkpt>
      <trkpt lat="43.43068" lon="6.13794">
        <ele>187.66868591309</ele>
        <time>2014-05-24T12:10:20Z</time>
      </trkpt>
      <trkpt lat="43.43064" lon="6.13774">
        <ele>186.2294921875</ele>
        <time>2014-05-24T12:10:23Z</time>
      </trkpt>
      <trkpt lat="43.43061" lon="6.13761">
        <ele>185.64552307129</ele>
        <time>2014-05-24T12:10:25Z</time>
      </trkpt>
      <trkpt lat="43.43056" lon="6.13749">
        <ele>185</ele>
        <time>2014-05-24T12:10:27Z</time>
      </trkpt>
      <trkpt lat="43.43052" lon="6.13738">
        <ele>186.07553100586</ele>
        <time>2014-05-24T12:10:29Z</time>
      </trkpt>
      <trkpt lat="43.4305" lon="6.13733">
        <ele>186.7536315918</ele>
        <time>2014-05-24T12:10:30Z</time>
      </trkpt>
      <trkpt lat="43.43047" lon="6.13728">
        <ele>187.49331665039</ele>
        <time>2014-05-24T12:10:31Z</time>
      </trkpt>
      <trkpt lat="43.43039" lon="6.13713">
        <ele>188.1916809082</ele>
        <time>2014-05-24T12:10:34Z</time>
      </trkpt>
      <trkpt lat="43.43019" lon="6.13679">
        <ele>189.05932617188</ele>
        <time>2014-05-24T12:10:42Z</time>
      </trkpt>
      <trkpt lat="43.43007" lon="6.13656">
        <ele>194.17147827148</ele>
        <time>2014-05-24T12:10:48Z</time>
      </trkpt>
      <trkpt lat="43.43002" lon="6.1363">
        <ele>195.38366699219</ele>
        <time>2014-05-24T12:10:53Z</time>
      </trkpt>
      <trkpt lat="43.42998" lon="6.13599">
        <ele>196.69488525391</ele>
        <time>2014-05-24T12:10:59Z</time>
      </trkpt>
      <trkpt lat="43.4299" lon="6.13566">
        <ele>198.32040405273</ele>
        <time>2014-05-24T12:11:05Z</time>
      </trkpt>
      <trkpt lat="43.42987" lon="6.13539">
        <ele>198.34072875977</ele>
        <time>2014-05-24T12:11:10Z</time>
      </trkpt>
      <trkpt lat="43.42987" lon="6.13503">
        <ele>198.16461181641</ele>
        <time>2014-05-24T12:11:17Z</time>
      </trkpt>
      <trkpt lat="43.42987" lon="6.13488">
        <ele>197.62030029297</ele>
        <time>2014-05-24T12:11:20Z</time>
      </trkpt>
      <trkpt lat="43.42987" lon="6.13474">
        <ele>196.91072082519</ele>
        <time>2014-05-24T12:11:23Z</time>
      </trkpt>
      <trkpt lat="43.42985" lon="6.1345">
        <ele>197.20690917969</ele>
        <time>2014-05-24T12:11:28Z</time>
      </trkpt>
      <trkpt lat="43.42982" lon="6.13404">
        <ele>195.81680297852</ele>
        <time>2014-05-24T12:11:36Z</time>
      </trkpt>
      <trkpt lat="43.42981" lon="6.13394">
        <ele>195.53356933594</ele>
        <time>2014-05-24T12:11:38Z</time>
      </trkpt>
      <trkpt lat="43.42981" lon="6.13389">
        <ele>195.37048339844</ele>
        <time>2014-05-24T12:11:39Z</time>
      </trkpt>
      <trkpt lat="43.42981" lon="6.1338">
        <ele>195.2190246582</ele>
        <time>2014-05-24T12:11:41Z</time>
      </trkpt>
      <trkpt lat="43.42981" lon="6.13376">
        <ele>195.18026733398</ele>
        <time>2014-05-24T12:11:42Z</time>
      </trkpt>
      <trkpt lat="43.4298" lon="6.13369">
        <ele>195.04566955566</ele>
        <time>2014-05-24T12:11:44Z</time>
      </trkpt>
      <trkpt lat="43.42974" lon="6.13349">
        <ele>196.09454345703</ele>
        <time>2014-05-24T12:11:50Z</time>
      </trkpt>
      <trkpt lat="43.42973" lon="6.13345">
        <ele>196.47906494141</ele>
        <time>2014-05-24T12:11:52Z</time>
      </trkpt>
      <trkpt lat="43.42971" lon="6.13339">
        <ele>197.17349243164</ele>
        <time>2014-05-24T12:11:54Z</time>
      </trkpt>
      <trkpt lat="43.42969" lon="6.13333">
        <ele>198.12129211426</ele>
        <time>2014-05-24T12:11:59Z</time>
      </trkpt>
      <trkpt lat="43.42968" lon="6.13326">
        <ele>198.33050537109</ele>
        <time>2014-05-24T12:12:02Z</time>
      </trkpt>
      <trkpt lat="43.42967" lon="6.1332">
        <ele>198.65046691894</ele>
        <time>2014-05-24T12:12:05Z</time>
      </trkpt>
      <trkpt lat="43.42965" lon="6.13311">
        <ele>199.15100097656</ele>
        <time>2014-05-24T12:12:10Z</time>
      </trkpt>
      <trkpt lat="43.42964" lon="6.13286">
        <ele>199.11054992676</ele>
        <time>2014-05-24T12:12:21Z</time>
      </trkpt>
      <trkpt lat="43.42962" lon="6.13276">
        <ele>199.53086853027</ele>
        <time>2014-05-24T12:12:25Z</time>
      </trkpt>
      <trkpt lat="43.4296" lon="6.13267">
        <ele>200.36486816406</ele>
        <time>2014-05-24T12:12:29Z</time>
      </trkpt>
      <trkpt lat="43.42952" lon="6.13254">
        <ele>202.73463439941</ele>
        <time>2014-05-24T12:12:36Z</time>
      </trkpt>
      <trkpt lat="43.42947" lon="6.13247">
        <ele>204.04547119141</ele>
        <time>2014-05-24T12:12:41Z</time>
      </trkpt>
      <trkpt lat="43.42944" lon="6.13239">
        <ele>204.62942504883</ele>
        <time>2014-05-24T12:12:45Z</time>
      </trkpt>
      <trkpt lat="43.42937" lon="6.13224">
        <ele>205.32400512695</ele>
        <time>2014-05-24T12:12:54Z</time>
      </trkpt>
      <trkpt lat="43.42936" lon="6.13217">
        <ele>205.40971374512</ele>
        <time>2014-05-24T12:12:57Z</time>
      </trkpt>
      <trkpt lat="43.42933" lon="6.13212">
        <ele>205.93850708008</ele>
        <time>2014-05-24T12:13:01Z</time>
      </trkpt>
      <trkpt lat="43.42927" lon="6.13206">
        <ele>206.88220214844</ele>
        <time>2014-05-24T12:13:05Z</time>
      </trkpt>
      <trkpt lat="43.42915" lon="6.13193">
        <ele>209.25096130371</ele>
        <time>2014-05-24T12:13:16Z</time>
      </trkpt>
      <trkpt lat="43.42911" lon="6.1319">
        <ele>210.04618835449</ele>
        <time>2014-05-24T12:13:19Z</time>
      </trkpt>
      <trkpt lat="43.42906" lon="6.13191">
        <ele>211.23118591309</ele>
        <time>2014-05-24T12:13:23Z</time>
      </trkpt>
      <trkpt lat="43.42903" lon="6.13191">
        <ele>211.84692382812</ele>
        <time>2014-05-24T12:13:25Z</time>
      </trkpt>
      <trkpt lat="43.429" lon="6.1319">
        <ele>212.63897705078</ele>
        <time>2014-05-24T12:13:27Z</time>
      </trkpt>
      <trkpt lat="43.42891" lon="6.13192">
        <ele>214.62940979004</ele>
        <time>2014-05-24T12:13:34Z</time>
      </trkpt>
      <trkpt lat="43.4289" lon="6.13193">
        <ele>214.85984802246</ele>
        <time>2014-05-24T12:13:35Z</time>
      </trkpt>
      <trkpt lat="43.42886" lon="6.13199">
        <ele>215.96311950684</ele>
        <time>2014-05-24T12:13:40Z</time>
      </trkpt>
      <trkpt lat="43.42883" lon="6.13204">
        <ele>217.00993347168</ele>
        <time>2014-05-24T12:13:43Z</time>
      </trkpt>
      <trkpt lat="43.42882" lon="6.13208">
        <ele>217.4326171875</ele>
        <time>2014-05-24T12:13:45Z</time>
      </trkpt>
      <trkpt lat="43.4288" lon="6.13213">
        <ele>218.13612365723</ele>
        <time>2014-05-24T12:13:49Z</time>
      </trkpt>
      <trkpt lat="43.42877" lon="6.13215">
        <ele>219.23954772949</ele>
        <time>2014-05-24T12:13:52Z</time>
      </trkpt>
      <trkpt lat="43.42874" lon="6.13217">
        <ele>220.2091217041</ele>
        <time>2014-05-24T12:13:54Z</time>
      </trkpt>
      <trkpt lat="43.42866" lon="6.13221">
        <ele>223.15061950684</ele>
        <time>2014-05-24T12:14:00Z</time>
      </trkpt>
      <trkpt lat="43.42857" lon="6.13226">
        <ele>225.76042175293</ele>
        <time>2014-05-24T12:14:08Z</time>
      </trkpt>
      <trkpt lat="43.42838" lon="6.13233">
        <ele>229.00866699219</ele>
        <time>2014-05-24T12:14:22Z</time>
      </trkpt>
      <trkpt lat="43.42836" lon="6.13234">
        <ele>229.45762634277</ele>
        <time>2014-05-24T12:14:24Z</time>
      </trkpt>
      <trkpt lat="43.42826" lon="6.13237">
        <ele>232.78732299805</ele>
        <time>2014-05-24T12:14:32Z</time>
      </trkpt>
      <trkpt lat="43.42825" lon="6.13237">
        <ele>232.91415405273</ele>
        <time>2014-05-24T12:14:33Z</time>
      </trkpt>
      <trkpt lat="43.42825" lon="6.13236">
        <ele>233.16893005371</ele>
        <time>2014-05-24T12:14:34Z</time>
      </trkpt>
      <trkpt lat="43.42823" lon="6.13236">
        <ele>233.58261108398</ele>
        <time>2014-05-24T12:14:35Z</time>
      </trkpt>
      <trkpt lat="43.42823" lon="6.13237">
        <ele>233.88006591797</ele>
        <time>2014-05-24T12:14:36Z</time>
      </trkpt>
      <trkpt lat="43.42818" lon="6.13241">
        <ele>235.50689697266</ele>
        <time>2014-05-24T12:14:41Z</time>
      </trkpt>
      <trkpt lat="43.42815" lon="6.13245">
        <ele>236.8037109375</ele>
        <time>2014-05-24T12:14:45Z</time>
      </trkpt>
      <trkpt lat="43.42813" lon="6.13249">
        <ele>237.41723632812</ele>
        <time>2014-05-24T12:14:49Z</time>
      </trkpt>
      <trkpt lat="43.42812" lon="6.13253">
        <ele>237.82267761231</ele>
        <time>2014-05-24T12:14:52Z</time>
      </trkpt>
      <trkpt lat="43.42812" lon="6.13256">
        <ele>237.97071838379</ele>
        <time>2014-05-24T12:14:54Z</time>
      </trkpt>
      <trkpt lat="43.42811" lon="6.13266">
        <ele>238.40100097656</ele>
        <time>2014-05-24T12:15:00Z</time>
      </trkpt>
      <trkpt lat="43.4281" lon="6.13271">
        <ele>238.66189575195</ele>
        <time>2014-05-24T12:15:03Z</time>
      </trkpt>
      <trkpt lat="43.4281" lon="6.13278">
        <ele>238.81396484375</ele>
        <time>2014-05-24T12:15:07Z</time>
      </trkpt>
      <trkpt lat="43.42809" lon="6.13288">
        <ele>239.18357849121</ele>
        <time>2014-05-24T12:15:14Z</time>
      </trkpt>
      <trkpt lat="43.42807" lon="6.13295">
        <ele>239.51325988769</ele>
        <time>2014-05-24T12:15:19Z</time>
      </trkpt>
      <trkpt lat="43.42807" lon="6.133">
        <ele>239.62362670898</ele>
        <time>2014-05-24T12:15:23Z</time>
      </trkpt>
      <trkpt lat="43.42807" lon="6.13305">
        <ele>239.53704833984</ele>
        <time>2014-05-24T12:15:26Z</time>
      </trkpt>
      <trkpt lat="43.42808" lon="6.13307">
        <ele>239.45167541504</ele>
        <time>2014-05-24T12:15:27Z</time>
      </trkpt>
      <trkpt lat="43.4281" lon="6.13315">
        <ele>238.89181518555</ele>
        <time>2014-05-24T12:15:34Z</time>
      </trkpt>
      <trkpt lat="43.42811" lon="6.13317">
        <ele>238.83065795898</ele>
        <time>2014-05-24T12:15:35Z</time>
      </trkpt>
      <trkpt lat="43.42811" lon="6.13321">
        <ele>238.79620361328</ele>
        <time>2014-05-24T12:15:38Z</time>
      </trkpt>
      <trkpt lat="43.42812" lon="6.13324">
        <ele>238.76853942871</ele>
        <time>2014-05-24T12:15:40Z</time>
      </trkpt>
      <trkpt lat="43.42817" lon="6.13333">
        <ele>238.02333068848</ele>
        <time>2014-05-24T12:15:48Z</time>
      </trkpt>
      <trkpt lat="43.42818" lon="6.13336">
        <ele>237.79678344727</ele>
        <time>2014-05-24T12:15:50Z</time>
      </trkpt>
      <trkpt lat="43.42822" lon="6.1334">
        <ele>237.12821960449</ele>
        <time>2014-05-24T12:15:53Z</time>
      </trkpt>
      <trkpt lat="43.4283" lon="6.13345">
        <ele>235.97648620606</ele>
        <time>2014-05-24T12:15:59Z</time>
      </trkpt>
      <trkpt lat="43.42832" lon="6.13348">
        <ele>235.76498413086</ele>
        <time>2014-05-24T12:16:01Z</time>
      </trkpt>
      <trkpt lat="43.42831" lon="6.13353">
        <ele>236.05502319336</ele>
        <time>2014-05-24T12:16:05Z</time>
      </trkpt>
      <trkpt lat="43.42826" lon="6.13359">
        <ele>236.93806457519</ele>
        <time>2014-05-24T12:16:10Z</time>
      </trkpt>
      <trkpt lat="43.42818" lon="6.13369">
        <ele>238.32032775879</ele>
        <time>2014-05-24T12:16:20Z</time>
      </trkpt>
      <trkpt lat="43.42818" lon="6.1337">
        <ele>238.38728332519</ele>
        <time>2014-05-24T12:16:21Z</time>
      </trkpt>
      <trkpt lat="43.42812" lon="6.13387">
        <ele>239.24745178223</ele>
        <time>2014-05-24T12:16:34Z</time>
      </trkpt>
      <trkpt lat="43.42806" lon="6.134">
        <ele>241.91818237305</ele>
        <time>2014-05-24T12:16:44Z</time>
      </trkpt>
      <trkpt lat="43.42806" lon="6.1341">
        <ele>243.8006439209</ele>
        <time>2014-05-24T12:16:49Z</time>
      </trkpt>
      <trkpt lat="43.42806" lon="6.13414">
        <ele>244.38041687012</ele>
        <time>2014-05-24T12:16:51Z</time>
      </trkpt>
      <trkpt lat="43.42806" lon="6.13416">
        <ele>244.66619873047</ele>
        <time>2014-05-24T12:16:53Z</time>
      </trkpt>
      <trkpt lat="43.4281" lon="6.13435">
        <ele>244.69700622559</ele>
        <time>2014-05-24T12:17:03Z</time>
      </trkpt>
      <trkpt lat="43.4281" lon="6.13439">
        <ele>244.81546020508</ele>
        <time>2014-05-24T12:17:05Z</time>
      </trkpt>
      <trkpt lat="43.4281" lon="6.1344">
        <ele>244.77426147461</ele>
        <time>2014-05-24T12:17:06Z</time>
      </trkpt>
      <trkpt lat="43.4281" lon="6.13445">
        <ele>245.02734375</ele>
        <time>2014-05-24T12:17:09Z</time>
      </trkpt>
      <trkpt lat="43.42809" lon="6.13457">
        <ele>245.19213867188</ele>
        <time>2014-05-24T12:17:16Z</time>
      </trkpt>
      <trkpt lat="43.42811" lon="6.13461">
        <ele>244.86254882812</ele>
        <time>2014-05-24T12:17:19Z</time>
      </trkpt>
      <trkpt lat="43.42811" lon="6.13467">
        <ele>244.86254882812</ele>
        <time>2014-05-24T12:17:23Z</time>
      </trkpt>
      <trkpt lat="43.42812" lon="6.13474">
        <ele>244.7688293457</ele>
        <time>2014-05-24T12:17:28Z</time>
      </trkpt>
      <trkpt lat="43.42812" lon="6.13477">
        <ele>244.76159667969</ele>
        <time>2014-05-24T12:17:31Z</time>
      </trkpt>
      <trkpt lat="43.42812" lon="6.13478">
        <ele>244.79364013672</ele>
        <time>2014-05-24T12:17:32Z</time>
      </trkpt>
      <trkpt lat="43.42815" lon="6.13489">
        <ele>244.75939941406</ele>
        <time>2014-05-24T12:17:37Z</time>
      </trkpt>
      <trkpt lat="43.42817" lon="6.13499">
        <ele>244.92077636719</ele>
        <time>2014-05-24T12:17:44Z</time>
      </trkpt>
      <trkpt lat="43.42818" lon="6.13501">
        <ele>244.849609375</ele>
        <time>2014-05-24T12:17:45Z</time>
      </trkpt>
      <trkpt lat="43.42818" lon="6.13502">
        <ele>244.89080810547</ele>
        <time>2014-05-24T12:17:46Z</time>
      </trkpt>
      <trkpt lat="43.42818" lon="6.13509">
        <ele>245.06246948242</ele>
        <time>2014-05-24T12:17:51Z</time>
      </trkpt>
      <trkpt lat="43.42818" lon="6.1351">
        <ele>245.05215454102</ele>
        <time>2014-05-24T12:17:52Z</time>
      </trkpt>
      <trkpt lat="43.42818" lon="6.13514">
        <ele>245.19979858398</ele>
        <time>2014-05-24T12:17:54Z</time>
      </trkpt>
      <trkpt lat="43.42818" lon="6.13519">
        <ele>245.36459350586</ele>
        <time>2014-05-24T12:17:58Z</time>
      </trkpt>
      <trkpt lat="43.42818" lon="6.13525">
        <ele>245.59118652344</ele>
        <time>2014-05-24T12:18:01Z</time>
      </trkpt>
      <trkpt lat="43.42817" lon="6.13531">
        <ele>246.09368896484</ele>
        <time>2014-05-24T12:18:05Z</time>
      </trkpt>
      <trkpt lat="43.42816" lon="6.13538">
        <ele>246.32208251953</ele>
        <time>2014-05-24T12:18:10Z</time>
      </trkpt>
      <trkpt lat="43.42812" lon="6.13545">
        <ele>247.25463867188</ele>
        <time>2014-05-24T12:18:16Z</time>
      </trkpt>
      <trkpt lat="43.42811" lon="6.13549">
        <ele>247.66972351074</ele>
        <time>2014-05-24T12:18:19Z</time>
      </trkpt>
      <trkpt lat="43.42811" lon="6.13551">
        <ele>247.72676086426</ele>
        <time>2014-05-24T12:18:21Z</time>
      </trkpt>
      <trkpt lat="43.42806" lon="6.13562">
        <ele>249.41229248047</ele>
        <time>2014-05-24T12:18:28Z</time>
      </trkpt>
      <trkpt lat="43.428" lon="6.13576">
        <ele>252.63888549805</ele>
        <time>2014-05-24T12:18:36Z</time>
      </trkpt>
      <trkpt lat="43.42798" lon="6.13589">
        <ele>254.05754089356</ele>
        <time>2014-05-24T12:18:42Z</time>
      </trkpt>
      <trkpt lat="43.42797" lon="6.13593">
        <ele>254.60453796387</ele>
        <time>2014-05-24T12:18:44Z</time>
      </trkpt>
      <trkpt lat="43.42797" lon="6.13595">
        <ele>254.79858398438</ele>
        <time>2014-05-24T12:18:45Z</time>
      </trkpt>
      <trkpt lat="43.42795" lon="6.13597">
        <ele>255.41349792481</ele>
        <time>2014-05-24T12:18:46Z</time>
      </trkpt>
      <trkpt lat="43.42793" lon="6.136">
        <ele>256.19088745117</ele>
        <time>2014-05-24T12:18:48Z</time>
      </trkpt>
      <trkpt lat="43.42789" lon="6.13598">
        <ele>257.74645996094</ele>
        <time>2014-05-24T12:18:53Z</time>
      </trkpt>
      <trkpt lat="43.42789" lon="6.13595">
        <ele>257.84689331055</ele>
        <time>2014-05-24T12:18:55Z</time>
      </trkpt>
      <trkpt lat="43.42788" lon="6.1359">
        <ele>258.06805419922</ele>
        <time>2014-05-24T12:18:59Z</time>
      </trkpt>
      <trkpt lat="43.42786" lon="6.13576">
        <ele>258.21783447266</ele>
        <time>2014-05-24T12:19:09Z</time>
      </trkpt>
      <trkpt lat="43.42787" lon="6.13574">
        <ele>258.00839233398</ele>
        <time>2014-05-24T12:19:10Z</time>
      </trkpt>
      <trkpt lat="43.42785" lon="6.13562">
        <ele>258.04180908203</ele>
        <time>2014-05-24T12:19:19Z</time>
      </trkpt>
      <trkpt lat="43.42785" lon="6.1356">
        <ele>257.97207641602</ele>
        <time>2014-05-24T12:19:20Z</time>
      </trkpt>
      <trkpt lat="43.42784" lon="6.13555">
        <ele>258.25775146484</ele>
        <time>2014-05-24T12:19:23Z</time>
      </trkpt>
      <trkpt lat="43.42783" lon="6.13552">
        <ele>258.56393432617</ele>
        <time>2014-05-24T12:19:25Z</time>
      </trkpt>
      <trkpt lat="43.42781" lon="6.13548">
        <ele>259.54483032227</ele>
        <time>2014-05-24T12:19:28Z</time>
      </trkpt>
      <trkpt lat="43.42778" lon="6.13542">
        <ele>261.07263183594</ele>
        <time>2014-05-24T12:19:32Z</time>
      </trkpt>
      <trkpt lat="43.42775" lon="6.13539">
        <ele>262.22619628906</ele>
        <time>2014-05-24T12:19:36Z</time>
      </trkpt>
      <trkpt lat="43.42775" lon="6.13538">
        <ele>262.61071777344</ele>
        <time>2014-05-24T12:19:37Z</time>
      </trkpt>
      <trkpt lat="43.42772" lon="6.13536">
        <ele>263.76428222656</ele>
        <time>2014-05-24T12:19:39Z</time>
      </trkpt>
      <trkpt lat="43.42767" lon="6.1353">
        <ele>266.64819335938</ele>
        <time>2014-05-24T12:19:45Z</time>
      </trkpt>
      <trkpt lat="43.42763" lon="6.13526">
        <ele>268.49392700195</ele>
        <time>2014-05-24T12:19:48Z</time>
      </trkpt>
      <trkpt lat="43.42757" lon="6.13521">
        <ele>271.18743896484</ele>
        <time>2014-05-24T12:19:54Z</time>
      </trkpt>
      <trkpt lat="43.42751" lon="6.13515">
        <ele>273.43667602539</ele>
        <time>2014-05-24T12:20:00Z</time>
      </trkpt>
      <trkpt lat="43.42747" lon="6.13511">
        <ele>274.87057495117</ele>
        <time>2014-05-24T12:20:04Z</time>
      </trkpt>
      <trkpt lat="43.42744" lon="6.13507">
        <ele>275.72387695312</ele>
        <time>2014-05-24T12:20:07Z</time>
      </trkpt>
      <trkpt lat="43.42743" lon="6.13506">
        <ele>275.89810180664</ele>
        <time>2014-05-24T12:20:08Z</time>
      </trkpt>
      <trkpt lat="43.42739" lon="6.13498">
        <ele>276.9089050293</ele>
        <time>2014-05-24T12:20:13Z</time>
      </trkpt>
      <trkpt lat="43.42734" lon="6.13477">
        <ele>276.9453125</ele>
        <time>2014-05-24T12:20:25Z</time>
      </trkpt>
      <trkpt lat="43.4273" lon="6.13471">
        <ele>278.12881469727</ele>
        <time>2014-05-24T12:20:29Z</time>
      </trkpt>
      <trkpt lat="43.42726" lon="6.13463">
        <ele>279.9382019043</ele>
        <time>2014-05-24T12:20:34Z</time>
      </trkpt>
      <trkpt lat="43.42721" lon="6.13456">
        <ele>281.76058959961</ele>
        <time>2014-05-24T12:20:39Z</time>
      </trkpt>
      <trkpt lat="43.4271" lon="6.13445">
        <ele>283.71917724609</ele>
        <time>2014-05-24T12:20:50Z</time>
      </trkpt>
      <trkpt lat="43.42703" lon="6.13438">
        <ele>284.60809326172</ele>
        <time>2014-05-24T12:20:57Z</time>
      </trkpt>
      <trkpt lat="43.42696" lon="6.1343">
        <ele>285.24295043945</ele>
        <time>2014-05-24T12:21:05Z</time>
      </trkpt>
      <trkpt lat="43.42692" lon="6.13428">
        <ele>285.49090576172</ele>
        <time>2014-05-24T12:21:08Z</time>
      </trkpt>
      <trkpt lat="43.4269" lon="6.13428">
        <ele>285.78958129883</ele>
        <time>2014-05-24T12:21:10Z</time>
      </trkpt>
      <trkpt lat="43.42686" lon="6.13431">
        <ele>286.4333190918</ele>
        <time>2014-05-24T12:21:13Z</time>
      </trkpt>
      <trkpt lat="43.4268" lon="6.13441">
        <ele>288.15335083008</ele>
        <time>2014-05-24T12:21:22Z</time>
      </trkpt>
      <trkpt lat="43.42679" lon="6.13444">
        <ele>288.642578125</ele>
        <time>2014-05-24T12:21:25Z</time>
      </trkpt>
      <trkpt lat="43.42678" lon="6.13455">
        <ele>289.55316162109</ele>
        <time>2014-05-24T12:21:32Z</time>
      </trkpt>
      <trkpt lat="43.42676" lon="6.13466">
        <ele>290.57968139648</ele>
        <time>2014-05-24T12:21:40Z</time>
      </trkpt>
      <trkpt lat="43.42675" lon="6.13479">
        <ele>291.79336547852</ele>
        <time>2014-05-24T12:21:46Z</time>
      </trkpt>
      <trkpt lat="43.42672" lon="6.13488">
        <ele>293.12200927734</ele>
        <time>2014-05-24T12:21:53Z</time>
      </trkpt>
      <trkpt lat="43.4267" lon="6.13491">
        <ele>293.5803527832</ele>
        <time>2014-05-24T12:21:55Z</time>
      </trkpt>
      <trkpt lat="43.42665" lon="6.135">
        <ele>294.91003417969</ele>
        <time>2014-05-24T12:22:00Z</time>
      </trkpt>
      <trkpt lat="43.42659" lon="6.13508">
        <ele>295.57092285156</ele>
        <time>2014-05-24T12:22:06Z</time>
      </trkpt>
      <trkpt lat="43.42657" lon="6.13512">
        <ele>295.91253662109</ele>
        <time>2014-05-24T12:22:08Z</time>
      </trkpt>
      <trkpt lat="43.42655" lon="6.13519">
        <ele>296.61291503906</ele>
        <time>2014-05-24T12:22:13Z</time>
      </trkpt>
      <trkpt lat="43.42651" lon="6.13531">
        <ele>297.68933105469</ele>
        <time>2014-05-24T12:22:19Z</time>
      </trkpt>
      <trkpt lat="43.42648" lon="6.13542">
        <ele>298.32104492188</ele>
        <time>2014-05-24T12:22:25Z</time>
      </trkpt>
      <trkpt lat="43.42647" lon="6.13549">
        <ele>298.80169677734</ele>
        <time>2014-05-24T12:22:30Z</time>
      </trkpt>
      <trkpt lat="43.42646" lon="6.13555">
        <ele>299.22741699219</ele>
        <time>2014-05-24T12:22:34Z</time>
      </trkpt>
      <trkpt lat="43.42646" lon="6.13557">
        <ele>299.28140258789</ele>
        <time>2014-05-24T12:22:35Z</time>
      </trkpt>
      <trkpt lat="43.42645" lon="6.13562">
        <ele>299.37789916992</ele>
        <time>2014-05-24T12:22:39Z</time>
      </trkpt>
      <trkpt lat="43.42643" lon="6.13577">
        <ele>299.80676269531</ele>
        <time>2014-05-24T12:22:47Z</time>
      </trkpt>
      <trkpt lat="43.42643" lon="6.13581">
        <ele>299.93432617188</ele>
        <time>2014-05-24T12:22:50Z</time>
      </trkpt>
      <trkpt lat="43.42642" lon="6.13585">
        <ele>300</ele>
        <time>2014-05-24T12:22:52Z</time>
      </trkpt>
      <trkpt lat="43.42642" lon="6.13592">
        <ele>300</ele>
        <time>2014-05-24T12:22:55Z</time>
      </trkpt>
      <trkpt lat="43.42642" lon="6.13603">
        <ele>300</ele>
        <time>2014-05-24T12:23:01Z</time>
      </trkpt>
      <trkpt lat="43.42643" lon="6.13614">
        <ele>300</ele>
        <time>2014-05-24T12:23:06Z</time>
      </trkpt>
      <trkpt lat="43.42643" lon="6.13618">
        <ele>300</ele>
        <time>2014-05-24T12:23:08Z</time>
      </trkpt>
      <trkpt lat="43.42643" lon="6.13627">
        <ele>300</ele>
        <time>2014-05-24T12:23:13Z</time>
      </trkpt>
      <trkpt lat="43.42643" lon="6.13642">
        <ele>300</ele>
        <time>2014-05-24T12:23:20Z</time>
      </trkpt>
      <trkpt lat="43.42643" lon="6.13656">
        <ele>300</ele>
        <time>2014-05-24T12:23:27Z</time>
      </trkpt>
      <trkpt lat="43.42642" lon="6.13666">
        <ele>300</ele>
        <time>2014-05-24T12:23:32Z</time>
      </trkpt>
      <trkpt lat="43.42643" lon="6.13671">
        <ele>300</ele>
        <time>2014-05-24T12:23:35Z</time>
      </trkpt>
      <trkpt lat="43.42643" lon="6.13671">
        <ele>300</ele>
        <time>2014-05-24T12:23:36Z</time>
      </trkpt>
      <trkpt lat="43.42643" lon="6.13673">
        <ele>300</ele>
        <time>2014-05-24T12:23:40Z</time>
      </trkpt>
      <trkpt lat="43.42643" lon="6.13673">
        <ele>300</ele>
        <time>2014-05-24T12:24:02Z</time>
      </trkpt>
      <trkpt lat="43.42643" lon="6.13673">
        <ele>300</ele>
        <time>2014-05-24T12:24:15Z</time>
      </trkpt>
      <trkpt lat="43.42643" lon="6.13673">
        <ele>300</ele>
        <time>2014-05-24T12:24:18Z</time>
      </trkpt>
      <trkpt lat="43.42643" lon="6.13673">
        <ele>300</ele>
        <time>2014-05-24T12:24:47Z</time>
      </trkpt>
      <trkpt lat="43.42643" lon="6.13673">
        <ele>300</ele>
        <time>2014-05-24T12:25:09Z</time>
      </trkpt>
      <trkpt lat="43.42643" lon="6.13673">
        <ele>300</ele>
        <time>2014-05-24T12:25:47Z</time>
      </trkpt>
      <trkpt lat="43.42643" lon="6.13673">
        <ele>300</ele>
        <time>2014-05-24T12:26:01Z</time>
      </trkpt>
      <trkpt lat="43.42643" lon="6.13674">
        <ele>300</ele>
        <time>2014-05-24T12:26:03Z</time>
      </trkpt>
      <trkpt lat="43.42644" lon="6.1368">
        <ele>300</ele>
        <time>2014-05-24T12:26:06Z</time>
      </trkpt>
      <trkpt lat="43.42643" lon="6.13689">
        <ele>300</ele>
        <time>2014-05-24T12:26:09Z</time>
      </trkpt>
      <trkpt lat="43.42642" lon="6.13698">
        <ele>300</ele>
        <time>2014-05-24T12:26:12Z</time>
      </trkpt>
      <trkpt lat="43.42642" lon="6.1372">
        <ele>300</ele>
        <time>2014-05-24T12:26:17Z</time>
      </trkpt>
      <trkpt lat="43.42642" lon="6.1375">
        <ele>300</ele>
        <time>2014-05-24T12:26:23Z</time>
      </trkpt>
      <trkpt lat="43.42643" lon="6.13778">
        <ele>300</ele>
        <time>2014-05-24T12:26:28Z</time>
      </trkpt>
      <trkpt lat="43.42648" lon="6.13813">
        <ele>300</ele>
        <time>2014-05-24T12:26:33Z</time>
      </trkpt>
      <trkpt lat="43.42648" lon="6.13846">
        <ele>300</ele>
        <time>2014-05-24T12:26:37Z</time>
      </trkpt>
      <trkpt lat="43.42646" lon="6.13856">
        <ele>300</ele>
        <time>2014-05-24T12:26:38Z</time>
      </trkpt>
      <trkpt lat="43.42635" lon="6.13888">
        <ele>299.86163330078</ele>
        <time>2014-05-24T12:26:42Z</time>
      </trkpt>
      <trkpt lat="43.42626" lon="6.13903">
        <ele>298.24450683594</ele>
        <time>2014-05-24T12:26:44Z</time>
      </trkpt>
      <trkpt lat="43.42623" lon="6.13911">
        <ele>297.49136352539</ele>
        <time>2014-05-24T12:26:45Z</time>
      </trkpt>
      <trkpt lat="43.4262" lon="6.1392">
        <ele>296.85232543945</ele>
        <time>2014-05-24T12:26:46Z</time>
      </trkpt>
      <trkpt lat="43.42619" lon="6.13928">
        <ele>296.46670532227</ele>
        <time>2014-05-24T12:26:47Z</time>
      </trkpt>
      <trkpt lat="43.42617" lon="6.13936">
        <ele>296.1474609375</ele>
        <time>2014-05-24T12:26:48Z</time>
      </trkpt>
      <trkpt lat="43.42611" lon="6.13975">
        <ele>293.80987548828</ele>
        <time>2014-05-24T12:26:52Z</time>
      </trkpt>
      <trkpt lat="43.42608" lon="6.13984">
        <ele>293.3005065918</ele>
        <time>2014-05-24T12:26:53Z</time>
      </trkpt>
      <trkpt lat="43.42596" lon="6.14009">
        <ele>292.79211425781</ele>
        <time>2014-05-24T12:26:56Z</time>
      </trkpt>
      <trkpt lat="43.42595" lon="6.14016">
        <ele>292.64581298828</ele>
        <time>2014-05-24T12:26:57Z</time>
      </trkpt>
      <trkpt lat="43.42598" lon="6.14028">
        <ele>291.95523071289</ele>
        <time>2014-05-24T12:26:59Z</time>
      </trkpt>
      <trkpt lat="43.42598" lon="6.14034">
        <ele>291.77496337891</ele>
        <time>2014-05-24T12:27:00Z</time>
      </trkpt>
      <trkpt lat="43.42596" lon="6.1404">
        <ele>291.90585327148</ele>
        <time>2014-05-24T12:27:01Z</time>
      </trkpt>
      <trkpt lat="43.42591" lon="6.14052">
        <ele>292.70455932617</ele>
        <time>2014-05-24T12:27:03Z</time>
      </trkpt>
      <trkpt lat="43.42584" lon="6.14065">
        <ele>293.82836914062</ele>
        <time>2014-05-24T12:27:05Z</time>
      </trkpt>
      <trkpt lat="43.42582" lon="6.14071">
        <ele>293.84292602539</ele>
        <time>2014-05-24T12:27:06Z</time>
      </trkpt>
      <trkpt lat="43.4258" lon="6.14077">
        <ele>293.70645141602</ele>
        <time>2014-05-24T12:27:07Z</time>
      </trkpt>
      <trkpt lat="43.42575" lon="6.14092">
        <ele>293.21740722656</ele>
        <time>2014-05-24T12:27:09Z</time>
      </trkpt>
      <trkpt lat="43.42567" lon="6.1413">
        <ele>292.80895996094</ele>
        <time>2014-05-24T12:27:15Z</time>
      </trkpt>
      <trkpt lat="43.42567" lon="6.14137">
        <ele>292.96279907227</ele>
        <time>2014-05-24T12:27:16Z</time>
      </trkpt>
      <trkpt lat="43.42568" lon="6.14166">
        <ele>293</ele>
        <time>2014-05-24T12:27:20Z</time>
      </trkpt>
      <trkpt lat="43.42572" lon="6.14189">
        <ele>292.87396240234</ele>
        <time>2014-05-24T12:27:23Z</time>
      </trkpt>
      <trkpt lat="43.42575" lon="6.1421">
        <ele>292.5947265625</ele>
        <time>2014-05-24T12:27:26Z</time>
      </trkpt>
      <trkpt lat="43.42572" lon="6.14231">
        <ele>292.62582397461</ele>
        <time>2014-05-24T12:27:30Z</time>
      </trkpt>
      <trkpt lat="43.4257" lon="6.14245">
        <ele>292.51599121094</ele>
        <time>2014-05-24T12:27:34Z</time>
      </trkpt>
      <trkpt lat="43.42572" lon="6.14269">
        <ele>292.86514282227</ele>
        <time>2014-05-24T12:27:40Z</time>
      </trkpt>
      <trkpt lat="43.42569" lon="6.1429">
        <ele>293.59246826172</ele>
        <time>2014-05-24T12:27:44Z</time>
      </trkpt>
      <trkpt lat="43.4255" lon="6.14313">
        <ele>293.53848266602</ele>
        <time>2014-05-24T12:27:50Z</time>
      </trkpt>
      <trkpt lat="43.42539" lon="6.14321">
        <ele>291.11752319336</ele>
        <time>2014-05-24T12:27:53Z</time>
      </trkpt>
      <trkpt lat="43.42535" lon="6.1432">
        <ele>290.21661376953</ele>
        <time>2014-05-24T12:27:54Z</time>
      </trkpt>
      <trkpt lat="43.42525" lon="6.1431">
        <ele>287.88555908203</ele>
        <time>2014-05-24T12:27:57Z</time>
      </trkpt>
      <trkpt lat="43.42512" lon="6.14305">
        <ele>286.27880859375</ele>
        <time>2014-05-24T12:28:00Z</time>
      </trkpt>
      <trkpt lat="43.42506" lon="6.14304">
        <ele>285.64022827148</ele>
        <time>2014-05-24T12:28:01Z</time>
      </trkpt>
      <trkpt lat="43.42496" lon="6.143">
        <ele>284.53060913086</ele>
        <time>2014-05-24T12:28:03Z</time>
      </trkpt>
      <trkpt lat="43.42486" lon="6.14295">
        <ele>283.62423706055</ele>
        <time>2014-05-24T12:28:05Z</time>
      </trkpt>
      <trkpt lat="43.4248" lon="6.14295">
        <ele>283.19506835938</ele>
        <time>2014-05-24T12:28:06Z</time>
      </trkpt>
      <trkpt lat="43.42471" lon="6.14297">
        <ele>282.65615844727</ele>
        <time>2014-05-24T12:28:08Z</time>
      </trkpt>
      <trkpt lat="43.42464" lon="6.14308">
        <ele>282.78491210938</ele>
        <time>2014-05-24T12:28:11Z</time>
      </trkpt>
      <trkpt lat="43.4246" lon="6.14332">
        <ele>283.53161621094</ele>
        <time>2014-05-24T12:28:15Z</time>
      </trkpt>
      <trkpt lat="43.42467" lon="6.14372">
        <ele>286.21734619141</ele>
        <time>2014-05-24T12:28:21Z</time>
      </trkpt>
      <trkpt lat="43.42468" lon="6.14398">
        <ele>287.17694091797</ele>
        <time>2014-05-24T12:28:25Z</time>
      </trkpt>
      <trkpt lat="43.42467" lon="6.14404">
        <ele>287.35375976562</ele>
        <time>2014-05-24T12:28:26Z</time>
      </trkpt>
      <trkpt lat="43.42471" lon="6.14427">
        <ele>288.68322753906</ele>
        <time>2014-05-24T12:28:30Z</time>
      </trkpt>
      <trkpt lat="43.42474" lon="6.14438">
        <ele>289.55545043945</ele>
        <time>2014-05-24T12:28:32Z</time>
      </trkpt>
      <trkpt lat="43.42473" lon="6.14448">
        <ele>290.14761352539</ele>
        <time>2014-05-24T12:28:34Z</time>
      </trkpt>
      <trkpt lat="43.42471" lon="6.14452">
        <ele>290.16467285156</ele>
        <time>2014-05-24T12:28:35Z</time>
      </trkpt>
      <trkpt lat="43.42458" lon="6.14459">
        <ele>289.46771240234</ele>
        <time>2014-05-24T12:28:39Z</time>
      </trkpt>
      <trkpt lat="43.42444" lon="6.14467">
        <ele>288.77337646484</ele>
        <time>2014-05-24T12:28:43Z</time>
      </trkpt>
      <trkpt lat="43.42437" lon="6.14468">
        <ele>288.5725402832</ele>
        <time>2014-05-24T12:28:45Z</time>
      </trkpt>
      <trkpt lat="43.42433" lon="6.14468">
        <ele>288.45065307617</ele>
        <time>2014-05-24T12:28:46Z</time>
      </trkpt>
      <trkpt lat="43.42424" lon="6.1446">
        <ele>287.83096313477</ele>
        <time>2014-05-24T12:28:49Z</time>
      </trkpt>
      <trkpt lat="43.42404" lon="6.14439">
        <ele>286.81295776367</ele>
        <time>2014-05-24T12:28:58Z</time>
      </trkpt>
      <trkpt lat="43.42399" lon="6.14437">
        <ele>286.7151184082</ele>
        <time>2014-05-24T12:29:00Z</time>
      </trkpt>
      <trkpt lat="43.42388" lon="6.1444">
        <ele>286.88580322266</ele>
        <time>2014-05-24T12:29:05Z</time>
      </trkpt>
      <trkpt lat="43.42387" lon="6.14455">
        <ele>287.42825317383</ele>
        <time>2014-05-24T12:29:09Z</time>
      </trkpt>
      <trkpt lat="43.42388" lon="6.14458">
        <ele>287.51409912109</ele>
        <time>2014-05-24T12:29:10Z</time>
      </trkpt>
      <trkpt lat="43.42389" lon="6.1446">
        <ele>287.57586669922</ele>
        <time>2014-05-24T12:29:11Z</time>
      </trkpt>
      <trkpt lat="43.42393" lon="6.14472">
        <ele>287.99914550781</ele>
        <time>2014-05-24T12:29:20Z</time>
      </trkpt>
      <trkpt lat="43.42394" lon="6.14473">
        <ele>288.04034423828</ele>
        <time>2014-05-24T12:29:21Z</time>
      </trkpt>
      <trkpt lat="43.42396" lon="6.14479">
        <ele>288.24118041992</ele>
        <time>2014-05-24T12:29:26Z</time>
      </trkpt>
      <trkpt lat="43.42397" lon="6.14487">
        <ele>288.54330444336</ele>
        <time>2014-05-24T12:29:31Z</time>
      </trkpt>
      <trkpt lat="43.42398" lon="6.14497">
        <ele>288.87976074219</ele>
        <time>2014-05-24T12:29:35Z</time>
      </trkpt>
      <trkpt lat="43.42395" lon="6.14519">
        <ele>289.81832885742</ele>
        <time>2014-05-24T12:29:41Z</time>
      </trkpt>
      <trkpt lat="43.42391" lon="6.14538">
        <ele>290.43600463867</ele>
        <time>2014-05-24T12:29:47Z</time>
      </trkpt>
      <trkpt lat="43.42389" lon="6.14557">
        <ele>291.05374145508</ele>
        <time>2014-05-24T12:29:53Z</time>
      </trkpt>
      <trkpt lat="43.42387" lon="6.14563">
        <ele>291.31982421875</ele>
        <time>2014-05-24T12:29:55Z</time>
      </trkpt>
      <trkpt lat="43.42381" lon="6.14598">
        <ele>293.16369628906</ele>
        <time>2014-05-24T12:30:05Z</time>
      </trkpt>
      <trkpt lat="43.4238" lon="6.14606">
        <ele>293.67233276367</ele>
        <time>2014-05-24T12:30:07Z</time>
      </trkpt>
      <trkpt lat="43.4238" lon="6.14617">
        <ele>294.13461303711</ele>
        <time>2014-05-24T12:30:10Z</time>
      </trkpt>
      <trkpt lat="43.42378" lon="6.14624">
        <ele>294.29608154297</ele>
        <time>2014-05-24T12:30:12Z</time>
      </trkpt>
      <trkpt lat="43.42375" lon="6.14653">
        <ele>295.03057861328</ele>
        <time>2014-05-24T12:30:20Z</time>
      </trkpt>
      <trkpt lat="43.42375" lon="6.14668">
        <ele>295.53182983398</ele>
        <time>2014-05-24T12:30:24Z</time>
      </trkpt>
      <trkpt lat="43.42375" lon="6.14677">
        <ele>295.86315917969</ele>
        <time>2014-05-24T12:30:27Z</time>
      </trkpt>
      <trkpt lat="43.42379" lon="6.14697">
        <ele>296.72143554688</ele>
        <time>2014-05-24T12:30:33Z</time>
      </trkpt>
      <trkpt lat="43.42385" lon="6.14718">
        <ele>297.6999206543</ele>
        <time>2014-05-24T12:30:40Z</time>
      </trkpt>
      <trkpt lat="43.42391" lon="6.14736">
        <ele>298.5788269043</ele>
        <time>2014-05-24T12:30:47Z</time>
      </trkpt>
      <trkpt lat="43.42394" lon="6.14744">
        <ele>298.97192382812</ele>
        <time>2014-05-24T12:30:50Z</time>
      </trkpt>
      <trkpt lat="43.42395" lon="6.1475">
        <ele>299.22598266602</ele>
        <time>2014-05-24T12:30:53Z</time>
      </trkpt>
      <trkpt lat="43.42394" lon="6.14765">
        <ele>299.62268066406</ele>
        <time>2014-05-24T12:30:58Z</time>
      </trkpt>
      <trkpt lat="43.42392" lon="6.14783">
        <ele>300.01675415039</ele>
        <time>2014-05-24T12:31:04Z</time>
      </trkpt>
      <trkpt lat="43.42388" lon="6.14804">
        <ele>299.99813842773</ele>
        <time>2014-05-24T12:31:10Z</time>
      </trkpt>
      <trkpt lat="43.42387" lon="6.14819">
        <ele>300.45959472656</ele>
        <time>2014-05-24T12:31:14Z</time>
      </trkpt>
      <trkpt lat="43.42387" lon="6.14823">
        <ele>300.58093261719</ele>
        <time>2014-05-24T12:31:15Z</time>
      </trkpt>
      <trkpt lat="43.42387" lon="6.14826">
        <ele>300.68118286133</ele>
        <time>2014-05-24T12:31:16Z</time>
      </trkpt>
      <trkpt lat="43.42387" lon="6.1487">
        <ele>301.29473876953</ele>
        <time>2014-05-24T12:31:29Z</time>
      </trkpt>
      <trkpt lat="43.42388" lon="6.1489">
        <ele>301.97451782227</ele>
        <time>2014-05-24T12:31:35Z</time>
      </trkpt>
      <trkpt lat="43.42395" lon="6.14909">
        <ele>302.15661621094</ele>
        <time>2014-05-24T12:31:41Z</time>
      </trkpt>
      <trkpt lat="43.42397" lon="6.14929">
        <ele>302.59777832031</ele>
        <time>2014-05-24T12:31:47Z</time>
      </trkpt>
      <trkpt lat="43.42393" lon="6.14951">
        <ele>303.03848266602</ele>
        <time>2014-05-24T12:31:53Z</time>
      </trkpt>
      <trkpt lat="43.4239" lon="6.14975">
        <ele>303.12808227539</ele>
        <time>2014-05-24T12:32:00Z</time>
      </trkpt>
      <trkpt lat="43.42387" lon="6.15009">
        <ele>303.94604492188</ele>
        <time>2014-05-24T12:32:09Z</time>
      </trkpt>
      <trkpt lat="43.42388" lon="6.15016">
        <ele>303.97351074219</ele>
        <time>2014-05-24T12:32:11Z</time>
      </trkpt>
      <trkpt lat="43.42395" lon="6.1505">
        <ele>304.83981323242</ele>
        <time>2014-05-24T12:32:20Z</time>
      </trkpt>
      <trkpt lat="43.42406" lon="6.15068">
        <ele>305.26089477539</ele>
        <time>2014-05-24T12:32:26Z</time>
      </trkpt>
      <trkpt lat="43.42418" lon="6.15087">
        <ele>306.00866699219</ele>
        <time>2014-05-24T12:32:34Z</time>
      </trkpt>
      <trkpt lat="43.42427" lon="6.15107">
        <ele>306.31042480469</ele>
        <time>2014-05-24T12:32:40Z</time>
      </trkpt>
      <trkpt lat="43.4244" lon="6.15133">
        <ele>306.96469116211</ele>
        <time>2014-05-24T12:32:49Z</time>
      </trkpt>
      <trkpt lat="43.42448" lon="6.1516">
        <ele>307.78286743164</ele>
        <time>2014-05-24T12:32:57Z</time>
      </trkpt>
      <trkpt lat="43.42455" lon="6.15189">
        <ele>308.29748535156</ele>
        <time>2014-05-24T12:33:05Z</time>
      </trkpt>
      <trkpt lat="43.42459" lon="6.15208">
        <ele>308.75915527344</ele>
        <time>2014-05-24T12:33:12Z</time>
      </trkpt>
      <trkpt lat="43.42461" lon="6.15211">
        <ele>308.83712768555</ele>
        <time>2014-05-24T12:33:17Z</time>
      </trkpt>
      <trkpt lat="43.42461" lon="6.15211">
        <ele>308.83712768555</ele>
        <time>2014-05-24T12:33:36Z</time>
      </trkpt>
      <trkpt lat="43.42461" lon="6.15211">
        <ele>308.83712768555</ele>
        <time>2014-05-24T12:33:38Z</time>
      </trkpt>
      <trkpt lat="43.42461" lon="6.15211">
        <ele>308.84936523438</ele>
        <time>2014-05-24T12:33:50Z</time>
      </trkpt>
      <trkpt lat="43.42461" lon="6.15214">
        <ele>308.87521362305</ele>
        <time>2014-05-24T12:33:55Z</time>
      </trkpt>
      <trkpt lat="43.42461" lon="6.15218">
        <ele>308.93759155273</ele>
        <time>2014-05-24T12:33:57Z</time>
      </trkpt>
      <trkpt lat="43.42462" lon="6.15231">
        <ele>309.20346069336</ele>
        <time>2014-05-24T12:34:01Z</time>
      </trkpt>
      <trkpt lat="43.42469" lon="6.15254">
        <ele>309.90252685547</ele>
        <time>2014-05-24T12:34:05Z</time>
      </trkpt>
      <trkpt lat="43.42471" lon="6.15258">
        <ele>309.97702026367</ele>
        <time>2014-05-24T12:34:07Z</time>
      </trkpt>
      <trkpt lat="43.42473" lon="6.15262">
        <ele>310</ele>
        <time>2014-05-24T12:34:08Z</time>
      </trkpt>
      <trkpt lat="43.42474" lon="6.15266">
        <ele>310</ele>
        <time>2014-05-24T12:34:09Z</time>
      </trkpt>
      <trkpt lat="43.42475" lon="6.15269">
        <ele>310</ele>
        <time>2014-05-24T12:34:10Z</time>
      </trkpt>
      <trkpt lat="43.42476" lon="6.15277">
        <ele>310</ele>
        <time>2014-05-24T12:34:12Z</time>
      </trkpt>
      <trkpt lat="43.42479" lon="6.15302">
        <ele>310.87680053711</ele>
        <time>2014-05-24T12:34:18Z</time>
      </trkpt>
      <trkpt lat="43.42485" lon="6.15321">
        <ele>311</ele>
        <time>2014-05-24T12:34:23Z</time>
      </trkpt>
      <trkpt lat="43.42496" lon="6.15337">
        <ele>311.13851928711</ele>
        <time>2014-05-24T12:34:29Z</time>
      </trkpt>
      <trkpt lat="43.42504" lon="6.15355">
        <ele>311.77709960938</ele>
        <time>2014-05-24T12:34:35Z</time>
      </trkpt>
      <trkpt lat="43.42508" lon="6.15382">
        <ele>312</ele>
        <time>2014-05-24T12:34:42Z</time>
      </trkpt>
      <trkpt lat="43.42509" lon="6.15384">
        <ele>312</ele>
        <time>2014-05-24T12:34:43Z</time>
      </trkpt>
      <trkpt lat="43.42513" lon="6.15385">
        <ele>312</ele>
        <time>2014-05-24T12:34:45Z</time>
      </trkpt>
      <trkpt lat="43.42524" lon="6.15388">
        <ele>312</ele>
        <time>2014-05-24T12:34:51Z</time>
      </trkpt>
      <trkpt lat="43.42532" lon="6.1539">
        <ele>312.04388427734</ele>
        <time>2014-05-24T12:34:55Z</time>
      </trkpt>
      <trkpt lat="43.42537" lon="6.15391">
        <ele>312.04299926758</ele>
        <time>2014-05-24T12:34:57Z</time>
      </trkpt>
      <trkpt lat="43.4254" lon="6.15391">
        <ele>312.05258178711</ele>
        <time>2014-05-24T12:34:59Z</time>
      </trkpt>
      <trkpt lat="43.42563" lon="6.15415">
        <ele>311.98007202148</ele>
        <time>2014-05-24T12:35:10Z</time>
      </trkpt>
      <trkpt lat="43.42576" lon="6.15422">
        <ele>312.04489135742</ele>
        <time>2014-05-24T12:35:15Z</time>
      </trkpt>
      <trkpt lat="43.4259" lon="6.1543">
        <ele>311.76177978516</ele>
        <time>2014-05-24T12:35:20Z</time>
      </trkpt>
      <trkpt lat="43.42601" lon="6.15445">
        <ele>311.35583496094</ele>
        <time>2014-05-24T12:35:26Z</time>
      </trkpt>
      <trkpt lat="43.42607" lon="6.15455">
        <ele>311.51034545898</ele>
        <time>2014-05-24T12:35:29Z</time>
      </trkpt>
      <trkpt lat="43.4261" lon="6.15458">
        <ele>311.52578735352</ele>
        <time>2014-05-24T12:35:30Z</time>
      </trkpt>
      <trkpt lat="43.42614" lon="6.15461">
        <ele>311.32757568359</ele>
        <time>2014-05-24T12:35:32Z</time>
      </trkpt>
      <trkpt lat="43.4263" lon="6.15474">
        <ele>309.91827392578</ele>
        <time>2014-05-24T12:35:39Z</time>
      </trkpt>
      <trkpt lat="43.42646" lon="6.15487">
        <ele>308.72930908203</ele>
        <time>2014-05-24T12:35:45Z</time>
      </trkpt>
      <trkpt lat="43.42661" lon="6.15501">
        <ele>308.23568725586</ele>
        <time>2014-05-24T12:35:51Z</time>
      </trkpt>
      <trkpt lat="43.42672" lon="6.15514">
        <ele>308.30950927734</ele>
        <time>2014-05-24T12:35:56Z</time>
      </trkpt>
      <trkpt lat="43.42682" lon="6.15524">
        <ele>308.30776977539</ele>
        <time>2014-05-24T12:36:00Z</time>
      </trkpt>
      <trkpt lat="43.42691" lon="6.15531">
        <ele>308.13629150391</ele>
        <time>2014-05-24T12:36:04Z</time>
      </trkpt>
      <trkpt lat="43.42703" lon="6.15535">
        <ele>307.69683837891</ele>
        <time>2014-05-24T12:36:09Z</time>
      </trkpt>
      <trkpt lat="43.42717" lon="6.15541">
        <ele>307.18872070312</ele>
        <time>2014-05-24T12:36:14Z</time>
      </trkpt>
      <trkpt lat="43.42719" lon="6.15544">
        <ele>307.12005615234</ele>
        <time>2014-05-24T12:36:15Z</time>
      </trkpt>
      <trkpt lat="43.4272" lon="6.15552">
        <ele>307.09259033203</ele>
        <time>2014-05-24T12:36:17Z</time>
      </trkpt>
      <trkpt lat="43.42724" lon="6.15571">
        <ele>306.92779541016</ele>
        <time>2014-05-24T12:36:23Z</time>
      </trkpt>
      <trkpt lat="43.4273" lon="6.15572">
        <ele>306.73553466797</ele>
        <time>2014-05-24T12:36:27Z</time>
      </trkpt>
      <trkpt lat="43.42746" lon="6.15577">
        <ele>306.14501953125</ele>
        <time>2014-05-24T12:36:32Z</time>
      </trkpt>
      <trkpt lat="43.42759" lon="6.15588">
        <ele>305.84942626953</ele>
        <time>2014-05-24T12:36:37Z</time>
      </trkpt>
      <trkpt lat="43.42761" lon="6.15591">
        <ele>305.89752197266</ele>
        <time>2014-05-24T12:36:38Z</time>
      </trkpt>
      <trkpt lat="43.42769" lon="6.15608">
        <ele>306.20135498047</ele>
        <time>2014-05-24T12:36:43Z</time>
      </trkpt>
      <trkpt lat="43.42776" lon="6.15622">
        <ele>306.04638671875</ele>
        <time>2014-05-24T12:36:48Z</time>
      </trkpt>
      <trkpt lat="43.42784" lon="6.15632">
        <ele>305.77172851562</ele>
        <time>2014-05-24T12:36:53Z</time>
      </trkpt>
      <trkpt lat="43.42793" lon="6.15641">
        <ele>305.51034545898</ele>
        <time>2014-05-24T12:36:58Z</time>
      </trkpt>
      <trkpt lat="43.42804" lon="6.15647">
        <ele>305.33868408203</ele>
        <time>2014-05-24T12:37:03Z</time>
      </trkpt>
      <trkpt lat="43.42821" lon="6.15658">
        <ele>305.30642700195</ele>
        <time>2014-05-24T12:37:09Z</time>
      </trkpt>
      <trkpt lat="43.42836" lon="6.15665">
        <ele>304.89031982422</ele>
        <time>2014-05-24T12:37:14Z</time>
      </trkpt>
      <trkpt lat="43.42839" lon="6.15667">
        <ele>304.78128051758</ele>
        <time>2014-05-24T12:37:15Z</time>
      </trkpt>
      <trkpt lat="43.42842" lon="6.15668">
        <ele>304.68936157227</ele>
        <time>2014-05-24T12:37:16Z</time>
      </trkpt>
      <trkpt lat="43.42846" lon="6.1567">
        <ele>304.61364746094</ele>
        <time>2014-05-24T12:37:17Z</time>
      </trkpt>
      <trkpt lat="43.4285" lon="6.15671">
        <ele>304.49801635742</ele>
        <time>2014-05-24T12:37:18Z</time>
      </trkpt>
      <trkpt lat="43.42868" lon="6.15677">
        <ele>304.26330566406</ele>
        <time>2014-05-24T12:37:23Z</time>
      </trkpt>
      <trkpt lat="43.42873" lon="6.15681">
        <ele>304.28671264648</ele>
        <time>2014-05-24T12:37:25Z</time>
      </trkpt>
      <trkpt lat="43.42892" lon="6.15697">
        <ele>303.88531494141</ele>
        <time>2014-05-24T12:37:32Z</time>
      </trkpt>
      <trkpt lat="43.42904" lon="6.15703">
        <ele>303.44586181641</ele>
        <time>2014-05-24T12:37:36Z</time>
      </trkpt>
      <trkpt lat="43.42914" lon="6.15709">
        <ele>303.08880615234</ele>
        <time>2014-05-24T12:37:40Z</time>
      </trkpt>
      <trkpt lat="43.42925" lon="6.15715">
        <ele>302.69055175781</ele>
        <time>2014-05-24T12:37:44Z</time>
      </trkpt>
      <trkpt lat="43.42928" lon="6.15718">
        <ele>302.59442138672</ele>
        <time>2014-05-24T12:37:45Z</time>
      </trkpt>
      <trkpt lat="43.42935" lon="6.15726">
        <ele>302.49676513672</ele>
        <time>2014-05-24T12:37:48Z</time>
      </trkpt>
      <trkpt lat="43.42945" lon="6.15746">
        <ele>302.82806396484</ele>
        <time>2014-05-24T12:37:54Z</time>
      </trkpt>
      <trkpt lat="43.42949" lon="6.15749">
        <ele>302.78857421875</ele>
        <time>2014-05-24T12:37:57Z</time>
      </trkpt>
      <trkpt lat="43.42949" lon="6.15749">
        <ele>302.78857421875</ele>
        <time>2014-05-24T12:38:11Z</time>
      </trkpt>
      <trkpt lat="43.42949" lon="6.15749">
        <ele>302.78857421875</ele>
        <time>2014-05-24T12:38:24Z</time>
      </trkpt>
      <trkpt lat="43.4295" lon="6.15748">
        <ele>302.72506713867</ele>
        <time>2014-05-24T12:38:29Z</time>
      </trkpt>
      <trkpt lat="43.42952" lon="6.15748">
        <ele>302.67013549805</ele>
        <time>2014-05-24T12:38:30Z</time>
      </trkpt>
      <trkpt lat="43.42956" lon="6.15751">
        <ele>302.59191894531</ele>
        <time>2014-05-24T12:38:33Z</time>
      </trkpt>
      <trkpt lat="43.42957" lon="6.15753">
        <ele>302.53698730469</ele>
        <time>2014-05-24T12:38:35Z</time>
      </trkpt>
      <trkpt lat="43.42964" lon="6.15763">
        <ele>302.30352783203</ele>
        <time>2014-05-24T12:38:39Z</time>
      </trkpt>
      <trkpt lat="43.42975" lon="6.15781">
        <ele>301.9052734375</ele>
        <time>2014-05-24T12:38:45Z</time>
      </trkpt>
      <trkpt lat="43.42991" lon="6.15799">
        <ele>301.32849121094</ele>
        <time>2014-05-24T12:38:51Z</time>
      </trkpt>
      <trkpt lat="43.43002" lon="6.15814">
        <ele>301.57192993164</ele>
        <time>2014-05-24T12:38:56Z</time>
      </trkpt>
      <trkpt lat="43.43007" lon="6.15824">
        <ele>302</ele>
        <time>2014-05-24T12:38:59Z</time>
      </trkpt>
      <trkpt lat="43.43013" lon="6.15829">
        <ele>301.90130615234</ele>
        <time>2014-05-24T12:39:01Z</time>
      </trkpt>
      <trkpt lat="43.43034" lon="6.15852">
        <ele>300.92807006836</ele>
        <time>2014-05-24T12:39:09Z</time>
      </trkpt>
      <trkpt lat="43.43037" lon="6.15855">
        <ele>300.92401123047</ele>
        <time>2014-05-24T12:39:10Z</time>
      </trkpt>
      <trkpt lat="43.43055" lon="6.15871">
        <ele>301.01309204102</ele>
        <time>2014-05-24T12:39:16Z</time>
      </trkpt>
      <trkpt lat="43.43057" lon="6.15874">
        <ele>300.93896484375</ele>
        <time>2014-05-24T12:39:17Z</time>
      </trkpt>
      <trkpt lat="43.43082" lon="6.15898">
        <ele>300.35510253906</ele>
        <time>2014-05-24T12:39:26Z</time>
      </trkpt>
      <trkpt lat="43.43084" lon="6.15899">
        <ele>300.35717773438</ele>
        <time>2014-05-24T12:39:27Z</time>
      </trkpt>
      <trkpt lat="43.4309" lon="6.15909">
        <ele>300.55169677734</ele>
        <time>2014-05-24T12:39:31Z</time>
      </trkpt>
      <trkpt lat="43.43093" lon="6.15911">
        <ele>300.49530029297</ele>
        <time>2014-05-24T12:39:32Z</time>
      </trkpt>
      <trkpt lat="43.43103" lon="6.1592">
        <ele>300.291015625</ele>
        <time>2014-05-24T12:39:36Z</time>
      </trkpt>
      <trkpt lat="43.43105" lon="6.15922">
        <ele>300.20861816406</ele>
        <time>2014-05-24T12:39:37Z</time>
      </trkpt>
      <trkpt lat="43.43118" lon="6.15937">
        <ele>300</ele>
        <time>2014-05-24T12:39:43Z</time>
      </trkpt>
      <trkpt lat="43.4313" lon="6.15949">
        <ele>300.05410766602</ele>
        <time>2014-05-24T12:39:47Z</time>
      </trkpt>
      <trkpt lat="43.43142" lon="6.15958">
        <ele>300</ele>
        <time>2014-05-24T12:39:51Z</time>
      </trkpt>
      <trkpt lat="43.4315" lon="6.15956">
        <ele>300</ele>
        <time>2014-05-24T12:39:55Z</time>
      </trkpt>
      <trkpt lat="43.43155" lon="6.15957">
        <ele>300</ele>
        <time>2014-05-24T12:39:58Z</time>
      </trkpt>
      <trkpt lat="43.43157" lon="6.15958">
        <ele>300</ele>
        <time>2014-05-24T12:39:59Z</time>
      </trkpt>
      <trkpt lat="43.4316" lon="6.15958">
        <ele>300</ele>
        <time>2014-05-24T12:40:00Z</time>
      </trkpt>
      <trkpt lat="43.43162" lon="6.15957">
        <ele>300</ele>
        <time>2014-05-24T12:40:01Z</time>
      </trkpt>
      <trkpt lat="43.43163" lon="6.15957">
        <ele>300</ele>
        <time>2014-05-24T12:40:02Z</time>
      </trkpt>
      <trkpt lat="43.43163" lon="6.15957">
        <ele>300</ele>
        <time>2014-05-24T12:40:15Z</time>
      </trkpt>
      <trkpt lat="43.43164" lon="6.15957">
        <ele>300</ele>
        <time>2014-05-24T12:40:25Z</time>
      </trkpt>
      <trkpt lat="43.43164" lon="6.15957">
        <ele>300</ele>
        <time>2014-05-24T12:40:44Z</time>
      </trkpt>
      <trkpt lat="43.43164" lon="6.15957">
        <ele>300</ele>
        <time>2014-05-24T12:40:57Z</time>
      </trkpt>
      <trkpt lat="43.43165" lon="6.15956">
        <ele>300</ele>
        <time>2014-05-24T12:41:06Z</time>
      </trkpt>
      <trkpt lat="43.43165" lon="6.15956">
        <ele>300</ele>
        <time>2014-05-24T12:41:18Z</time>
      </trkpt>
      <trkpt lat="43.43165" lon="6.15956">
        <ele>300</ele>
        <time>2014-05-24T12:41:29Z</time>
      </trkpt>
      <trkpt lat="43.43164" lon="6.15956">
        <ele>300</ele>
        <time>2014-05-24T12:41:37Z</time>
      </trkpt>
      <trkpt lat="43.43164" lon="6.15956">
        <ele>300</ele>
        <time>2014-05-24T12:42:01Z</time>
      </trkpt>
      <trkpt lat="43.43164" lon="6.15956">
        <ele>300</ele>
        <time>2014-05-24T12:42:09Z</time>
      </trkpt>
      <trkpt lat="43.43164" lon="6.15957">
        <ele>300</ele>
        <time>2014-05-24T12:42:10Z</time>
      </trkpt>
      <trkpt lat="43.43164" lon="6.15957">
        <ele>300</ele>
        <time>2014-05-24T12:42:28Z</time>
      </trkpt>
      <trkpt lat="43.43164" lon="6.15957">
        <ele>300</ele>
        <time>2014-05-24T12:42:48Z</time>
      </trkpt>
      <trkpt lat="43.43165" lon="6.15956">
        <ele>300</ele>
        <time>2014-05-24T12:42:53Z</time>
      </trkpt>
      <trkpt lat="43.43165" lon="6.15956">
        <ele>300</ele>
        <time>2014-05-24T12:43:09Z</time>
      </trkpt>
      <trkpt lat="43.43165" lon="6.15956">
        <ele>300</ele>
        <time>2014-05-24T12:43:25Z</time>
      </trkpt>
      <trkpt lat="43.43165" lon="6.15956">
        <ele>300</ele>
        <time>2014-05-24T12:43:30Z</time>
      </trkpt>
      <trkpt lat="43.43165" lon="6.15956">
        <ele>300</ele>
        <time>2014-05-24T12:43:33Z</time>
      </trkpt>
      <trkpt lat="43.43167" lon="6.15955">
        <ele>299.98571777344</ele>
        <time>2014-05-24T12:43:39Z</time>
      </trkpt>
      <trkpt lat="43.43167" lon="6.15955">
        <ele>299.9033203125</ele>
        <time>2014-05-24T12:43:45Z</time>
      </trkpt>
      <trkpt lat="43.43167" lon="6.15951">
        <ele>299.98571777344</ele>
        <time>2014-05-24T12:43:48Z</time>
      </trkpt>
      <trkpt lat="43.43167" lon="6.1595">
        <ele>299.9033203125</ele>
        <time>2014-05-24T12:43:50Z</time>
      </trkpt>
      <trkpt lat="43.43165" lon="6.15949">
        <ele>300</ele>
        <time>2014-05-24T12:43:55Z</time>
      </trkpt>
      <trkpt lat="43.43162" lon="6.15947">
        <ele>300</ele>
        <time>2014-05-24T12:44:00Z</time>
      </trkpt>
      <trkpt lat="43.4316" lon="6.15946">
        <ele>300</ele>
        <time>2014-05-24T12:44:05Z</time>
      </trkpt>
      <trkpt lat="43.4316" lon="6.15947">
        <ele>300</ele>
        <time>2014-05-24T12:44:10Z</time>
      </trkpt>
      <trkpt lat="43.43155" lon="6.15955">
        <ele>300</ele>
        <time>2014-05-24T12:44:17Z</time>
      </trkpt>
      <trkpt lat="43.43154" lon="6.15956">
        <ele>300</ele>
        <time>2014-05-24T12:44:18Z</time>
      </trkpt>
      <trkpt lat="43.43154" lon="6.15956">
        <ele>300</ele>
        <time>2014-05-24T12:44:45Z</time>
      </trkpt>
      <trkpt lat="43.43154" lon="6.15956">
        <ele>300</ele>
        <time>2014-05-24T12:44:56Z</time>
      </trkpt>
      <trkpt lat="43.43153" lon="6.15956">
        <ele>300</ele>
        <time>2014-05-24T12:44:58Z</time>
      </trkpt>
      <trkpt lat="43.43153" lon="6.15956">
        <ele>300</ele>
        <time>2014-05-24T12:45:06Z</time>
      </trkpt>
      <trkpt lat="43.43153" lon="6.15956">
        <ele>300</ele>
        <time>2014-05-24T12:45:14Z</time>
      </trkpt>
      <trkpt lat="43.43149" lon="6.15958">
        <ele>300</ele>
        <time>2014-05-24T12:45:21Z</time>
      </trkpt>
      <trkpt lat="43.43145" lon="6.15959">
        <ele>300</ele>
        <time>2014-05-24T12:45:23Z</time>
      </trkpt>
      <trkpt lat="43.43142" lon="6.15956">
        <ele>300</ele>
        <time>2014-05-24T12:45:25Z</time>
      </trkpt>
      <trkpt lat="43.43137" lon="6.15952">
        <ele>300.02334594727</ele>
        <time>2014-05-24T12:45:29Z</time>
      </trkpt>
      <trkpt lat="43.43134" lon="6.15951">
        <ele>300.03985595703</ele>
        <time>2014-05-24T12:45:30Z</time>
      </trkpt>
      <trkpt lat="43.43132" lon="6.1595">
        <ele>300.04360961914</ele>
        <time>2014-05-24T12:45:31Z</time>
      </trkpt>
      <trkpt lat="43.43131" lon="6.15948">
        <ele>300.04098510742</ele>
        <time>2014-05-24T12:45:32Z</time>
      </trkpt>
      <trkpt lat="43.43129" lon="6.15947">
        <ele>300.03909301758</ele>
        <time>2014-05-24T12:45:33Z</time>
      </trkpt>
      <trkpt lat="43.43124" lon="6.15945">
        <ele>300.01266479492</ele>
        <time>2014-05-24T12:45:35Z</time>
      </trkpt>
      <trkpt lat="43.43119" lon="6.1594">
        <ele>300</ele>
        <time>2014-05-24T12:45:37Z</time>
      </trkpt>
      <trkpt lat="43.43114" lon="6.15931">
        <ele>300</ele>
        <time>2014-05-24T12:45:39Z</time>
      </trkpt>
      <trkpt lat="43.43108" lon="6.15916">
        <ele>300.0954284668</ele>
        <time>2014-05-24T12:45:42Z</time>
      </trkpt>
      <trkpt lat="43.43102" lon="6.1591">
        <ele>300.2502746582</ele>
        <time>2014-05-24T12:45:44Z</time>
      </trkpt>
      <trkpt lat="43.43089" lon="6.15894">
        <ele>300.16030883789</ele>
        <time>2014-05-24T12:45:49Z</time>
      </trkpt>
      <trkpt lat="43.43085" lon="6.15884">
        <ele>300</ele>
        <time>2014-05-24T12:45:52Z</time>
      </trkpt>
      <trkpt lat="43.43074" lon="6.15876">
        <ele>300.33471679688</ele>
        <time>2014-05-24T12:45:55Z</time>
      </trkpt>
      <trkpt lat="43.43066" lon="6.15869">
        <ele>300.62310791016</ele>
        <time>2014-05-24T12:45:58Z</time>
      </trkpt>
      <trkpt lat="43.43051" lon="6.15853">
        <ele>300.74911499023</ele>
        <time>2014-05-24T12:46:03Z</time>
      </trkpt>
      <trkpt lat="43.43038" lon="6.15837">
        <ele>300.68139648438</ele>
        <time>2014-05-24T12:46:07Z</time>
      </trkpt>
      <trkpt lat="43.43032" lon="6.15824">
        <ele>300.85906982422</ele>
        <time>2014-05-24T12:46:10Z</time>
      </trkpt>
      <trkpt lat="43.43029" lon="6.15822">
        <ele>300.95520019531</ele>
        <time>2014-05-24T12:46:11Z</time>
      </trkpt>
      <trkpt lat="43.43011" lon="6.15813">
        <ele>301.29919433594</ele>
        <time>2014-05-24T12:46:16Z</time>
      </trkpt>
      <trkpt lat="43.43" lon="6.15791">
        <ele>300.99942016602</ele>
        <time>2014-05-24T12:46:21Z</time>
      </trkpt>
      <trkpt lat="43.42991" lon="6.15782">
        <ele>301.31475830078</ele>
        <time>2014-05-24T12:46:24Z</time>
      </trkpt>
      <trkpt lat="43.42977" lon="6.15769">
        <ele>301.83660888672</ele>
        <time>2014-05-24T12:46:29Z</time>
      </trkpt>
      <trkpt lat="43.42966" lon="6.15755">
        <ele>302.23486328125</ele>
        <time>2014-05-24T12:46:34Z</time>
      </trkpt>
      <trkpt lat="43.42959" lon="6.15751">
        <ele>302.46832275391</ele>
        <time>2014-05-24T12:46:37Z</time>
      </trkpt>
      <trkpt lat="43.42958" lon="6.15752">
        <ele>302.52325439453</ele>
        <time>2014-05-24T12:46:38Z</time>
      </trkpt>
      <trkpt lat="43.42953" lon="6.15754">
        <ele>302.70178222656</ele>
        <time>2014-05-24T12:46:43Z</time>
      </trkpt>
      <trkpt lat="43.42951" lon="6.15755">
        <ele>302.75671386719</ele>
        <time>2014-05-24T12:46:47Z</time>
      </trkpt>
      <trkpt lat="43.42951" lon="6.15755">
        <ele>302.75671386719</ele>
        <time>2014-05-24T12:46:49Z</time>
      </trkpt>
      <trkpt lat="43.42951" lon="6.15755">
        <ele>302.75671386719</ele>
        <time>2014-05-24T12:46:53Z</time>
      </trkpt>
      <trkpt lat="43.4295" lon="6.15758">
        <ele>302.7841796875</ele>
        <time>2014-05-24T12:46:55Z</time>
      </trkpt>
      <trkpt lat="43.4295" lon="6.15762">
        <ele>302.79791259766</ele>
        <time>2014-05-24T12:46:57Z</time>
      </trkpt>
      <trkpt lat="43.42947" lon="6.15781">
        <ele>302.92150878906</ele>
        <time>2014-05-24T12:47:03Z</time>
      </trkpt>
      <trkpt lat="43.42942" lon="6.15799">
        <ele>303.10003662109</ele>
        <time>2014-05-24T12:47:08Z</time>
      </trkpt>
      <trkpt lat="43.42934" lon="6.15819">
        <ele>303.57077026367</ele>
        <time>2014-05-24T12:47:14Z</time>
      </trkpt>
      <trkpt lat="43.42929" lon="6.15827">
        <ele>303.95483398438</ele>
        <time>2014-05-24T12:47:17Z</time>
      </trkpt>
      <trkpt lat="43.42925" lon="6.15844">
        <ele>304.63287353516</ele>
        <time>2014-05-24T12:47:21Z</time>
      </trkpt>
      <trkpt lat="43.42923" lon="6.15862">
        <ele>305.02349853516</ele>
        <time>2014-05-24T12:47:26Z</time>
      </trkpt>
      <trkpt lat="43.4292" lon="6.15879">
        <ele>305.47821044922</ele>
        <time>2014-05-24T12:47:31Z</time>
      </trkpt>
      <trkpt lat="43.42926" lon="6.15894">
        <ele>305.36904907227</ele>
        <time>2014-05-24T12:47:36Z</time>
      </trkpt>
      <trkpt lat="43.42928" lon="6.15905">
        <ele>305.41989135742</ele>
        <time>2014-05-24T12:47:39Z</time>
      </trkpt>
      <trkpt lat="43.4293" lon="6.1592">
        <ele>305.52575683594</ele>
        <time>2014-05-24T12:47:43Z</time>
      </trkpt>
      <trkpt lat="43.42936" lon="6.15947">
        <ele>305.39318847656</ele>
        <time>2014-05-24T12:47:49Z</time>
      </trkpt>
      <trkpt lat="43.42942" lon="6.15968">
        <ele>305.93389892578</ele>
        <time>2014-05-24T12:47:55Z</time>
      </trkpt>
      <trkpt lat="43.42945" lon="6.15977">
        <ele>305.96270751953</ele>
        <time>2014-05-24T12:47:59Z</time>
      </trkpt>
      <trkpt lat="43.42948" lon="6.15985">
        <ele>305.86657714844</ele>
        <time>2014-05-24T12:48:01Z</time>
      </trkpt>
      <trkpt lat="43.42952" lon="6.16">
        <ele>305.74298095703</ele>
        <time>2014-05-24T12:48:05Z</time>
      </trkpt>
      <trkpt lat="43.42956" lon="6.16026">
        <ele>306.51318359375</ele>
        <time>2014-05-24T12:48:12Z</time>
      </trkpt>
      <trkpt lat="43.42956" lon="6.16045">
        <ele>306.59191894531</ele>
        <time>2014-05-24T12:48:18Z</time>
      </trkpt>
      <trkpt lat="43.42957" lon="6.16062">
        <ele>306.7834777832</ele>
        <time>2014-05-24T12:48:24Z</time>
      </trkpt>
      <trkpt lat="43.42955" lon="6.16082">
        <ele>307.56970214844</ele>
        <time>2014-05-24T12:48:30Z</time>
      </trkpt>
      <trkpt lat="43.42954" lon="6.16105">
        <ele>307.66058349609</ele>
        <time>2014-05-24T12:48:36Z</time>
      </trkpt>
      <trkpt lat="43.42958" lon="6.16137">
        <ele>307.52325439453</ele>
        <time>2014-05-24T12:48:42Z</time>
      </trkpt>
      <trkpt lat="43.42959" lon="6.16169">
        <ele>307.48205566406</ele>
        <time>2014-05-24T12:48:48Z</time>
      </trkpt>
      <trkpt lat="43.4296" lon="6.16207">
        <ele>307.44085693359</ele>
        <time>2014-05-24T12:48:55Z</time>
      </trkpt>
      <trkpt lat="43.42966" lon="6.16252">
        <ele>307.23486328125</ele>
        <time>2014-05-24T12:49:04Z</time>
      </trkpt>
      <trkpt lat="43.42963" lon="6.16285">
        <ele>307.33099365234</ele>
        <time>2014-05-24T12:49:10Z</time>
      </trkpt>
      <trkpt lat="43.4296" lon="6.16322">
        <ele>307.44085693359</ele>
        <time>2014-05-24T12:49:16Z</time>
      </trkpt>
      <trkpt lat="43.42963" lon="6.16343">
        <ele>307.44586181641</ele>
        <time>2014-05-24T12:49:19Z</time>
      </trkpt>
      <trkpt lat="43.42965" lon="6.16359">
        <ele>307.5263671875</ele>
        <time>2014-05-24T12:49:21Z</time>
      </trkpt>
      <trkpt lat="43.42968" lon="6.16391">
        <ele>307.08685302734</ele>
        <time>2014-05-24T12:49:25Z</time>
      </trkpt>
      <trkpt lat="43.42968" lon="6.16408">
        <ele>306.59783935547</ele>
        <time>2014-05-24T12:49:27Z</time>
      </trkpt>
      <trkpt lat="43.42967" lon="6.16417">
        <ele>306.36331176758</ele>
        <time>2014-05-24T12:49:28Z</time>
      </trkpt>
      <trkpt lat="43.42972" lon="6.16441">
        <ele>306.01693725586</ele>
        <time>2014-05-24T12:49:31Z</time>
      </trkpt>
      <trkpt lat="43.42974" lon="6.16449">
        <ele>305.76623535156</ele>
        <time>2014-05-24T12:49:32Z</time>
      </trkpt>
      <trkpt lat="43.42977" lon="6.16456">
        <ele>305.42974853516</ele>
        <time>2014-05-24T12:49:33Z</time>
      </trkpt>
      <trkpt lat="43.42981" lon="6.16471">
        <ele>304.72937011719</ele>
        <time>2014-05-24T12:49:35Z</time>
      </trkpt>
      <trkpt lat="43.42989" lon="6.16511">
        <ele>304.01275634766</ele>
        <time>2014-05-24T12:49:40Z</time>
      </trkpt>
      <trkpt lat="43.42994" lon="6.16526">
        <ele>303.28149414062</ele>
        <time>2014-05-24T12:49:42Z</time>
      </trkpt>
      <trkpt lat="43.43" lon="6.16539">
        <ele>302.97937011719</ele>
        <time>2014-05-24T12:49:44Z</time>
      </trkpt>
      <trkpt lat="43.43008" lon="6.16555">
        <ele>302.42657470703</ele>
        <time>2014-05-24T12:49:47Z</time>
      </trkpt>
      <trkpt lat="43.43014" lon="6.1657">
        <ele>302.77874755859</ele>
        <time>2014-05-24T12:49:50Z</time>
      </trkpt>
      <trkpt lat="43.43016" lon="6.16574">
        <ele>302.89202880859</ele>
        <time>2014-05-24T12:49:51Z</time>
      </trkpt>
      <trkpt lat="43.43019" lon="6.16577">
        <ele>302.91674804688</ele>
        <time>2014-05-24T12:49:52Z</time>
      </trkpt>
      <trkpt lat="43.43028" lon="6.1658">
        <ele>302.7639465332</ele>
        <time>2014-05-24T12:49:54Z</time>
      </trkpt>
      <trkpt lat="43.43033" lon="6.16583">
        <ele>302.77423095703</ele>
        <time>2014-05-24T12:49:55Z</time>
      </trkpt>
      <trkpt lat="43.4304" lon="6.16591">
        <ele>304.35610961914</ele>
        <time>2014-05-24T12:49:57Z</time>
      </trkpt>
      <trkpt lat="43.43042" lon="6.16597">
        <ele>305.63427734375</ele>
        <time>2014-05-24T12:49:58Z</time>
      </trkpt>
      <trkpt lat="43.43043" lon="6.1661">
        <ele>308.60833740234</ele>
        <time>2014-05-24T12:50:00Z</time>
      </trkpt>
      <trkpt lat="43.43042" lon="6.16617">
        <ele>309.51568603516</ele>
        <time>2014-05-24T12:50:01Z</time>
      </trkpt>
      <trkpt lat="43.43041" lon="6.16625">
        <ele>310.23165893555</ele>
        <time>2014-05-24T12:50:02Z</time>
      </trkpt>
      <trkpt lat="43.4304" lon="6.16642">
        <ele>311.32916259766</ele>
        <time>2014-05-24T12:50:04Z</time>
      </trkpt>
      <trkpt lat="43.4304" lon="6.16661">
        <ele>311.32916259766</ele>
        <time>2014-05-24T12:50:06Z</time>
      </trkpt>
      <trkpt lat="43.43039" lon="6.1667">
        <ele>311.16436767578</ele>
        <time>2014-05-24T12:50:07Z</time>
      </trkpt>
      <trkpt lat="43.43036" lon="6.16679">
        <ele>310.8759765625</ele>
        <time>2014-05-24T12:50:08Z</time>
      </trkpt>
      <trkpt lat="43.43027" lon="6.16694">
        <ele>309.98986816406</ele>
        <time>2014-05-24T12:50:10Z</time>
      </trkpt>
      <trkpt lat="43.4302" lon="6.16705">
        <ele>310.1257019043</ele>
        <time>2014-05-24T12:50:12Z</time>
      </trkpt>
      <trkpt lat="43.43016" lon="6.16725">
        <ele>310.56414794922</ele>
        <time>2014-05-24T12:50:15Z</time>
      </trkpt>
      <trkpt lat="43.43016" lon="6.16732">
        <ele>310.56414794922</ele>
        <time>2014-05-24T12:50:16Z</time>
      </trkpt>
      <trkpt lat="43.43019" lon="6.16762">
        <ele>310.67401123047</ele>
        <time>2014-05-24T12:50:20Z</time>
      </trkpt>
      <trkpt lat="43.43021" lon="6.16769">
        <ele>310.77014160156</ele>
        <time>2014-05-24T12:50:21Z</time>
      </trkpt>
      <trkpt lat="43.43026" lon="6.16788">
        <ele>311.29971313477</ele>
        <time>2014-05-24T12:50:24Z</time>
      </trkpt>
      <trkpt lat="43.43024" lon="6.16806">
        <ele>311.8525390625</ele>
        <time>2014-05-24T12:50:28Z</time>
      </trkpt>
      <trkpt lat="43.43021" lon="6.16828">
        <ele>311.77014160156</ele>
        <time>2014-05-24T12:50:33Z</time>
      </trkpt>
      <trkpt lat="43.43024" lon="6.16835">
        <ele>311.8525390625</ele>
        <time>2014-05-24T12:50:35Z</time>
      </trkpt>
      <trkpt lat="43.43029" lon="6.16851">
        <ele>312</ele>
        <time>2014-05-24T12:50:39Z</time>
      </trkpt>
      <trkpt lat="43.4303" lon="6.16854">
        <ele>312</ele>
        <time>2014-05-24T12:50:40Z</time>
      </trkpt>
      <trkpt lat="43.4304" lon="6.16864">
        <ele>311.95217895508</ele>
        <time>2014-05-24T12:50:44Z</time>
      </trkpt>
      <trkpt lat="43.43048" lon="6.1687">
        <ele>311.75405883789</ele>
        <time>2014-05-24T12:50:48Z</time>
      </trkpt>
      <trkpt lat="43.43051" lon="6.16873">
        <ele>311.63912963867</ele>
        <time>2014-05-24T12:50:50Z</time>
      </trkpt>
      <trkpt lat="43.43054" lon="6.16876">
        <ele>311.49078369141</ele>
        <time>2014-05-24T12:50:53Z</time>
      </trkpt>
      <trkpt lat="43.43054" lon="6.16876">
        <ele>311.48260498047</ele>
        <time>2014-05-24T12:50:55Z</time>
      </trkpt>
      <trkpt lat="43.43054" lon="6.16876">
        <ele>311.47933959961</ele>
        <time>2014-05-24T12:51:01Z</time>
      </trkpt>
      <trkpt lat="43.43045" lon="6.16868">
        <ele>311.85287475586</ele>
        <time>2014-05-24T12:51:08Z</time>
      </trkpt>
      <trkpt lat="43.43037" lon="6.16863">
        <ele>311.97924804688</ele>
        <time>2014-05-24T12:51:11Z</time>
      </trkpt>
      <trkpt lat="43.43031" lon="6.16856">
        <ele>312</ele>
        <time>2014-05-24T12:51:14Z</time>
      </trkpt>
      <trkpt lat="43.43026" lon="6.16845">
        <ele>311.94866943359</ele>
        <time>2014-05-24T12:51:18Z</time>
      </trkpt>
      <trkpt lat="43.43026" lon="6.16843">
        <ele>311.92120361328</ele>
        <time>2014-05-24T12:51:19Z</time>
      </trkpt>
      <trkpt lat="43.43024" lon="6.16838">
        <ele>311.8525390625</ele>
        <time>2014-05-24T12:51:21Z</time>
      </trkpt>
      <trkpt lat="43.43021" lon="6.16833">
        <ele>311.75640869141</ele>
        <time>2014-05-24T12:51:24Z</time>
      </trkpt>
      <trkpt lat="43.4302" lon="6.16833">
        <ele>311.71520996094</ele>
        <time>2014-05-24T12:51:25Z</time>
      </trkpt>
      <trkpt lat="43.43019" lon="6.16834">
        <ele>311.70147705078</ele>
        <time>2014-05-24T12:51:29Z</time>
      </trkpt>
      <trkpt lat="43.43019" lon="6.16834">
        <ele>311.70147705078</ele>
        <time>2014-05-24T12:51:50Z</time>
      </trkpt>
      <trkpt lat="43.43019" lon="6.16834">
        <ele>311.70147705078</ele>
        <time>2014-05-24T12:51:54Z</time>
      </trkpt>
      <trkpt lat="43.43019" lon="6.16833">
        <ele>311.68774414062</ele>
        <time>2014-05-24T12:52:03Z</time>
      </trkpt>
      <trkpt lat="43.43022" lon="6.16833">
        <ele>311.78387451172</ele>
        <time>2014-05-24T12:52:08Z</time>
      </trkpt>
      <trkpt lat="43.43022" lon="6.16834">
        <ele>311.79760742188</ele>
        <time>2014-05-24T12:52:14Z</time>
      </trkpt>
      <trkpt lat="43.43022" lon="6.16834">
        <ele>311.79760742188</ele>
        <time>2014-05-24T12:52:25Z</time>
      </trkpt>
      <trkpt lat="43.43024" lon="6.16837">
        <ele>311.8525390625</ele>
        <time>2014-05-24T12:52:28Z</time>
      </trkpt>
      <trkpt lat="43.43026" lon="6.16841">
        <ele>311.92120361328</ele>
        <time>2014-05-24T12:52:30Z</time>
      </trkpt>
      <trkpt lat="43.43031" lon="6.16856">
        <ele>312</ele>
        <time>2014-05-24T12:52:35Z</time>
      </trkpt>
      <trkpt lat="43.43033" lon="6.1686">
        <ele>312</ele>
        <time>2014-05-24T12:52:37Z</time>
      </trkpt>
      <trkpt lat="43.43049" lon="6.1687">
        <ele>311.7526550293</ele>
        <time>2014-05-24T12:52:43Z</time>
      </trkpt>
      <trkpt lat="43.43065" lon="6.1688">
        <ele>310.98818969727</ele>
        <time>2014-05-24T12:52:49Z</time>
      </trkpt>
      <trkpt lat="43.43076" lon="6.16886">
        <ele>310.36163330078</ele>
        <time>2014-05-24T12:52:53Z</time>
      </trkpt>
      <trkpt lat="43.43082" lon="6.16888">
        <ele>310.06634521484</ele>
        <time>2014-05-24T12:52:55Z</time>
      </trkpt>
      <trkpt lat="43.43097" lon="6.16895">
        <ele>309.88748168945</ele>
        <time>2014-05-24T12:53:00Z</time>
      </trkpt>
      <trkpt lat="43.43111" lon="6.16904">
        <ele>309.45742797852</ele>
        <time>2014-05-24T12:53:05Z</time>
      </trkpt>
      <trkpt lat="43.43129" lon="6.16908">
        <ele>308.69570922852</ele>
        <time>2014-05-24T12:53:11Z</time>
      </trkpt>
      <trkpt lat="43.43141" lon="6.16914">
        <ele>307.93246459961</ele>
        <time>2014-05-24T12:53:16Z</time>
      </trkpt>
      <trkpt lat="43.43146" lon="6.16919">
        <ele>307.33493041992</ele>
        <time>2014-05-24T12:53:18Z</time>
      </trkpt>
      <trkpt lat="43.43152" lon="6.16929">
        <ele>306.16418457031</ele>
        <time>2014-05-24T12:53:21Z</time>
      </trkpt>
      <trkpt lat="43.43166" lon="6.16943">
        <ele>304.14889526367</ele>
        <time>2014-05-24T12:53:26Z</time>
      </trkpt>
      <trkpt lat="43.43179" lon="6.16961">
        <ele>303.11633300781</ele>
        <time>2014-05-24T12:53:31Z</time>
      </trkpt>
      <trkpt lat="43.43194" lon="6.16993">
        <ele>304.27349853516</ele>
        <time>2014-05-24T12:53:37Z</time>
      </trkpt>
      <trkpt lat="43.43204" lon="6.17008">
        <ele>305.09576416016</ele>
        <time>2014-05-24T12:53:41Z</time>
      </trkpt>
      <trkpt lat="43.4322" lon="6.1702">
        <ele>305.36184692383</ele>
        <time>2014-05-24T12:53:45Z</time>
      </trkpt>
      <trkpt lat="43.43227" lon="6.17028">
        <ele>305.23516845703</ele>
        <time>2014-05-24T12:53:47Z</time>
      </trkpt>
      <trkpt lat="43.4324" lon="6.17044">
        <ele>304.64733886719</ele>
        <time>2014-05-24T12:53:51Z</time>
      </trkpt>
      <trkpt lat="43.43256" lon="6.17064">
        <ele>304.08959960938</ele>
        <time>2014-05-24T12:53:56Z</time>
      </trkpt>
      <trkpt lat="43.43271" lon="6.17085">
        <ele>304.07836914062</ele>
        <time>2014-05-24T12:54:00Z</time>
      </trkpt>
      <trkpt lat="43.43277" lon="6.17094">
        <ele>303.82431030273</ele>
        <time>2014-05-24T12:54:02Z</time>
      </trkpt>
      <trkpt lat="43.43285" lon="6.17103">
        <ele>303.69250488281</ele>
        <time>2014-05-24T12:54:04Z</time>
      </trkpt>
      <trkpt lat="43.43292" lon="6.17114">
        <ele>303.70965576172</ele>
        <time>2014-05-24T12:54:06Z</time>
      </trkpt>
      <trkpt lat="43.43295" lon="6.17121">
        <ele>303.84356689453</ele>
        <time>2014-05-24T12:54:07Z</time>
      </trkpt>
      <trkpt lat="43.43301" lon="6.17139">
        <ele>304.44094848633</ele>
        <time>2014-05-24T12:54:10Z</time>
      </trkpt>
      <trkpt lat="43.43304" lon="6.17148">
        <ele>304.79800415039</ele>
        <time>2014-05-24T12:54:12Z</time>
      </trkpt>
      <trkpt lat="43.43309" lon="6.17166">
        <ele>305.40454101562</ele>
        <time>2014-05-24T12:54:17Z</time>
      </trkpt>
      <trkpt lat="43.4331" lon="6.1717">
        <ele>305.65682983398</ele>
        <time>2014-05-24T12:54:18Z</time>
      </trkpt>
      <trkpt lat="43.43316" lon="6.17188">
        <ele>306.63009643555</ele>
        <time>2014-05-24T12:54:24Z</time>
      </trkpt>
      <trkpt lat="43.43316" lon="6.17191">
        <ele>306.76806640625</ele>
        <time>2014-05-24T12:54:25Z</time>
      </trkpt>
      <trkpt lat="43.43317" lon="6.17195">
        <ele>306.86965942383</ele>
        <time>2014-05-24T12:54:26Z</time>
      </trkpt>
      <trkpt lat="43.43319" lon="6.17201">
        <ele>306.74435424805</ele>
        <time>2014-05-24T12:54:28Z</time>
      </trkpt>
      <trkpt lat="43.43322" lon="6.17207">
        <ele>306.56408691406</ele>
        <time>2014-05-24T12:54:30Z</time>
      </trkpt>
      <trkpt lat="43.43332" lon="6.17228">
        <ele>305.96398925781</ele>
        <time>2014-05-24T12:54:36Z</time>
      </trkpt>
      <trkpt lat="43.4334" lon="6.1725">
        <ele>306.34506225586</ele>
        <time>2014-05-24T12:54:41Z</time>
      </trkpt>
      <trkpt lat="43.43351" lon="6.17267">
        <ele>305.15057373047</ele>
        <time>2014-05-24T12:54:46Z</time>
      </trkpt>
      <trkpt lat="43.43365" lon="6.17282">
        <ele>303.71823120117</ele>
        <time>2014-05-24T12:54:51Z</time>
      </trkpt>
      <trkpt lat="43.43368" lon="6.17285">
        <ele>303.58898925781</ele>
        <time>2014-05-24T12:54:52Z</time>
      </trkpt>
      <trkpt lat="43.43371" lon="6.17288">
        <ele>303.43988037109</ele>
        <time>2014-05-24T12:54:53Z</time>
      </trkpt>
      <trkpt lat="43.43374" lon="6.1729">
        <ele>303.20425415039</ele>
        <time>2014-05-24T12:54:54Z</time>
      </trkpt>
      <trkpt lat="43.43377" lon="6.17291">
        <ele>302.90853881836</ele>
        <time>2014-05-24T12:54:56Z</time>
      </trkpt>
      <trkpt lat="43.43379" lon="6.17291">
        <ele>302.74237060547</ele>
        <time>2014-05-24T12:54:57Z</time>
      </trkpt>
      <trkpt lat="43.43381" lon="6.17291">
        <ele>302.4485168457</ele>
        <time>2014-05-24T12:54:58Z</time>
      </trkpt>
      <trkpt lat="43.43387" lon="6.17293">
        <ele>301.88598632812</ele>
        <time>2014-05-24T12:55:02Z</time>
      </trkpt>
      <trkpt lat="43.43394" lon="6.17295">
        <ele>300.9821472168</ele>
        <time>2014-05-24T12:55:07Z</time>
      </trkpt>
      <trkpt lat="43.43406" lon="6.17298">
        <ele>299.73950195312</ele>
        <time>2014-05-24T12:55:13Z</time>
      </trkpt>
      <trkpt lat="43.43418" lon="6.17307">
        <ele>300.57321166992</ele>
        <time>2014-05-24T12:55:19Z</time>
      </trkpt>
      <trkpt lat="43.43421" lon="6.17311">
        <ele>301.8987121582</ele>
        <time>2014-05-24T12:55:22Z</time>
      </trkpt>
      <trkpt lat="43.43426" lon="6.17315">
        <ele>303.27096557617</ele>
        <time>2014-05-24T12:55:25Z</time>
      </trkpt>
      <trkpt lat="43.43429" lon="6.17316">
        <ele>304.13003540039</ele>
        <time>2014-05-24T12:55:27Z</time>
      </trkpt>
      <trkpt lat="43.43435" lon="6.1732">
        <ele>305.81140136719</ele>
        <time>2014-05-24T12:55:31Z</time>
      </trkpt>
      <trkpt lat="43.43443" lon="6.17324">
        <ele>308.12408447266</ele>
        <time>2014-05-24T12:55:36Z</time>
      </trkpt>
      <trkpt lat="43.43449" lon="6.17328">
        <ele>309.94012451172</ele>
        <time>2014-05-24T12:55:40Z</time>
      </trkpt>
      <trkpt lat="43.43457" lon="6.17335">
        <ele>312.55828857422</ele>
        <time>2014-05-24T12:55:45Z</time>
      </trkpt>
      <trkpt lat="43.43468" lon="6.17347">
        <ele>316.00524902344</ele>
        <time>2014-05-24T12:55:52Z</time>
      </trkpt>
      <trkpt lat="43.43475" lon="6.17354">
        <ele>318.12301635742</ele>
        <time>2014-05-24T12:55:56Z</time>
      </trkpt>
      <trkpt lat="43.43484" lon="6.1737">
        <ele>321.06713867188</ele>
        <time>2014-05-24T12:56:04Z</time>
      </trkpt>
      <trkpt lat="43.43494" lon="6.17381">
        <ele>322.23098754883</ele>
        <time>2014-05-24T12:56:11Z</time>
      </trkpt>
      <trkpt lat="43.43498" lon="6.17387">
        <ele>322.77001953125</ele>
        <time>2014-05-24T12:56:14Z</time>
      </trkpt>
      <trkpt lat="43.43501" lon="6.17391">
        <ele>323.2278137207</ele>
        <time>2014-05-24T12:56:16Z</time>
      </trkpt>
      <trkpt lat="43.43503" lon="6.17393">
        <ele>323.35443115234</ele>
        <time>2014-05-24T12:56:17Z</time>
      </trkpt>
      <trkpt lat="43.43519" lon="6.17411">
        <ele>325.220703125</ele>
        <time>2014-05-24T12:56:25Z</time>
      </trkpt>
      <trkpt lat="43.43533" lon="6.17423">
        <ele>326.30850219727</ele>
        <time>2014-05-24T12:56:31Z</time>
      </trkpt>
      <trkpt lat="43.43541" lon="6.17432">
        <ele>326.60717773438</ele>
        <time>2014-05-24T12:56:35Z</time>
      </trkpt>
      <trkpt lat="43.43546" lon="6.17439">
        <ele>326.96081542969</ele>
        <time>2014-05-24T12:56:38Z</time>
      </trkpt>
      <trkpt lat="43.43556" lon="6.17463">
        <ele>328.98364257812</ele>
        <time>2014-05-24T12:56:46Z</time>
      </trkpt>
      <trkpt lat="43.43557" lon="6.17485">
        <ele>330</ele>
        <time>2014-05-24T12:56:52Z</time>
      </trkpt>
      <trkpt lat="43.43557" lon="6.1751">
        <ele>330</ele>
        <time>2014-05-24T12:56:58Z</time>
      </trkpt>
      <trkpt lat="43.43557" lon="6.17515">
        <ele>330</ele>
        <time>2014-05-24T12:56:59Z</time>
      </trkpt>
      <trkpt lat="43.43556" lon="6.17521">
        <ele>330</ele>
        <time>2014-05-24T12:57:00Z</time>
      </trkpt>
      <trkpt lat="43.43556" lon="6.17528">
        <ele>330</ele>
        <time>2014-05-24T12:57:01Z</time>
      </trkpt>
      <trkpt lat="43.43557" lon="6.17535">
        <ele>330</ele>
        <time>2014-05-24T12:57:02Z</time>
      </trkpt>
      <trkpt lat="43.43559" lon="6.1755">
        <ele>330</ele>
        <time>2014-05-24T12:57:04Z</time>
      </trkpt>
      <trkpt lat="43.43565" lon="6.1757">
        <ele>330</ele>
        <time>2014-05-24T12:57:07Z</time>
      </trkpt>
      <trkpt lat="43.43576" lon="6.17577">
        <ele>330</ele>
        <time>2014-05-24T12:57:10Z</time>
      </trkpt>
      <trkpt lat="43.43588" lon="6.17582">
        <ele>330</ele>
        <time>2014-05-24T12:57:13Z</time>
      </trkpt>
      <trkpt lat="43.43596" lon="6.17587">
        <ele>330</ele>
        <time>2014-05-24T12:57:15Z</time>
      </trkpt>
      <trkpt lat="43.43611" lon="6.17595">
        <ele>330</ele>
        <time>2014-05-24T12:57:18Z</time>
      </trkpt>
      <trkpt lat="43.43622" lon="6.17599">
        <ele>330</ele>
        <time>2014-05-24T12:57:20Z</time>
      </trkpt>
      <trkpt lat="43.43639" lon="6.17605">
        <ele>330</ele>
        <time>2014-05-24T12:57:23Z</time>
      </trkpt>
      <trkpt lat="43.43654" lon="6.17613">
        <ele>330</ele>
        <time>2014-05-24T12:57:26Z</time>
      </trkpt>
      <trkpt lat="43.43659" lon="6.17617">
        <ele>330</ele>
        <time>2014-05-24T12:57:27Z</time>
      </trkpt>
      <trkpt lat="43.43665" lon="6.17622">
        <ele>330</ele>
        <time>2014-05-24T12:57:28Z</time>
      </trkpt>
      <trkpt lat="43.43683" lon="6.17644">
        <ele>330</ele>
        <time>2014-05-24T12:57:32Z</time>
      </trkpt>
      <trkpt lat="43.43688" lon="6.17649">
        <ele>330</ele>
        <time>2014-05-24T12:57:33Z</time>
      </trkpt>
      <trkpt lat="43.43705" lon="6.17671">
        <ele>330</ele>
        <time>2014-05-24T12:57:37Z</time>
      </trkpt>
      <trkpt lat="43.43716" lon="6.17704">
        <ele>330</ele>
        <time>2014-05-24T12:57:42Z</time>
      </trkpt>
      <trkpt lat="43.43729" lon="6.17738">
        <ele>330</ele>
        <time>2014-05-24T12:57:48Z</time>
      </trkpt>
      <trkpt lat="43.43732" lon="6.17743">
        <ele>330</ele>
        <time>2014-05-24T12:57:49Z</time>
      </trkpt>
      <trkpt lat="43.43745" lon="6.17765">
        <ele>330</ele>
        <time>2014-05-24T12:57:54Z</time>
      </trkpt>
      <trkpt lat="43.43748" lon="6.17768">
        <ele>330</ele>
        <time>2014-05-24T12:57:55Z</time>
      </trkpt>
      <trkpt lat="43.43759" lon="6.17789">
        <ele>330</ele>
        <time>2014-05-24T12:58:00Z</time>
      </trkpt>
      <trkpt lat="43.43762" lon="6.17805">
        <ele>330</ele>
        <time>2014-05-24T12:58:03Z</time>
      </trkpt>
      <trkpt lat="43.43762" lon="6.1781">
        <ele>330</ele>
        <time>2014-05-24T12:58:04Z</time>
      </trkpt>
      <trkpt lat="43.4376" lon="6.17849">
        <ele>330</ele>
        <time>2014-05-24T12:58:11Z</time>
      </trkpt>
      <trkpt lat="43.43759" lon="6.17855">
        <ele>330</ele>
        <time>2014-05-24T12:58:12Z</time>
      </trkpt>
      <trkpt lat="43.43758" lon="6.17883">
        <ele>330</ele>
        <time>2014-05-24T12:58:17Z</time>
      </trkpt>
      <trkpt lat="43.4376" lon="6.1791">
        <ele>330</ele>
        <time>2014-05-24T12:58:21Z</time>
      </trkpt>
      <trkpt lat="43.4376" lon="6.17915">
        <ele>330</ele>
        <time>2014-05-24T12:58:23Z</time>
      </trkpt>
      <trkpt lat="43.43761" lon="6.1793">
        <ele>330</ele>
        <time>2014-05-24T12:58:26Z</time>
      </trkpt>
      <trkpt lat="43.43764" lon="6.17945">
        <ele>330</ele>
        <time>2014-05-24T12:58:29Z</time>
      </trkpt>
      <trkpt lat="43.43765" lon="6.17962">
        <ele>330</ele>
        <time>2014-05-24T12:58:33Z</time>
      </trkpt>
      <trkpt lat="43.43765" lon="6.17976">
        <ele>330</ele>
        <time>2014-05-24T12:58:36Z</time>
      </trkpt>
      <trkpt lat="43.43762" lon="6.18007">
        <ele>330</ele>
        <time>2014-05-24T12:58:43Z</time>
      </trkpt>
      <trkpt lat="43.43762" lon="6.18023">
        <ele>330</ele>
        <time>2014-05-24T12:58:46Z</time>
      </trkpt>
      <trkpt lat="43.43763" lon="6.18034">
        <ele>330</ele>
        <time>2014-05-24T12:58:48Z</time>
      </trkpt>
      <trkpt lat="43.43764" lon="6.18044">
        <ele>330</ele>
        <time>2014-05-24T12:58:50Z</time>
      </trkpt>
      <trkpt lat="43.43765" lon="6.18053">
        <ele>330</ele>
        <time>2014-05-24T12:58:52Z</time>
      </trkpt>
      <trkpt lat="43.43769" lon="6.18084">
        <ele>330</ele>
        <time>2014-05-24T12:58:59Z</time>
      </trkpt>
      <trkpt lat="43.43772" lon="6.18102">
        <ele>330</ele>
        <time>2014-05-24T12:59:03Z</time>
      </trkpt>
      <trkpt lat="43.43781" lon="6.18131">
        <ele>329.88763427734</ele>
        <time>2014-05-24T12:59:10Z</time>
      </trkpt>
      <trkpt lat="43.43777" lon="6.18154">
        <ele>329.48126220703</ele>
        <time>2014-05-24T12:59:15Z</time>
      </trkpt>
      <trkpt lat="43.43774" lon="6.18168">
        <ele>329.11520385742</ele>
        <time>2014-05-24T12:59:18Z</time>
      </trkpt>
      <trkpt lat="43.4376" lon="6.18195">
        <ele>328.9958190918</ele>
        <time>2014-05-24T12:59:25Z</time>
      </trkpt>
      <trkpt lat="43.43757" lon="6.18203">
        <ele>328.92034912109</ele>
        <time>2014-05-24T12:59:27Z</time>
      </trkpt>
      <trkpt lat="43.43749" lon="6.18227">
        <ele>328.81750488281</ele>
        <time>2014-05-24T12:59:33Z</time>
      </trkpt>
      <trkpt lat="43.43734" lon="6.18254">
        <ele>327.85107421875</ele>
        <time>2014-05-24T12:59:40Z</time>
      </trkpt>
      <trkpt lat="43.43728" lon="6.18273">
        <ele>327.17471313477</ele>
        <time>2014-05-24T12:59:44Z</time>
      </trkpt>
      <trkpt lat="43.43724" lon="6.18289">
        <ele>327</ele>
        <time>2014-05-24T12:59:47Z</time>
      </trkpt>
      <trkpt lat="43.43716" lon="6.1831">
        <ele>326.83062744141</ele>
        <time>2014-05-24T12:59:53Z</time>
      </trkpt>
      <trkpt lat="43.43718" lon="6.18315">
        <ele>326.66583251953</ele>
        <time>2014-05-24T12:59:58Z</time>
      </trkpt>
      <trkpt lat="43.4372" lon="6.18316">
        <ele>326.64007568359</ele>
        <time>2014-05-24T13:00:03Z</time>
      </trkpt>
      <trkpt lat="43.4372" lon="6.18316">
        <ele>326.64007568359</ele>
        <time>2014-05-24T13:00:24Z</time>
      </trkpt>
      <trkpt lat="43.4372" lon="6.18315">
        <ele>326.64865112305</ele>
        <time>2014-05-24T13:00:46Z</time>
      </trkpt>
      <trkpt lat="43.4372" lon="6.18315">
        <ele>326.64865112305</ele>
        <time>2014-05-24T13:00:56Z</time>
      </trkpt>
      <trkpt lat="43.43721" lon="6.18316">
        <ele>326.62976074219</ele>
        <time>2014-05-24T13:01:08Z</time>
      </trkpt>
      <trkpt lat="43.43724" lon="6.18318">
        <ele>326.5439453125</ele>
        <time>2014-05-24T13:01:10Z</time>
      </trkpt>
      <trkpt lat="43.43737" lon="6.18326">
        <ele>326.2624206543</ele>
        <time>2014-05-24T13:01:16Z</time>
      </trkpt>
      <trkpt lat="43.43754" lon="6.1834">
        <ele>326</ele>
        <time>2014-05-24T13:01:21Z</time>
      </trkpt>
      <trkpt lat="43.43757" lon="6.18342">
        <ele>326</ele>
        <time>2014-05-24T13:01:22Z</time>
      </trkpt>
      <trkpt lat="43.43764" lon="6.18347">
        <ele>326</ele>
        <time>2014-05-24T13:01:24Z</time>
      </trkpt>
      <trkpt lat="43.43772" lon="6.18352">
        <ele>326</ele>
        <time>2014-05-24T13:01:26Z</time>
      </trkpt>
      <trkpt lat="43.43781" lon="6.18356">
        <ele>325.88763427734</ele>
        <time>2014-05-24T13:01:28Z</time>
      </trkpt>
      <trkpt lat="43.43794" lon="6.18364">
        <ele>325.30639648438</ele>
        <time>2014-05-24T13:01:31Z</time>
      </trkpt>
      <trkpt lat="43.43808" lon="6.18372">
        <ele>324.53073120117</ele>
        <time>2014-05-24T13:01:34Z</time>
      </trkpt>
      <trkpt lat="43.43821" lon="6.1838">
        <ele>324.14227294922</ele>
        <time>2014-05-24T13:01:37Z</time>
      </trkpt>
      <trkpt lat="43.43829" lon="6.18392">
        <ele>323.8957824707</ele>
        <time>2014-05-24T13:01:40Z</time>
      </trkpt>
      <trkpt lat="43.4383" lon="6.18397">
        <ele>323.73895263672</ele>
        <time>2014-05-24T13:01:41Z</time>
      </trkpt>
      <trkpt lat="43.43832" lon="6.18402">
        <ele>323.55187988281</ele>
        <time>2014-05-24T13:01:42Z</time>
      </trkpt>
      <trkpt lat="43.43835" lon="6.18412">
        <ele>323.09460449219</ele>
        <time>2014-05-24T13:01:44Z</time>
      </trkpt>
      <trkpt lat="43.4384" lon="6.18425">
        <ele>322.75903320312</ele>
        <time>2014-05-24T13:01:47Z</time>
      </trkpt>
      <trkpt lat="43.43842" lon="6.18436">
        <ele>322.67663574219</ele>
        <time>2014-05-24T13:01:49Z</time>
      </trkpt>
      <trkpt lat="43.43844" lon="6.18442">
        <ele>322.60797119141</ele>
        <time>2014-05-24T13:01:50Z</time>
      </trkpt>
      <trkpt lat="43.43845" lon="6.18448">
        <ele>322.51062011719</ele>
        <time>2014-05-24T13:01:51Z</time>
      </trkpt>
      <trkpt lat="43.43845" lon="6.18454">
        <ele>322.36444091797</ele>
        <time>2014-05-24T13:01:52Z</time>
      </trkpt>
      <trkpt lat="43.43846" lon="6.1846">
        <ele>322.24072265625</ele>
        <time>2014-05-24T13:01:53Z</time>
      </trkpt>
      <trkpt lat="43.43844" lon="6.18467">
        <ele>322.11645507812</ele>
        <time>2014-05-24T13:01:54Z</time>
      </trkpt>
      <trkpt lat="43.43842" lon="6.18474">
        <ele>321.97424316406</ele>
        <time>2014-05-24T13:01:55Z</time>
      </trkpt>
      <trkpt lat="43.43839" lon="6.18489">
        <ele>321.89001464844</ele>
        <time>2014-05-24T13:01:57Z</time>
      </trkpt>
      <trkpt lat="43.43836" lon="6.18495">
        <ele>321.92599487305</ele>
        <time>2014-05-24T13:01:58Z</time>
      </trkpt>
      <trkpt lat="43.43832" lon="6.18499">
        <ele>322.00103759766</ele>
        <time>2014-05-24T13:01:59Z</time>
      </trkpt>
      <trkpt lat="43.43829" lon="6.18501">
        <ele>321.9631652832</ele>
        <time>2014-05-24T13:02:00Z</time>
      </trkpt>
      <trkpt lat="43.43825" lon="6.185">
        <ele>321.98803710938</ele>
        <time>2014-05-24T13:02:01Z</time>
      </trkpt>
      <trkpt lat="43.43823" lon="6.18499">
        <ele>322.00848388672</ele>
        <time>2014-05-24T13:02:02Z</time>
      </trkpt>
      <trkpt lat="43.43821" lon="6.18499">
        <ele>322.02151489258</ele>
        <time>2014-05-24T13:02:03Z</time>
      </trkpt>
      <trkpt lat="43.43815" lon="6.185">
        <ele>322.01040649414</ele>
        <time>2014-05-24T13:02:06Z</time>
      </trkpt>
      <trkpt lat="43.43813" lon="6.18501">
        <ele>321.9944152832</ele>
        <time>2014-05-24T13:02:07Z</time>
      </trkpt>
      <trkpt lat="43.43811" lon="6.18501">
        <ele>321.99215698242</ele>
        <time>2014-05-24T13:02:08Z</time>
      </trkpt>
      <trkpt lat="43.43809" lon="6.18502">
        <ele>321.99035644531</ele>
        <time>2014-05-24T13:02:09Z</time>
      </trkpt>
      <trkpt lat="43.43806" lon="6.18504">
        <ele>321.99588012695</ele>
        <time>2014-05-24T13:02:10Z</time>
      </trkpt>
      <trkpt lat="43.43805" lon="6.18503">
        <ele>322.0198059082</ele>
        <time>2014-05-24T13:02:11Z</time>
      </trkpt>
      <trkpt lat="43.43803" lon="6.18504">
        <ele>322.09085083008</ele>
        <time>2014-05-24T13:02:13Z</time>
      </trkpt>
      <trkpt lat="43.43801" lon="6.18504">
        <ele>322.12551879883</ele>
        <time>2014-05-24T13:02:18Z</time>
      </trkpt>
      <trkpt lat="43.43801" lon="6.18504">
        <ele>322.12551879883</ele>
        <time>2014-05-24T13:02:41Z</time>
      </trkpt>
      <trkpt lat="43.43801" lon="6.18504">
        <ele>322.12503051758</ele>
        <time>2014-05-24T13:03:14Z</time>
      </trkpt>
      <trkpt lat="43.43801" lon="6.18504">
        <ele>322.12503051758</ele>
        <time>2014-05-24T13:03:30Z</time>
      </trkpt>
      <trkpt lat="43.438" lon="6.18504">
        <ele>322.15869140625</ele>
        <time>2014-05-24T13:03:40Z</time>
      </trkpt>
      <trkpt lat="43.43799" lon="6.18504">
        <ele>322.20483398438</ele>
        <time>2014-05-24T13:03:41Z</time>
      </trkpt>
      <trkpt lat="43.43795" lon="6.18506">
        <ele>322.29879760742</ele>
        <time>2014-05-24T13:03:43Z</time>
      </trkpt>
      <trkpt lat="43.43787" lon="6.18508">
        <ele>322.48052978516</ele>
        <time>2014-05-24T13:03:46Z</time>
      </trkpt>
      <trkpt lat="43.43769" lon="6.18509">
        <ele>322.76910400391</ele>
        <time>2014-05-24T13:03:51Z</time>
      </trkpt>
      <trkpt lat="43.43755" lon="6.18509">
        <ele>322.93798828125</ele>
        <time>2014-05-24T13:03:55Z</time>
      </trkpt>
      <trkpt lat="43.43745" lon="6.18507">
        <ele>323</ele>
        <time>2014-05-24T13:03:58Z</time>
      </trkpt>
      <trkpt lat="43.43738" lon="6.18507">
        <ele>323</ele>
        <time>2014-05-24T13:04:00Z</time>
      </trkpt>
      <trkpt lat="43.43719" lon="6.18504">
        <ele>322.9826965332</ele>
        <time>2014-05-24T13:04:06Z</time>
      </trkpt>
      <trkpt lat="43.437" lon="6.18498">
        <ele>323.0654296875</ele>
        <time>2014-05-24T13:04:12Z</time>
      </trkpt>
      <trkpt lat="43.43684" lon="6.1848">
        <ele>323.44445800781</ele>
        <time>2014-05-24T13:04:19Z</time>
      </trkpt>
      <trkpt lat="43.43668" lon="6.18465">
        <ele>323.30508422852</ele>
        <time>2014-05-24T13:04:25Z</time>
      </trkpt>
      <trkpt lat="43.4365" lon="6.1845">
        <ele>323.78375244141</ele>
        <time>2014-05-24T13:04:31Z</time>
      </trkpt>
      <trkpt lat="43.4364" lon="6.18434">
        <ele>324</ele>
        <time>2014-05-24T13:04:36Z</time>
      </trkpt>
      <trkpt lat="43.43635" lon="6.18413">
        <ele>324.11343383789</ele>
        <time>2014-05-24T13:04:41Z</time>
      </trkpt>
      <trkpt lat="43.43633" lon="6.18405">
        <ele>324.34576416016</ele>
        <time>2014-05-24T13:04:43Z</time>
      </trkpt>
      <trkpt lat="43.4363" lon="6.18398">
        <ele>324.45635986328</ele>
        <time>2014-05-24T13:04:45Z</time>
      </trkpt>
      <trkpt lat="43.43604" lon="6.18375">
        <ele>324.51489257812</ele>
        <time>2014-05-24T13:04:54Z</time>
      </trkpt>
      <trkpt lat="43.43591" lon="6.18354">
        <ele>325</ele>
        <time>2014-05-24T13:05:00Z</time>
      </trkpt>
      <trkpt lat="43.43575" lon="6.18341">
        <ele>325</ele>
        <time>2014-05-24T13:05:06Z</time>
      </trkpt>
      <trkpt lat="43.4356" lon="6.18321">
        <ele>325</ele>
        <time>2014-05-24T13:05:12Z</time>
      </trkpt>
      <trkpt lat="43.43547" lon="6.18311">
        <ele>325</ele>
        <time>2014-05-24T13:05:16Z</time>
      </trkpt>
      <trkpt lat="43.43542" lon="6.1831">
        <ele>325</ele>
        <time>2014-05-24T13:05:17Z</time>
      </trkpt>
      <trkpt lat="43.4352" lon="6.18305">
        <ele>325.02288818359</ele>
        <time>2014-05-24T13:05:22Z</time>
      </trkpt>
      <trkpt lat="43.43515" lon="6.18305">
        <ele>325.00399780273</ele>
        <time>2014-05-24T13:05:23Z</time>
      </trkpt>
      <trkpt lat="43.43497" lon="6.18309">
        <ele>324.984375</ele>
        <time>2014-05-24T13:05:27Z</time>
      </trkpt>
      <trkpt lat="43.43481" lon="6.18316">
        <ele>324.75500488281</ele>
        <time>2014-05-24T13:05:30Z</time>
      </trkpt>
      <trkpt lat="43.43467" lon="6.18323">
        <ele>324.18933105469</ele>
        <time>2014-05-24T13:05:33Z</time>
      </trkpt>
      <trkpt lat="43.43447" lon="6.18333">
        <ele>323.12503051758</ele>
        <time>2014-05-24T13:05:37Z</time>
      </trkpt>
      <trkpt lat="43.43438" lon="6.18336">
        <ele>322.65396118164</ele>
        <time>2014-05-24T13:05:39Z</time>
      </trkpt>
      <trkpt lat="43.43423" lon="6.18338">
        <ele>321.92984008789</ele>
        <time>2014-05-24T13:05:42Z</time>
      </trkpt>
      <trkpt lat="43.43413" lon="6.18341">
        <ele>321.29125976562</ele>
        <time>2014-05-24T13:05:44Z</time>
      </trkpt>
      <trkpt lat="43.43403" lon="6.18342">
        <ele>320.67599487305</ele>
        <time>2014-05-24T13:05:46Z</time>
      </trkpt>
      <trkpt lat="43.43397" lon="6.18344">
        <ele>320.36553955078</ele>
        <time>2014-05-24T13:05:47Z</time>
      </trkpt>
      <trkpt lat="43.43385" lon="6.18348">
        <ele>320.06192016602</ele>
        <time>2014-05-24T13:05:49Z</time>
      </trkpt>
      <trkpt lat="43.43375" lon="6.18351">
        <ele>320.19064331055</ele>
        <time>2014-05-24T13:05:51Z</time>
      </trkpt>
      <trkpt lat="43.43369" lon="6.18353">
        <ele>320.20635986328</ele>
        <time>2014-05-24T13:05:52Z</time>
      </trkpt>
      <trkpt lat="43.4336" lon="6.18357">
        <ele>320.30392456055</ele>
        <time>2014-05-24T13:05:54Z</time>
      </trkpt>
      <trkpt lat="43.43356" lon="6.18359">
        <ele>320.81204223633</ele>
        <time>2014-05-24T13:05:55Z</time>
      </trkpt>
      <trkpt lat="43.43352" lon="6.18362">
        <ele>321.33044433594</ele>
        <time>2014-05-24T13:05:56Z</time>
      </trkpt>
      <trkpt lat="43.43348" lon="6.18364">
        <ele>321.77850341797</ele>
        <time>2014-05-24T13:05:57Z</time>
      </trkpt>
      <trkpt lat="43.43344" lon="6.18367">
        <ele>322.1887512207</ele>
        <time>2014-05-24T13:05:58Z</time>
      </trkpt>
      <trkpt lat="43.43341" lon="6.18368">
        <ele>322.56985473633</ele>
        <time>2014-05-24T13:05:59Z</time>
      </trkpt>
      <trkpt lat="43.43339" lon="6.18369">
        <ele>322.86340332031</ele>
        <time>2014-05-24T13:06:00Z</time>
      </trkpt>
      <trkpt lat="43.43338" lon="6.1837">
        <ele>323.04534912109</ele>
        <time>2014-05-24T13:06:01Z</time>
      </trkpt>
      <trkpt lat="43.43332" lon="6.18374">
        <ele>323.66836547852</ele>
        <time>2014-05-24T13:06:07Z</time>
      </trkpt>
      <trkpt lat="43.43332" lon="6.18374">
        <ele>323.66186523438</ele>
        <time>2014-05-24T13:06:09Z</time>
      </trkpt>
      <trkpt lat="43.43332" lon="6.18374">
        <ele>323.66186523438</ele>
        <time>2014-05-24T13:06:24Z</time>
      </trkpt>
      <trkpt lat="43.43332" lon="6.18374">
        <ele>323.66186523438</ele>
        <time>2014-05-24T13:06:39Z</time>
      </trkpt>
      <trkpt lat="43.43328" lon="6.18374">
        <ele>324.02593994141</ele>
        <time>2014-05-24T13:06:43Z</time>
      </trkpt>
      <trkpt lat="43.43318" lon="6.18374">
        <ele>324.91107177734</ele>
        <time>2014-05-24T13:06:49Z</time>
      </trkpt>
      <trkpt lat="43.43317" lon="6.18374">
        <ele>324.98037719727</ele>
        <time>2014-05-24T13:06:50Z</time>
      </trkpt>
      <trkpt lat="43.43313" lon="6.18376">
        <ele>325.33700561523</ele>
        <time>2014-05-24T13:06:53Z</time>
      </trkpt>
      <trkpt lat="43.43311" lon="6.18376">
        <ele>325.51168823242</ele>
        <time>2014-05-24T13:06:54Z</time>
      </trkpt>
      <trkpt lat="43.433" lon="6.1838">
        <ele>326.20483398438</ele>
        <time>2014-05-24T13:07:00Z</time>
      </trkpt>
      <trkpt lat="43.43287" lon="6.18387">
        <ele>326.68548583984</ele>
        <time>2014-05-24T13:07:07Z</time>
      </trkpt>
      <trkpt lat="43.43275" lon="6.18388">
        <ele>326.90252685547</ele>
        <time>2014-05-24T13:07:12Z</time>
      </trkpt>
      <trkpt lat="43.43252" lon="6.18387">
        <ele>326.06481933594</ele>
        <time>2014-05-24T13:07:20Z</time>
      </trkpt>
      <trkpt lat="43.43226" lon="6.18378">
        <ele>325.13098144531</ele>
        <time>2014-05-24T13:07:28Z</time>
      </trkpt>
      <trkpt lat="43.43204" lon="6.18372">
        <ele>324.36193847656</ele>
        <time>2014-05-24T13:07:35Z</time>
      </trkpt>
      <trkpt lat="43.43189" lon="6.18364">
        <ele>324</ele>
        <time>2014-05-24T13:07:40Z</time>
      </trkpt>
      <trkpt lat="43.43187" lon="6.18362">
        <ele>324</ele>
        <time>2014-05-24T13:07:41Z</time>
      </trkpt>
      <trkpt lat="43.4318" lon="6.18352">
        <ele>324.32684326172</ele>
        <time>2014-05-24T13:07:44Z</time>
      </trkpt>
      <trkpt lat="43.43171" lon="6.18341">
        <ele>324.71310424805</ele>
        <time>2014-05-24T13:07:48Z</time>
      </trkpt>
      <trkpt lat="43.43155" lon="6.18324">
        <ele>325</ele>
        <time>2014-05-24T13:07:54Z</time>
      </trkpt>
      <trkpt lat="43.43139" lon="6.18304">
        <ele>325</ele>
        <time>2014-05-24T13:08:00Z</time>
      </trkpt>
      <trkpt lat="43.4312" lon="6.18285">
        <ele>325</ele>
        <time>2014-05-24T13:08:06Z</time>
      </trkpt>
      <trkpt lat="43.43107" lon="6.18268">
        <ele>325.35498046875</ele>
        <time>2014-05-24T13:08:11Z</time>
      </trkpt>
      <trkpt lat="43.43092" lon="6.1826">
        <ele>325.62274169922</ele>
        <time>2014-05-24T13:08:16Z</time>
      </trkpt>
      <trkpt lat="43.43071" lon="6.1825">
        <ele>326</ele>
        <time>2014-05-24T13:08:22Z</time>
      </trkpt>
      <trkpt lat="43.43051" lon="6.18237">
        <ele>325.91110229492</ele>
        <time>2014-05-24T13:08:29Z</time>
      </trkpt>
      <trkpt lat="43.43037" lon="6.18227">
        <ele>325.89205932617</ele>
        <time>2014-05-24T13:08:34Z</time>
      </trkpt>
      <trkpt lat="43.43025" lon="6.1822">
        <ele>326</ele>
        <time>2014-05-24T13:08:38Z</time>
      </trkpt>
      <trkpt lat="43.43019" lon="6.18215">
        <ele>326</ele>
        <time>2014-05-24T13:08:40Z</time>
      </trkpt>
      <trkpt lat="43.43002" lon="6.182">
        <ele>326</ele>
        <time>2014-05-24T13:08:46Z</time>
      </trkpt>
      <trkpt lat="43.42984" lon="6.18189">
        <ele>326.07586669922</ele>
        <time>2014-05-24T13:08:52Z</time>
      </trkpt>
      <trkpt lat="43.42955" lon="6.18182">
        <ele>326</ele>
        <time>2014-05-24T13:09:01Z</time>
      </trkpt>
      <trkpt lat="43.42936" lon="6.1818">
        <ele>326.15979003906</ele>
        <time>2014-05-24T13:09:07Z</time>
      </trkpt>
      <trkpt lat="43.42915" lon="6.18173">
        <ele>326.78186035156</ele>
        <time>2014-05-24T13:09:13Z</time>
      </trkpt>
      <trkpt lat="43.42896" lon="6.18162">
        <ele>327.13418579102</ele>
        <time>2014-05-24T13:09:19Z</time>
      </trkpt>
      <trkpt lat="43.42887" lon="6.18148">
        <ele>327.65509033203</ele>
        <time>2014-05-24T13:09:23Z</time>
      </trkpt>
      <trkpt lat="43.42876" lon="6.18119">
        <ele>328.72625732422</ele>
        <time>2014-05-24T13:09:30Z</time>
      </trkpt>
      <trkpt lat="43.4285" lon="6.18098">
        <ele>329.18930053711</ele>
        <time>2014-05-24T13:09:39Z</time>
      </trkpt>
      <trkpt lat="43.4283" lon="6.18078">
        <ele>330</ele>
        <time>2014-05-24T13:09:46Z</time>
      </trkpt>
      <trkpt lat="43.42813" lon="6.18057">
        <ele>330</ele>
        <time>2014-05-24T13:09:52Z</time>
      </trkpt>
      <trkpt lat="43.42798" lon="6.18041">
        <ele>330</ele>
        <time>2014-05-24T13:09:58Z</time>
      </trkpt>
      <trkpt lat="43.42782" lon="6.18028">
        <ele>330</ele>
        <time>2014-05-24T13:10:04Z</time>
      </trkpt>
      <trkpt lat="43.42764" lon="6.18016">
        <ele>330</ele>
        <time>2014-05-24T13:10:11Z</time>
      </trkpt>
      <trkpt lat="43.42753" lon="6.17993">
        <ele>330</ele>
        <time>2014-05-24T13:10:17Z</time>
      </trkpt>
      <trkpt lat="43.42745" lon="6.17983">
        <ele>330</ele>
        <time>2014-05-24T13:10:20Z</time>
      </trkpt>
      <trkpt lat="43.42742" lon="6.17979">
        <ele>330</ele>
        <time>2014-05-24T13:10:21Z</time>
      </trkpt>
      <trkpt lat="43.42739" lon="6.17977">
        <ele>330</ele>
        <time>2014-05-24T13:10:22Z</time>
      </trkpt>
      <trkpt lat="43.42731" lon="6.17972">
        <ele>330</ele>
        <time>2014-05-24T13:10:24Z</time>
      </trkpt>
      <trkpt lat="43.42719" lon="6.17966">
        <ele>330</ele>
        <time>2014-05-24T13:10:28Z</time>
      </trkpt>
      <trkpt lat="43.42709" lon="6.17958">
        <ele>330</ele>
        <time>2014-05-24T13:10:32Z</time>
      </trkpt>
      <trkpt lat="43.42702" lon="6.17954">
        <ele>330</ele>
        <time>2014-05-24T13:10:35Z</time>
      </trkpt>
      <trkpt lat="43.42695" lon="6.17949">
        <ele>330</ele>
        <time>2014-05-24T13:10:38Z</time>
      </trkpt>
      <trkpt lat="43.42678" lon="6.17941">
        <ele>330</ele>
        <time>2014-05-24T13:10:44Z</time>
      </trkpt>
      <trkpt lat="43.42662" lon="6.17938">
        <ele>330</ele>
        <time>2014-05-24T13:10:50Z</time>
      </trkpt>
      <trkpt lat="43.42648" lon="6.17936">
        <ele>330</ele>
        <time>2014-05-24T13:10:55Z</time>
      </trkpt>
      <trkpt lat="43.42636" lon="6.17922">
        <ele>330</ele>
        <time>2014-05-24T13:11:00Z</time>
      </trkpt>
      <trkpt lat="43.42625" lon="6.17905">
        <ele>330</ele>
        <time>2014-05-24T13:11:05Z</time>
      </trkpt>
      <trkpt lat="43.42614" lon="6.17881">
        <ele>330</ele>
        <time>2014-05-24T13:11:11Z</time>
      </trkpt>
      <trkpt lat="43.42595" lon="6.17845">
        <ele>330</ele>
        <time>2014-05-24T13:11:20Z</time>
      </trkpt>
      <trkpt lat="43.42577" lon="6.1781">
        <ele>330</ele>
        <time>2014-05-24T13:11:29Z</time>
      </trkpt>
      <trkpt lat="43.42561" lon="6.17786">
        <ele>330</ele>
        <time>2014-05-24T13:11:36Z</time>
      </trkpt>
      <trkpt lat="43.42543" lon="6.17761">
        <ele>330</ele>
        <time>2014-05-24T13:11:44Z</time>
      </trkpt>
      <trkpt lat="43.42524" lon="6.17741">
        <ele>330</ele>
        <time>2014-05-24T13:11:50Z</time>
      </trkpt>
      <trkpt lat="43.42505" lon="6.17725">
        <ele>330</ele>
        <time>2014-05-24T13:11:56Z</time>
      </trkpt>
      <trkpt lat="43.42502" lon="6.17724">
        <ele>330</ele>
        <time>2014-05-24T13:11:57Z</time>
      </trkpt>
      <trkpt lat="43.4249" lon="6.1772">
        <ele>330</ele>
        <time>2014-05-24T13:12:01Z</time>
      </trkpt>
      <trkpt lat="43.42488" lon="6.17719">
        <ele>330</ele>
        <time>2014-05-24T13:12:02Z</time>
      </trkpt>
      <trkpt lat="43.42482" lon="6.17718">
        <ele>330</ele>
        <time>2014-05-24T13:12:07Z</time>
      </trkpt>
      <trkpt lat="43.42476" lon="6.17715">
        <ele>330</ele>
        <time>2014-05-24T13:12:14Z</time>
      </trkpt>
      <trkpt lat="43.42461" lon="6.17706">
        <ele>330</ele>
        <time>2014-05-24T13:12:25Z</time>
      </trkpt>
      <trkpt lat="43.42459" lon="6.17703">
        <ele>330</ele>
        <time>2014-05-24T13:12:28Z</time>
      </trkpt>
      <trkpt lat="43.42458" lon="6.17702">
        <ele>330</ele>
        <time>2014-05-24T13:12:29Z</time>
      </trkpt>
      <trkpt lat="43.42458" lon="6.17695">
        <ele>330</ele>
        <time>2014-05-24T13:12:32Z</time>
      </trkpt>
      <trkpt lat="43.42458" lon="6.17691">
        <ele>330</ele>
        <time>2014-05-24T13:12:33Z</time>
      </trkpt>
      <trkpt lat="43.42458" lon="6.17688">
        <ele>330</ele>
        <time>2014-05-24T13:12:34Z</time>
      </trkpt>
      <trkpt lat="43.42457" lon="6.17685">
        <ele>330</ele>
        <time>2014-05-24T13:12:35Z</time>
      </trkpt>
      <trkpt lat="43.42453" lon="6.1768">
        <ele>330</ele>
        <time>2014-05-24T13:12:37Z</time>
      </trkpt>
      <trkpt lat="43.42451" lon="6.17678">
        <ele>330</ele>
        <time>2014-05-24T13:12:38Z</time>
      </trkpt>
      <trkpt lat="43.4243" lon="6.17665">
        <ele>330</ele>
        <time>2014-05-24T13:12:45Z</time>
      </trkpt>
      <trkpt lat="43.42419" lon="6.17659">
        <ele>330</ele>
        <time>2014-05-24T13:12:49Z</time>
      </trkpt>
      <trkpt lat="43.42413" lon="6.17656">
        <ele>330</ele>
        <time>2014-05-24T13:12:51Z</time>
      </trkpt>
      <trkpt lat="43.42403" lon="6.17647">
        <ele>330</ele>
        <time>2014-05-24T13:12:56Z</time>
      </trkpt>
      <trkpt lat="43.4239" lon="6.17633">
        <ele>330</ele>
        <time>2014-05-24T13:13:02Z</time>
      </trkpt>
      <trkpt lat="43.42382" lon="6.17623">
        <ele>330</ele>
        <time>2014-05-24T13:13:06Z</time>
      </trkpt>
      <trkpt lat="43.42373" lon="6.17613">
        <ele>330</ele>
        <time>2014-05-24T13:13:10Z</time>
      </trkpt>
      <trkpt lat="43.42369" lon="6.17612">
        <ele>330</ele>
        <time>2014-05-24T13:13:12Z</time>
      </trkpt>
      <trkpt lat="43.42357" lon="6.17607">
        <ele>330</ele>
        <time>2014-05-24T13:13:16Z</time>
      </trkpt>
      <trkpt lat="43.42332" lon="6.17596">
        <ele>330</ele>
        <time>2014-05-24T13:13:26Z</time>
      </trkpt>
      <trkpt lat="43.4232" lon="6.17591">
        <ele>330</ele>
        <time>2014-05-24T13:13:31Z</time>
      </trkpt>
      <trkpt lat="43.42305" lon="6.17587">
        <ele>330</ele>
        <time>2014-05-24T13:13:37Z</time>
      </trkpt>
      <trkpt lat="43.42291" lon="6.17584">
        <ele>330</ele>
        <time>2014-05-24T13:13:43Z</time>
      </trkpt>
      <trkpt lat="43.42284" lon="6.17581">
        <ele>330</ele>
        <time>2014-05-24T13:13:47Z</time>
      </trkpt>
      <trkpt lat="43.42277" lon="6.17578">
        <ele>330</ele>
        <time>2014-05-24T13:13:51Z</time>
      </trkpt>
      <trkpt lat="43.42268" lon="6.17576">
        <ele>330</ele>
        <time>2014-05-24T13:13:56Z</time>
      </trkpt>
      <trkpt lat="43.42253" lon="6.1757">
        <ele>330</ele>
        <time>2014-05-24T13:14:02Z</time>
      </trkpt>
      <trkpt lat="43.42236" lon="6.17563">
        <ele>330</ele>
        <time>2014-05-24T13:14:09Z</time>
      </trkpt>
      <trkpt lat="43.42219" lon="6.17557">
        <ele>330</ele>
        <time>2014-05-24T13:14:15Z</time>
      </trkpt>
      <trkpt lat="43.42197" lon="6.17551">
        <ele>330</ele>
        <time>2014-05-24T13:14:23Z</time>
      </trkpt>
      <trkpt lat="43.42179" lon="6.17542">
        <ele>330</ele>
        <time>2014-05-24T13:14:30Z</time>
      </trkpt>
      <trkpt lat="43.42165" lon="6.17536">
        <ele>330</ele>
        <time>2014-05-24T13:14:36Z</time>
      </trkpt>
      <trkpt lat="43.42144" lon="6.17531">
        <ele>330</ele>
        <time>2014-05-24T13:14:44Z</time>
      </trkpt>
      <trkpt lat="43.42125" lon="6.17528">
        <ele>330</ele>
        <time>2014-05-24T13:14:51Z</time>
      </trkpt>
      <trkpt lat="43.42111" lon="6.17525">
        <ele>329.89367675781</ele>
        <time>2014-05-24T13:14:57Z</time>
      </trkpt>
      <trkpt lat="43.42104" lon="6.17524">
        <ele>329.3405456543</ele>
        <time>2014-05-24T13:15:00Z</time>
      </trkpt>
      <trkpt lat="43.42085" lon="6.17524">
        <ele>327.93978881836</ele>
        <time>2014-05-24T13:15:06Z</time>
      </trkpt>
      <trkpt lat="43.42071" lon="6.17524">
        <ele>326.50045776367</ele>
        <time>2014-05-24T13:15:09Z</time>
      </trkpt>
      <trkpt lat="43.42065" lon="6.17524">
        <ele>325.92025756836</ele>
        <time>2014-05-24T13:15:10Z</time>
      </trkpt>
      <trkpt lat="43.42047" lon="6.17524">
        <ele>324.25842285156</ele>
        <time>2014-05-24T13:15:13Z</time>
      </trkpt>
      <trkpt lat="43.42041" lon="6.17524">
        <ele>323.83270263672</ele>
        <time>2014-05-24T13:15:14Z</time>
      </trkpt>
      <trkpt lat="43.42035" lon="6.17525">
        <ele>323.42587280273</ele>
        <time>2014-05-24T13:15:15Z</time>
      </trkpt>
      <trkpt lat="43.42026" lon="6.17524">
        <ele>322.75469970703</ele>
        <time>2014-05-24T13:15:17Z</time>
      </trkpt>
      <trkpt lat="43.42022" lon="6.17524">
        <ele>322.44741821289</ele>
        <time>2014-05-24T13:15:18Z</time>
      </trkpt>
      <trkpt lat="43.42018" lon="6.17524">
        <ele>322.16418457031</ele>
        <time>2014-05-24T13:15:19Z</time>
      </trkpt>
      <trkpt lat="43.42015" lon="6.17524">
        <ele>321.97705078125</ele>
        <time>2014-05-24T13:15:20Z</time>
      </trkpt>
      <trkpt lat="43.42005" lon="6.17526">
        <ele>321.31787109375</ele>
        <time>2014-05-24T13:15:22Z</time>
      </trkpt>
      <trkpt lat="43.41999" lon="6.17528">
        <ele>320.71658325195</ele>
        <time>2014-05-24T13:15:23Z</time>
      </trkpt>
      <trkpt lat="43.41992" lon="6.17529">
        <ele>319.39135742188</ele>
        <time>2014-05-24T13:15:24Z</time>
      </trkpt>
      <trkpt lat="43.41986" lon="6.17531">
        <ele>318.14837646484</ele>
        <time>2014-05-24T13:15:25Z</time>
      </trkpt>
      <trkpt lat="43.41975" lon="6.1753">
        <ele>315.67279052734</ele>
        <time>2014-05-24T13:15:27Z</time>
      </trkpt>
      <trkpt lat="43.41968" lon="6.1753">
        <ele>314.41159057617</ele>
        <time>2014-05-24T13:15:28Z</time>
      </trkpt>
      <trkpt lat="43.41961" lon="6.1753">
        <ele>313.21682739258</ele>
        <time>2014-05-24T13:15:29Z</time>
      </trkpt>
      <trkpt lat="43.41955" lon="6.17532">
        <ele>312.13537597656</ele>
        <time>2014-05-24T13:15:30Z</time>
      </trkpt>
      <trkpt lat="43.41948" lon="6.17533">
        <ele>311.09509277344</ele>
        <time>2014-05-24T13:15:31Z</time>
      </trkpt>
      <trkpt lat="43.41942" lon="6.17535">
        <ele>309.95739746094</ele>
        <time>2014-05-24T13:15:32Z</time>
      </trkpt>
      <trkpt lat="43.41935" lon="6.17536">
        <ele>308.63562011719</ele>
        <time>2014-05-24T13:15:33Z</time>
      </trkpt>
      <trkpt lat="43.41928" lon="6.17537">
        <ele>307.20050048828</ele>
        <time>2014-05-24T13:15:34Z</time>
      </trkpt>
      <trkpt lat="43.41922" lon="6.17537">
        <ele>305.74481201172</ele>
        <time>2014-05-24T13:15:35Z</time>
      </trkpt>
      <trkpt lat="43.41915" lon="6.17537">
        <ele>304.41595458984</ele>
        <time>2014-05-24T13:15:36Z</time>
      </trkpt>
      <trkpt lat="43.41909" lon="6.17536">
        <ele>303.43841552734</ele>
        <time>2014-05-24T13:15:37Z</time>
      </trkpt>
      <trkpt lat="43.41904" lon="6.17536">
        <ele>302.56988525391</ele>
        <time>2014-05-24T13:15:38Z</time>
      </trkpt>
      <trkpt lat="43.41896" lon="6.17534">
        <ele>301.26321411133</ele>
        <time>2014-05-24T13:15:40Z</time>
      </trkpt>
      <trkpt lat="43.41894" lon="6.17534">
        <ele>300.96673583984</ele>
        <time>2014-05-24T13:15:41Z</time>
      </trkpt>
      <trkpt lat="43.41893" lon="6.17534">
        <ele>300.79461669922</ele>
        <time>2014-05-24T13:15:42Z</time>
      </trkpt>
      <trkpt lat="43.41893" lon="6.17534">
        <ele>300.86053466797</ele>
        <time>2014-05-24T13:15:43Z</time>
      </trkpt>
      <trkpt lat="43.41893" lon="6.17534">
        <ele>300.86053466797</ele>
        <time>2014-05-24T13:16:04Z</time>
      </trkpt>
      <trkpt lat="43.41893" lon="6.17534">
        <ele>300.89874267578</ele>
        <time>2014-05-24T13:17:03Z</time>
      </trkpt>
      <trkpt lat="43.41893" lon="6.17534">
        <ele>300.89874267578</ele>
        <time>2014-05-24T13:17:22Z</time>
      </trkpt>
      <trkpt lat="43.41893" lon="6.17534">
        <ele>300.89874267578</ele>
        <time>2014-05-24T13:17:42Z</time>
      </trkpt>
      <trkpt lat="43.41895" lon="6.17533">
        <ele>301.05383300781</ele>
        <time>2014-05-24T13:17:48Z</time>
      </trkpt>
      <trkpt lat="43.41895" lon="6.17533">
        <ele>301.05383300781</ele>
        <time>2014-05-24T13:18:08Z</time>
      </trkpt>
      <trkpt lat="43.41895" lon="6.17533">
        <ele>301.05383300781</ele>
        <time>2014-05-24T13:18:18Z</time>
      </trkpt>
      <trkpt lat="43.41895" lon="6.17534">
        <ele>301.06210327148</ele>
        <time>2014-05-24T13:18:27Z</time>
      </trkpt>
      <trkpt lat="43.41893" lon="6.17533">
        <ele>300.85885620117</ele>
        <time>2014-05-24T13:18:30Z</time>
      </trkpt>
      <trkpt lat="43.41881" lon="6.17532">
        <ele>299.5871887207</ele>
        <time>2014-05-24T13:18:34Z</time>
      </trkpt>
      <trkpt lat="43.41876" lon="6.17533">
        <ele>299.24557495117</ele>
        <time>2014-05-24T13:18:35Z</time>
      </trkpt>
      <trkpt lat="43.41866" lon="6.17536">
        <ele>298.60012817383</ele>
        <time>2014-05-24T13:18:37Z</time>
      </trkpt>
      <trkpt lat="43.41861" lon="6.17537">
        <ele>298.2516784668</ele>
        <time>2014-05-24T13:18:38Z</time>
      </trkpt>
      <trkpt lat="43.41855" lon="6.17537">
        <ele>297.37078857422</ele>
        <time>2014-05-24T13:18:39Z</time>
      </trkpt>
      <trkpt lat="43.41849" lon="6.17537">
        <ele>296.40258789062</ele>
        <time>2014-05-24T13:18:40Z</time>
      </trkpt>
      <trkpt lat="43.41843" lon="6.17536">
        <ele>295.43731689453</ele>
        <time>2014-05-24T13:18:41Z</time>
      </trkpt>
      <trkpt lat="43.41836" lon="6.17534">
        <ele>294.42929077148</ele>
        <time>2014-05-24T13:18:42Z</time>
      </trkpt>
      <trkpt lat="43.41824" lon="6.17529">
        <ele>292.705078125</ele>
        <time>2014-05-24T13:18:44Z</time>
      </trkpt>
      <trkpt lat="43.4182" lon="6.17527">
        <ele>292.0458984375</ele>
        <time>2014-05-24T13:18:45Z</time>
      </trkpt>
      <trkpt lat="43.41815" lon="6.17515">
        <ele>291.38671875</ele>
        <time>2014-05-24T13:18:47Z</time>
      </trkpt>
      <trkpt lat="43.41817" lon="6.17486">
        <ele>291.45846557617</ele>
        <time>2014-05-24T13:18:51Z</time>
      </trkpt>
      <trkpt lat="43.41819" lon="6.17455">
        <ele>290.79791259766</ele>
        <time>2014-05-24T13:18:55Z</time>
      </trkpt>
      <trkpt lat="43.4182" lon="6.17437">
        <ele>290.27432250977</ele>
        <time>2014-05-24T13:18:57Z</time>
      </trkpt>
      <trkpt lat="43.41821" lon="6.17419">
        <ele>289.72674560547</ele>
        <time>2014-05-24T13:18:59Z</time>
      </trkpt>
      <trkpt lat="43.41817" lon="6.17396">
        <ele>288.45816040039</ele>
        <time>2014-05-24T13:19:02Z</time>
      </trkpt>
      <trkpt lat="43.41815" lon="6.17388">
        <ele>287.99884033203</ele>
        <time>2014-05-24T13:19:03Z</time>
      </trkpt>
      <trkpt lat="43.41814" lon="6.1738">
        <ele>287.91644287109</ele>
        <time>2014-05-24T13:19:04Z</time>
      </trkpt>
      <trkpt lat="43.41811" lon="6.17351">
        <ele>287.62805175781</ele>
        <time>2014-05-24T13:19:08Z</time>
      </trkpt>
      <trkpt lat="43.41809" lon="6.17336">
        <ele>287.33966064453</ele>
        <time>2014-05-24T13:19:10Z</time>
      </trkpt>
      <trkpt lat="43.41809" lon="6.17302">
        <ele>287.15982055664</ele>
        <time>2014-05-24T13:19:14Z</time>
      </trkpt>
      <trkpt lat="43.41808" lon="6.17286">
        <ele>286.44744873047</ele>
        <time>2014-05-24T13:19:16Z</time>
      </trkpt>
      <trkpt lat="43.41805" lon="6.17264">
        <ele>285.92767333984</ele>
        <time>2014-05-24T13:19:19Z</time>
      </trkpt>
      <trkpt lat="43.41804" lon="6.17246">
        <ele>285.84527587891</ele>
        <time>2014-05-24T13:19:21Z</time>
      </trkpt>
      <trkpt lat="43.41803" lon="6.17228">
        <ele>285.7216796875</ele>
        <time>2014-05-24T13:19:23Z</time>
      </trkpt>
      <trkpt lat="43.41801" lon="6.17208">
        <ele>285.51568603516</ele>
        <time>2014-05-24T13:19:25Z</time>
      </trkpt>
      <trkpt lat="43.418" lon="6.17187">
        <ele>285.17633056641</ele>
        <time>2014-05-24T13:19:27Z</time>
      </trkpt>
      <trkpt lat="43.41799" lon="6.17176">
        <ele>284.81060791016</ele>
        <time>2014-05-24T13:19:28Z</time>
      </trkpt>
      <trkpt lat="43.41798" lon="6.17166">
        <ele>284.41262817383</ele>
        <time>2014-05-24T13:19:29Z</time>
      </trkpt>
      <trkpt lat="43.41795" lon="6.17156">
        <ele>284.01635742188</ele>
        <time>2014-05-24T13:19:30Z</time>
      </trkpt>
      <trkpt lat="43.41793" lon="6.17145">
        <ele>283.67904663086</ele>
        <time>2014-05-24T13:19:31Z</time>
      </trkpt>
      <trkpt lat="43.4179" lon="6.17125">
        <ele>283.44030761719</ele>
        <time>2014-05-24T13:19:33Z</time>
      </trkpt>
      <trkpt lat="43.41791" lon="6.17105">
        <ele>283.4677734375</ele>
        <time>2014-05-24T13:19:35Z</time>
      </trkpt>
      <trkpt lat="43.41792" lon="6.17095">
        <ele>283.49523925781</ele>
        <time>2014-05-24T13:19:36Z</time>
      </trkpt>
      <trkpt lat="43.41791" lon="6.17085">
        <ele>283.4677734375</ele>
        <time>2014-05-24T13:19:37Z</time>
      </trkpt>
      <trkpt lat="43.4179" lon="6.17075">
        <ele>283.29956054688</ele>
        <time>2014-05-24T13:19:38Z</time>
      </trkpt>
      <trkpt lat="43.41789" lon="6.17065">
        <ele>283.13708496094</ele>
        <time>2014-05-24T13:19:39Z</time>
      </trkpt>
      <trkpt lat="43.41792" lon="6.17024">
        <ele>282.65621948242</ele>
        <time>2014-05-24T13:19:43Z</time>
      </trkpt>
      <trkpt lat="43.41796" lon="6.16986">
        <ele>279.99234008789</ele>
        <time>2014-05-24T13:19:47Z</time>
      </trkpt>
      <trkpt lat="43.41796" lon="6.16959">
        <ele>279.19259643555</ele>
        <time>2014-05-24T13:19:50Z</time>
      </trkpt>
      <trkpt lat="43.41794" lon="6.16941">
        <ele>278.45959472656</ele>
        <time>2014-05-24T13:19:52Z</time>
      </trkpt>
      <trkpt lat="43.41795" lon="6.16922">
        <ele>277.79183959961</ele>
        <time>2014-05-24T13:19:54Z</time>
      </trkpt>
      <trkpt lat="43.41795" lon="6.16912">
        <ele>277.46398925781</ele>
        <time>2014-05-24T13:19:55Z</time>
      </trkpt>
      <trkpt lat="43.41796" lon="6.16894">
        <ele>276.83053588867</ele>
        <time>2014-05-24T13:19:57Z</time>
      </trkpt>
      <trkpt lat="43.41796" lon="6.16877">
        <ele>276.22973632812</ele>
        <time>2014-05-24T13:19:59Z</time>
      </trkpt>
      <trkpt lat="43.41796" lon="6.16854">
        <ele>275.39202880859</ele>
        <time>2014-05-24T13:20:02Z</time>
      </trkpt>
      <trkpt lat="43.41794" lon="6.16829">
        <ele>274.57763671875</ele>
        <time>2014-05-24T13:20:05Z</time>
      </trkpt>
      <trkpt lat="43.41794" lon="6.16812">
        <ele>274.57763671875</ele>
        <time>2014-05-24T13:20:07Z</time>
      </trkpt>
      <trkpt lat="43.4179" lon="6.16752">
        <ele>272.95620727539</ele>
        <time>2014-05-24T13:20:13Z</time>
      </trkpt>
      <trkpt lat="43.41792" lon="6.16734">
        <ele>272.43609619141</ele>
        <time>2014-05-24T13:20:15Z</time>
      </trkpt>
      <trkpt lat="43.41792" lon="6.16725">
        <ele>272.14254760742</ele>
        <time>2014-05-24T13:20:16Z</time>
      </trkpt>
      <trkpt lat="43.41792" lon="6.16707">
        <ele>271.47991943359</ele>
        <time>2014-05-24T13:20:18Z</time>
      </trkpt>
      <trkpt lat="43.41789" lon="6.16631">
        <ele>269.13854980469</ele>
        <time>2014-05-24T13:20:26Z</time>
      </trkpt>
      <trkpt lat="43.41788" lon="6.16603">
        <ele>268.07595825195</ele>
        <time>2014-05-24T13:20:29Z</time>
      </trkpt>
      <trkpt lat="43.41787" lon="6.16594">
        <ele>267.71719360352</ele>
        <time>2014-05-24T13:20:30Z</time>
      </trkpt>
      <trkpt lat="43.41785" lon="6.16586">
        <ele>267.35668945312</ele>
        <time>2014-05-24T13:20:31Z</time>
      </trkpt>
      <trkpt lat="43.41783" lon="6.16578">
        <ele>266.97732543945</ele>
        <time>2014-05-24T13:20:32Z</time>
      </trkpt>
      <trkpt lat="43.41781" lon="6.1657">
        <ele>266.61511230469</ele>
        <time>2014-05-24T13:20:33Z</time>
      </trkpt>
      <trkpt lat="43.41779" lon="6.16544">
        <ele>265.62292480469</ele>
        <time>2014-05-24T13:20:36Z</time>
      </trkpt>
      <trkpt lat="43.41779" lon="6.16535">
        <ele>265.30706787109</ele>
        <time>2014-05-24T13:20:37Z</time>
      </trkpt>
      <trkpt lat="43.4178" lon="6.16527">
        <ele>265.06951904297</ele>
        <time>2014-05-24T13:20:38Z</time>
      </trkpt>
      <trkpt lat="43.4178" lon="6.16521">
        <ele>265.09698486328</ele>
        <time>2014-05-24T13:20:39Z</time>
      </trkpt>
      <trkpt lat="43.41781" lon="6.16509">
        <ele>265.11071777344</ele>
        <time>2014-05-24T13:20:41Z</time>
      </trkpt>
      <trkpt lat="43.41785" lon="6.16495">
        <ele>265.20059204102</ele>
        <time>2014-05-24T13:20:44Z</time>
      </trkpt>
      <trkpt lat="43.41786" lon="6.16491">
        <ele>265.24450683594</ele>
        <time>2014-05-24T13:20:45Z</time>
      </trkpt>
      <trkpt lat="43.41786" lon="6.16486">
        <ele>265.22109985352</ele>
        <time>2014-05-24T13:20:46Z</time>
      </trkpt>
      <trkpt lat="43.41783" lon="6.16473">
        <ele>264.78506469727</ele>
        <time>2014-05-24T13:20:49Z</time>
      </trkpt>
      <trkpt lat="43.41778" lon="6.16467">
        <ele>263.81057739258</ele>
        <time>2014-05-24T13:20:52Z</time>
      </trkpt>
      <trkpt lat="43.41773" lon="6.16461">
        <ele>263.91668701172</ele>
        <time>2014-05-24T13:20:55Z</time>
      </trkpt>
      <trkpt lat="43.41771" lon="6.16456">
        <ele>263.91152954102</ele>
        <time>2014-05-24T13:20:57Z</time>
      </trkpt>
      <trkpt lat="43.4177" lon="6.16454">
        <ele>263.90466308594</ele>
        <time>2014-05-24T13:20:58Z</time>
      </trkpt>
      <trkpt lat="43.4177" lon="6.16452">
        <ele>263.80682373047</ele>
        <time>2014-05-24T13:21:00Z</time>
      </trkpt>
      <trkpt lat="43.4177" lon="6.16448">
        <ele>263.66607666016</ele>
        <time>2014-05-24T13:21:02Z</time>
      </trkpt>
      <trkpt lat="43.41769" lon="6.16441">
        <ele>263.52014160156</ele>
        <time>2014-05-24T13:21:05Z</time>
      </trkpt>
      <trkpt lat="43.41769" lon="6.16437">
        <ele>263.35879516602</ele>
        <time>2014-05-24T13:21:07Z</time>
      </trkpt>
      <trkpt lat="43.4177" lon="6.16433">
        <ele>263.13562011719</ele>
        <time>2014-05-24T13:21:09Z</time>
      </trkpt>
      <trkpt lat="43.41771" lon="6.16425">
        <ele>262.81118774414</ele>
        <time>2014-05-24T13:21:13Z</time>
      </trkpt>
      <trkpt lat="43.41769" lon="6.16421">
        <ele>262.81289672852</ele>
        <time>2014-05-24T13:21:15Z</time>
      </trkpt>
      <trkpt lat="43.41766" lon="6.16413">
        <ele>262.73736572266</ele>
        <time>2014-05-24T13:21:18Z</time>
      </trkpt>
      <trkpt lat="43.41766" lon="6.16407">
        <ele>262.52279663086</ele>
        <time>2014-05-24T13:21:20Z</time>
      </trkpt>
      <trkpt lat="43.4177" lon="6.16379">
        <ele>261.30212402344</ele>
        <time>2014-05-24T13:21:29Z</time>
      </trkpt>
      <trkpt lat="43.41771" lon="6.16375">
        <ele>261.16079711914</ele>
        <time>2014-05-24T13:21:30Z</time>
      </trkpt>
      <trkpt lat="43.41776" lon="6.16354">
        <ele>260.22317504883</ele>
        <time>2014-05-24T13:21:35Z</time>
      </trkpt>
      <trkpt lat="43.41776" lon="6.16349">
        <ele>260.20861816406</ele>
        <time>2014-05-24T13:21:36Z</time>
      </trkpt>
      <trkpt lat="43.41776" lon="6.16343">
        <ele>260.19250488281</ele>
        <time>2014-05-24T13:21:37Z</time>
      </trkpt>
      <trkpt lat="43.41776" lon="6.16337">
        <ele>260.11569213867</ele>
        <time>2014-05-24T13:21:38Z</time>
      </trkpt>
      <trkpt lat="43.41778" lon="6.1633">
        <ele>260.00149536133</ele>
        <time>2014-05-24T13:21:39Z</time>
      </trkpt>
      <trkpt lat="43.4178" lon="6.16323">
        <ele>260.08871459961</ele>
        <time>2014-05-24T13:21:40Z</time>
      </trkpt>
      <trkpt lat="43.41781" lon="6.16316">
        <ele>260.08352661133</ele>
        <time>2014-05-24T13:21:41Z</time>
      </trkpt>
      <trkpt lat="43.41782" lon="6.16307">
        <ele>260.01837158203</ele>
        <time>2014-05-24T13:21:42Z</time>
      </trkpt>
      <trkpt lat="43.41783" lon="6.16292">
        <ele>260</ele>
        <time>2014-05-24T13:21:44Z</time>
      </trkpt>
      <trkpt lat="43.41785" lon="6.16278">
        <ele>260</ele>
        <time>2014-05-24T13:21:46Z</time>
      </trkpt>
      <trkpt lat="43.41785" lon="6.16271">
        <ele>260</ele>
        <time>2014-05-24T13:21:47Z</time>
      </trkpt>
      <trkpt lat="43.41785" lon="6.16266">
        <ele>260</ele>
        <time>2014-05-24T13:21:48Z</time>
      </trkpt>
      <trkpt lat="43.41786" lon="6.16263">
        <ele>260</ele>
        <time>2014-05-24T13:21:49Z</time>
      </trkpt>
      <trkpt lat="43.41791" lon="6.16257">
        <ele>260</ele>
        <time>2014-05-24T13:21:51Z</time>
      </trkpt>
      <trkpt lat="43.41797" lon="6.16251">
        <ele>260</ele>
        <time>2014-05-24T13:21:53Z</time>
      </trkpt>
      <trkpt lat="43.418" lon="6.16243">
        <ele>260</ele>
        <time>2014-05-24T13:21:55Z</time>
      </trkpt>
      <trkpt lat="43.418" lon="6.16237">
        <ele>260</ele>
        <time>2014-05-24T13:21:56Z</time>
      </trkpt>
      <trkpt lat="43.41801" lon="6.16231">
        <ele>260</ele>
        <time>2014-05-24T13:21:57Z</time>
      </trkpt>
      <trkpt lat="43.41803" lon="6.16219">
        <ele>260</ele>
        <time>2014-05-24T13:21:59Z</time>
      </trkpt>
      <trkpt lat="43.41803" lon="6.16213">
        <ele>260</ele>
        <time>2014-05-24T13:22:00Z</time>
      </trkpt>
      <trkpt lat="43.41803" lon="6.16206">
        <ele>260</ele>
        <time>2014-05-24T13:22:01Z</time>
      </trkpt>
      <trkpt lat="43.41803" lon="6.162">
        <ele>260</ele>
        <time>2014-05-24T13:22:02Z</time>
      </trkpt>
      <trkpt lat="43.41803" lon="6.16194">
        <ele>260</ele>
        <time>2014-05-24T13:22:03Z</time>
      </trkpt>
      <trkpt lat="43.418" lon="6.16175">
        <ele>260</ele>
        <time>2014-05-24T13:22:06Z</time>
      </trkpt>
      <trkpt lat="43.418" lon="6.16168">
        <ele>260</ele>
        <time>2014-05-24T13:22:07Z</time>
      </trkpt>
      <trkpt lat="43.41801" lon="6.16151">
        <ele>260</ele>
        <time>2014-05-24T13:22:10Z</time>
      </trkpt>
      <trkpt lat="43.41798" lon="6.16134">
        <ele>260</ele>
        <time>2014-05-24T13:22:13Z</time>
      </trkpt>
      <trkpt lat="43.41793" lon="6.16113">
        <ele>260</ele>
        <time>2014-05-24T13:22:16Z</time>
      </trkpt>
      <trkpt lat="43.41792" lon="6.16107">
        <ele>260</ele>
        <time>2014-05-24T13:22:17Z</time>
      </trkpt>
      <trkpt lat="43.41789" lon="6.16093">
        <ele>260</ele>
        <time>2014-05-24T13:22:20Z</time>
      </trkpt>
      <trkpt lat="43.41787" lon="6.16087">
        <ele>260</ele>
        <time>2014-05-24T13:22:22Z</time>
      </trkpt>
      <trkpt lat="43.41787" lon="6.16082">
        <ele>260</ele>
        <time>2014-05-24T13:22:24Z</time>
      </trkpt>
      <trkpt lat="43.41786" lon="6.16076">
        <ele>260</ele>
        <time>2014-05-24T13:22:27Z</time>
      </trkpt>
      <trkpt lat="43.41786" lon="6.16074">
        <ele>260</ele>
        <time>2014-05-24T13:22:28Z</time>
      </trkpt>
      <trkpt lat="43.41786" lon="6.16071">
        <ele>260</ele>
        <time>2014-05-24T13:22:29Z</time>
      </trkpt>
      <trkpt lat="43.41787" lon="6.16068">
        <ele>260</ele>
        <time>2014-05-24T13:22:30Z</time>
      </trkpt>
      <trkpt lat="43.41787" lon="6.16065">
        <ele>260</ele>
        <time>2014-05-24T13:22:31Z</time>
      </trkpt>
      <trkpt lat="43.41788" lon="6.16058">
        <ele>260</ele>
        <time>2014-05-24T13:22:33Z</time>
      </trkpt>
      <trkpt lat="43.41786" lon="6.16035">
        <ele>260.21072387695</ele>
        <time>2014-05-24T13:22:40Z</time>
      </trkpt>
      <trkpt lat="43.41786" lon="6.16012">
        <ele>260.30297851562</ele>
        <time>2014-05-24T13:22:46Z</time>
      </trkpt>
      <trkpt lat="43.41786" lon="6.15994">
        <ele>260.08612060547</ele>
        <time>2014-05-24T13:22:50Z</time>
      </trkpt>
      <trkpt lat="43.41786" lon="6.15986">
        <ele>259.77716064453</ele>
        <time>2014-05-24T13:22:52Z</time>
      </trkpt>
      <trkpt lat="43.41789" lon="6.1597">
        <ele>259.41284179688</ele>
        <time>2014-05-24T13:22:55Z</time>
      </trkpt>
      <trkpt lat="43.41789" lon="6.15966">
        <ele>259.41284179688</ele>
        <time>2014-05-24T13:22:56Z</time>
      </trkpt>
      <trkpt lat="43.41789" lon="6.15962">
        <ele>259.39910888672</ele>
        <time>2014-05-24T13:22:57Z</time>
      </trkpt>
      <trkpt lat="43.41788" lon="6.15961">
        <ele>259.35791015625</ele>
        <time>2014-05-24T13:22:58Z</time>
      </trkpt>
      <trkpt lat="43.41787" lon="6.1596">
        <ele>259.34417724609</ele>
        <time>2014-05-24T13:22:59Z</time>
      </trkpt>
      <trkpt lat="43.41786" lon="6.15957">
        <ele>259.28924560547</ele>
        <time>2014-05-24T13:23:01Z</time>
      </trkpt>
      <trkpt lat="43.41784" lon="6.15952">
        <ele>259.22058105469</ele>
        <time>2014-05-24T13:23:04Z</time>
      </trkpt>
      <trkpt lat="43.41783" lon="6.15947">
        <ele>259.19311523438</ele>
        <time>2014-05-24T13:23:06Z</time>
      </trkpt>
      <trkpt lat="43.41781" lon="6.15941">
        <ele>259.12445068359</ele>
        <time>2014-05-24T13:23:09Z</time>
      </trkpt>
      <trkpt lat="43.4178" lon="6.15939">
        <ele>259.09698486328</ele>
        <time>2014-05-24T13:23:10Z</time>
      </trkpt>
      <trkpt lat="43.41779" lon="6.15937">
        <ele>259.05578613281</ele>
        <time>2014-05-24T13:23:11Z</time>
      </trkpt>
      <trkpt lat="43.41777" lon="6.15933">
        <ele>258.97338867188</ele>
        <time>2014-05-24T13:23:13Z</time>
      </trkpt>
      <trkpt lat="43.41776" lon="6.15928">
        <ele>258.93218994141</ele>
        <time>2014-05-24T13:23:15Z</time>
      </trkpt>
      <trkpt lat="43.41776" lon="6.15926">
        <ele>258.91845703125</ele>
        <time>2014-05-24T13:23:16Z</time>
      </trkpt>
      <trkpt lat="43.41775" lon="6.15924">
        <ele>258.90472412109</ele>
        <time>2014-05-24T13:23:17Z</time>
      </trkpt>
      <trkpt lat="43.41775" lon="6.15923">
        <ele>258.89099121094</ele>
        <time>2014-05-24T13:23:18Z</time>
      </trkpt>
      <trkpt lat="43.41774" lon="6.15922">
        <ele>258.87725830078</ele>
        <time>2014-05-24T13:23:19Z</time>
      </trkpt>
      <trkpt lat="43.41774" lon="6.15922">
        <ele>258.86352539062</ele>
        <time>2014-05-24T13:23:20Z</time>
      </trkpt>
      <trkpt lat="43.41774" lon="6.15921">
        <ele>258.84979248047</ele>
        <time>2014-05-24T13:23:23Z</time>
      </trkpt>
      <trkpt lat="43.41774" lon="6.15921">
        <ele>258.84979248047</ele>
        <time>2014-05-24T13:23:33Z</time>
      </trkpt>
      <trkpt lat="43.41774" lon="6.15921">
        <ele>258.84979248047</ele>
        <time>2014-05-24T13:23:43Z</time>
      </trkpt>
      <trkpt lat="43.41774" lon="6.15921">
        <ele>258.84979248047</ele>
        <time>2014-05-24T13:23:57Z</time>
      </trkpt>
      <trkpt lat="43.41774" lon="6.15921">
        <ele>258.84979248047</ele>
        <time>2014-05-24T13:24:54Z</time>
      </trkpt>
      <trkpt lat="43.41773" lon="6.15921">
        <ele>258.83605957031</ele>
        <time>2014-05-24T13:25:03Z</time>
      </trkpt>
      <trkpt lat="43.41773" lon="6.15921">
        <ele>258.83605957031</ele>
        <time>2014-05-24T13:25:19Z</time>
      </trkpt>
      <trkpt lat="43.41773" lon="6.15921">
        <ele>258.83605957031</ele>
        <time>2014-05-24T13:25:54Z</time>
      </trkpt>
      <trkpt lat="43.41773" lon="6.15921">
        <ele>258.83605957031</ele>
        <time>2014-05-24T13:26:06Z</time>
      </trkpt>
      <trkpt lat="43.41773" lon="6.15919">
        <ele>258.82232666016</ele>
        <time>2014-05-24T13:26:09Z</time>
      </trkpt>
      <trkpt lat="43.41772" lon="6.15918">
        <ele>258.80859375</ele>
        <time>2014-05-24T13:26:10Z</time>
      </trkpt>
      <trkpt lat="43.41771" lon="6.15914">
        <ele>258.76739501953</ele>
        <time>2014-05-24T13:26:12Z</time>
      </trkpt>
      <trkpt lat="43.41769" lon="6.15899">
        <ele>258.67126464844</ele>
        <time>2014-05-24T13:26:19Z</time>
      </trkpt>
      <trkpt lat="43.41768" lon="6.15893">
        <ele>258.65753173828</ele>
        <time>2014-05-24T13:26:22Z</time>
      </trkpt>
      <trkpt lat="43.41768" lon="6.15889">
        <ele>258.65753173828</ele>
        <time>2014-05-24T13:26:25Z</time>
      </trkpt>
      <trkpt lat="43.41768" lon="6.15889">
        <ele>258.65753173828</ele>
        <time>2014-05-24T13:26:48Z</time>
      </trkpt>
      <trkpt lat="43.41768" lon="6.15889">
        <ele>258.65753173828</ele>
        <time>2014-05-24T13:26:56Z</time>
      </trkpt>
      <trkpt lat="43.41768" lon="6.15888">
        <ele>258.60748291016</ele>
        <time>2014-05-24T13:26:59Z</time>
      </trkpt>
      <trkpt lat="43.41766" lon="6.15882">
        <ele>258.32769775391</ele>
        <time>2014-05-24T13:27:03Z</time>
      </trkpt>
      <trkpt lat="43.41764" lon="6.15874">
        <ele>257.98608398438</ele>
        <time>2014-05-24T13:27:06Z</time>
      </trkpt>
      <trkpt lat="43.41761" lon="6.15853">
        <ele>257.38287353516</ele>
        <time>2014-05-24T13:27:12Z</time>
      </trkpt>
      <trkpt lat="43.41758" lon="6.15843">
        <ele>257.28674316406</ele>
        <time>2014-05-24T13:27:14Z</time>
      </trkpt>
      <trkpt lat="43.41758" lon="6.15831">
        <ele>257.22912597656</ele>
        <time>2014-05-24T13:27:16Z</time>
      </trkpt>
      <trkpt lat="43.41757" lon="6.15813">
        <ele>256.68078613281</ele>
        <time>2014-05-24T13:27:19Z</time>
      </trkpt>
      <trkpt lat="43.41756" lon="6.15806">
        <ele>256.45693969727</ele>
        <time>2014-05-24T13:27:20Z</time>
      </trkpt>
      <trkpt lat="43.41755" lon="6.158">
        <ele>256.35375976562</ele>
        <time>2014-05-24T13:27:21Z</time>
      </trkpt>
      <trkpt lat="43.41754" lon="6.15794">
        <ele>256.27136230469</ele>
        <time>2014-05-24T13:27:22Z</time>
      </trkpt>
      <trkpt lat="43.4175" lon="6.15778">
        <ele>256.02416992188</ele>
        <time>2014-05-24T13:27:25Z</time>
      </trkpt>
      <trkpt lat="43.41751" lon="6.15761">
        <ele>256.10656738281</ele>
        <time>2014-05-24T13:27:29Z</time>
      </trkpt>
      <trkpt lat="43.41751" lon="6.15758">
        <ele>256.10656738281</ele>
        <time>2014-05-24T13:27:30Z</time>
      </trkpt>
      <trkpt lat="43.41752" lon="6.15754">
        <ele>256.13403320312</ele>
        <time>2014-05-24T13:27:31Z</time>
      </trkpt>
      <trkpt lat="43.41753" lon="6.1575">
        <ele>256.18896484375</ele>
        <time>2014-05-24T13:27:32Z</time>
      </trkpt>
      <trkpt lat="43.41755" lon="6.1574">
        <ele>256.32629394531</ele>
        <time>2014-05-24T13:27:34Z</time>
      </trkpt>
      <trkpt lat="43.41754" lon="6.15724">
        <ele>256.27136230469</ele>
        <time>2014-05-24T13:27:37Z</time>
      </trkpt>
      <trkpt lat="43.41753" lon="6.15711">
        <ele>256.18896484375</ele>
        <time>2014-05-24T13:27:39Z</time>
      </trkpt>
      <trkpt lat="43.4175" lon="6.15698">
        <ele>256.02416992188</ele>
        <time>2014-05-24T13:27:41Z</time>
      </trkpt>
      <trkpt lat="43.4175" lon="6.15691">
        <ele>255.86047363281</ele>
        <time>2014-05-24T13:27:42Z</time>
      </trkpt>
      <trkpt lat="43.41749" lon="6.15684">
        <ele>255.53260803223</ele>
        <time>2014-05-24T13:27:43Z</time>
      </trkpt>
      <trkpt lat="43.41747" lon="6.15678">
        <ele>255.18756103516</ele>
        <time>2014-05-24T13:27:44Z</time>
      </trkpt>
      <trkpt lat="43.41742" lon="6.15667">
        <ele>254.42196655273</ele>
        <time>2014-05-24T13:27:46Z</time>
      </trkpt>
      <trkpt lat="43.41739" lon="6.15661">
        <ele>254.22766113281</ele>
        <time>2014-05-24T13:27:47Z</time>
      </trkpt>
      <trkpt lat="43.41737" lon="6.15654">
        <ele>254.09033203125</ele>
        <time>2014-05-24T13:27:48Z</time>
      </trkpt>
      <trkpt lat="43.41736" lon="6.15647">
        <ele>254.00793457031</ele>
        <time>2014-05-24T13:27:49Z</time>
      </trkpt>
      <trkpt lat="43.41736" lon="6.15639">
        <ele>253.98046875</ele>
        <time>2014-05-24T13:27:50Z</time>
      </trkpt>
      <trkpt lat="43.41732" lon="6.15606">
        <ele>253.5225982666</ele>
        <time>2014-05-24T13:27:55Z</time>
      </trkpt>
      <trkpt lat="43.41735" lon="6.15585">
        <ele>252.96641540527</ele>
        <time>2014-05-24T13:27:58Z</time>
      </trkpt>
      <trkpt lat="43.41729" lon="6.15569">
        <ele>252.45861816406</ele>
        <time>2014-05-24T13:28:01Z</time>
      </trkpt>
      <trkpt lat="43.41717" lon="6.15549">
        <ele>251.29328918457</ele>
        <time>2014-05-24T13:28:04Z</time>
      </trkpt>
      <trkpt lat="43.41714" lon="6.15544">
        <ele>250.71025085449</ele>
        <time>2014-05-24T13:28:05Z</time>
      </trkpt>
      <trkpt lat="43.4171" lon="6.15541">
        <ele>250.08403015137</ele>
        <time>2014-05-24T13:28:06Z</time>
      </trkpt>
      <trkpt lat="43.41705" lon="6.1554">
        <ele>249.51658630371</ele>
        <time>2014-05-24T13:28:07Z</time>
      </trkpt>
      <trkpt lat="43.417" lon="6.15541">
        <ele>249.04920959473</ele>
        <time>2014-05-24T13:28:08Z</time>
      </trkpt>
      <trkpt lat="43.41697" lon="6.15541">
        <ele>248.61782836914</ele>
        <time>2014-05-24T13:28:09Z</time>
      </trkpt>
      <trkpt lat="43.41693" lon="6.15539">
        <ele>248.28181457519</ele>
        <time>2014-05-24T13:28:10Z</time>
      </trkpt>
      <trkpt lat="43.4169" lon="6.15538">
        <ele>248.1481628418</ele>
        <time>2014-05-24T13:28:11Z</time>
      </trkpt>
      <trkpt lat="43.41687" lon="6.15536">
        <ele>248.02590942383</ele>
        <time>2014-05-24T13:28:12Z</time>
      </trkpt>
      <trkpt lat="43.41684" lon="6.15536">
        <ele>248.00411987305</ele>
        <time>2014-05-24T13:28:15Z</time>
      </trkpt>
      <trkpt lat="43.41684" lon="6.15536">
        <ele>248.00411987305</ele>
        <time>2014-05-24T13:28:34Z</time>
      </trkpt>
      <trkpt lat="43.41684" lon="6.15536">
        <ele>247.9676361084</ele>
        <time>2014-05-24T13:29:02Z</time>
      </trkpt>
      <trkpt lat="43.41684" lon="6.15536">
        <ele>247.9676361084</ele>
        <time>2014-05-24T13:29:09Z</time>
      </trkpt>
      <trkpt lat="43.41684" lon="6.15535">
        <ele>247.93664550781</ele>
        <time>2014-05-24T13:29:13Z</time>
      </trkpt>
      <trkpt lat="43.41682" lon="6.15534">
        <ele>247.83018493652</ele>
        <time>2014-05-24T13:29:14Z</time>
      </trkpt>
      <trkpt lat="43.41676" lon="6.15523">
        <ele>246.62701416016</ele>
        <time>2014-05-24T13:29:18Z</time>
      </trkpt>
      <trkpt lat="43.41675" lon="6.15496">
        <ele>244.30592346191</ele>
        <time>2014-05-24T13:29:22Z</time>
      </trkpt>
      <trkpt lat="43.41674" lon="6.15491">
        <ele>243.86647033691</ele>
        <time>2014-05-24T13:29:23Z</time>
      </trkpt>
      <trkpt lat="43.41673" lon="6.15486">
        <ele>243.43045043945</ele>
        <time>2014-05-24T13:29:24Z</time>
      </trkpt>
      <trkpt lat="43.41671" lon="6.15481">
        <ele>242.95323181152</ele>
        <time>2014-05-24T13:29:25Z</time>
      </trkpt>
      <trkpt lat="43.41667" lon="6.15466">
        <ele>241.58435058594</ele>
        <time>2014-05-24T13:29:28Z</time>
      </trkpt>
      <trkpt lat="43.41663" lon="6.15454">
        <ele>241.0069732666</ele>
        <time>2014-05-24T13:29:30Z</time>
      </trkpt>
      <trkpt lat="43.41654" lon="6.15429">
        <ele>240.38668823242</ele>
        <time>2014-05-24T13:29:34Z</time>
      </trkpt>
      <trkpt lat="43.4165" lon="6.15424">
        <ele>240.30339050293</ele>
        <time>2014-05-24T13:29:35Z</time>
      </trkpt>
      <trkpt lat="43.41645" lon="6.15419">
        <ele>240.10778808594</ele>
        <time>2014-05-24T13:29:36Z</time>
      </trkpt>
      <trkpt lat="43.41638" lon="6.15409">
        <ele>240.09616088867</ele>
        <time>2014-05-24T13:29:38Z</time>
      </trkpt>
      <trkpt lat="43.41636" lon="6.15404">
        <ele>240.2511138916</ele>
        <time>2014-05-24T13:29:39Z</time>
      </trkpt>
      <trkpt lat="43.4163" lon="6.15395">
        <ele>240.46875</ele>
        <time>2014-05-24T13:29:41Z</time>
      </trkpt>
      <trkpt lat="43.41627" lon="6.15392">
        <ele>240.54190063477</ele>
        <time>2014-05-24T13:29:42Z</time>
      </trkpt>
      <trkpt lat="43.41622" lon="6.15388">
        <ele>240.58316040039</ele>
        <time>2014-05-24T13:29:44Z</time>
      </trkpt>
      <trkpt lat="43.41619" lon="6.15386">
        <ele>240.62844848633</ele>
        <time>2014-05-24T13:29:45Z</time>
      </trkpt>
      <trkpt lat="43.41615" lon="6.15379">
        <ele>240.55262756348</ele>
        <time>2014-05-24T13:29:47Z</time>
      </trkpt>
      <trkpt lat="43.41605" lon="6.15369">
        <ele>242.02812194824</ele>
        <time>2014-05-24T13:29:50Z</time>
      </trkpt>
      <trkpt lat="43.41602" lon="6.15365">
        <ele>242.54707336426</ele>
        <time>2014-05-24T13:29:51Z</time>
      </trkpt>
      <trkpt lat="43.41599" lon="6.15357">
        <ele>242.91731262207</ele>
        <time>2014-05-24T13:29:53Z</time>
      </trkpt>
      <trkpt lat="43.41598" lon="6.15347">
        <ele>243.03005981445</ele>
        <time>2014-05-24T13:29:55Z</time>
      </trkpt>
      <trkpt lat="43.41599" lon="6.15341">
        <ele>242.83979797363</ele>
        <time>2014-05-24T13:29:56Z</time>
      </trkpt>
      <trkpt lat="43.41599" lon="6.15334">
        <ele>242.56251525879</ele>
        <time>2014-05-24T13:29:57Z</time>
      </trkpt>
      <trkpt lat="43.416" lon="6.1532">
        <ele>241.92997741699</ele>
        <time>2014-05-24T13:29:59Z</time>
      </trkpt>
      <trkpt lat="43.416" lon="6.15303">
        <ele>241.58203125</ele>
        <time>2014-05-24T13:30:01Z</time>
      </trkpt>
      <trkpt lat="43.41597" lon="6.15288">
        <ele>241.34599304199</ele>
        <time>2014-05-24T13:30:03Z</time>
      </trkpt>
      <trkpt lat="43.41597" lon="6.1528">
        <ele>241.11447143555</ele>
        <time>2014-05-24T13:30:04Z</time>
      </trkpt>
      <trkpt lat="43.41597" lon="6.15273">
        <ele>240.82814025879</ele>
        <time>2014-05-24T13:30:05Z</time>
      </trkpt>
      <trkpt lat="43.41597" lon="6.15265">
        <ele>240.57615661621</ele>
        <time>2014-05-24T13:30:06Z</time>
      </trkpt>
      <trkpt lat="43.41596" lon="6.15258">
        <ele>240.32901000977</ele>
        <time>2014-05-24T13:30:07Z</time>
      </trkpt>
      <trkpt lat="43.41595" lon="6.15251">
        <ele>240.06353759766</ele>
        <time>2014-05-24T13:30:08Z</time>
      </trkpt>
      <trkpt lat="43.41589" lon="6.15211">
        <ele>240</ele>
        <time>2014-05-24T13:30:14Z</time>
      </trkpt>
      <trkpt lat="43.41588" lon="6.15198">
        <ele>240</ele>
        <time>2014-05-24T13:30:16Z</time>
      </trkpt>
      <trkpt lat="43.41589" lon="6.15191">
        <ele>240</ele>
        <time>2014-05-24T13:30:17Z</time>
      </trkpt>
      <trkpt lat="43.41591" lon="6.15186">
        <ele>240</ele>
        <time>2014-05-24T13:30:18Z</time>
      </trkpt>
      <trkpt lat="43.41594" lon="6.15181">
        <ele>240</ele>
        <time>2014-05-24T13:30:19Z</time>
      </trkpt>
      <trkpt lat="43.41599" lon="6.15171">
        <ele>240</ele>
        <time>2014-05-24T13:30:21Z</time>
      </trkpt>
      <trkpt lat="43.41603" lon="6.15159">
        <ele>240</ele>
        <time>2014-05-24T13:30:23Z</time>
      </trkpt>
      <trkpt lat="43.41605" lon="6.15132">
        <ele>240</ele>
        <time>2014-05-24T13:30:27Z</time>
      </trkpt>
      <trkpt lat="43.41605" lon="6.15118">
        <ele>240</ele>
        <time>2014-05-24T13:30:29Z</time>
      </trkpt>
      <trkpt lat="43.41603" lon="6.15111">
        <ele>240</ele>
        <time>2014-05-24T13:30:30Z</time>
      </trkpt>
      <trkpt lat="43.41599" lon="6.15098">
        <ele>240</ele>
        <time>2014-05-24T13:30:32Z</time>
      </trkpt>
      <trkpt lat="43.41596" lon="6.1507">
        <ele>240</ele>
        <time>2014-05-24T13:30:36Z</time>
      </trkpt>
      <trkpt lat="43.4159" lon="6.15058">
        <ele>240</ele>
        <time>2014-05-24T13:30:39Z</time>
      </trkpt>
      <trkpt lat="43.41581" lon="6.15048">
        <ele>240</ele>
        <time>2014-05-24T13:30:42Z</time>
      </trkpt>
      <trkpt lat="43.41559" lon="6.15028">
        <ele>240</ele>
        <time>2014-05-24T13:30:48Z</time>
      </trkpt>
      <trkpt lat="43.41555" lon="6.15024">
        <ele>240.13415527344</ele>
        <time>2014-05-24T13:30:49Z</time>
      </trkpt>
      <trkpt lat="43.41546" lon="6.15014">
        <ele>242.34515380859</ele>
        <time>2014-05-24T13:30:52Z</time>
      </trkpt>
      <trkpt lat="43.41542" lon="6.15006">
        <ele>243.49871826172</ele>
        <time>2014-05-24T13:30:55Z</time>
      </trkpt>
      <trkpt lat="43.41542" lon="6.14999">
        <ele>243.49871826172</ele>
        <time>2014-05-24T13:30:57Z</time>
      </trkpt>
      <trkpt lat="43.41541" lon="6.14991">
        <ele>243.59484863281</ele>
        <time>2014-05-24T13:30:59Z</time>
      </trkpt>
      <trkpt lat="43.41541" lon="6.14986">
        <ele>243.787109375</ele>
        <time>2014-05-24T13:31:00Z</time>
      </trkpt>
      <trkpt lat="43.41539" lon="6.14979">
        <ele>244.26776123047</ele>
        <time>2014-05-24T13:31:02Z</time>
      </trkpt>
      <trkpt lat="43.41534" lon="6.14971">
        <ele>245.46820068359</ele>
        <time>2014-05-24T13:31:06Z</time>
      </trkpt>
      <trkpt lat="43.41533" lon="6.14968">
        <ele>245.7364654541</ele>
        <time>2014-05-24T13:31:08Z</time>
      </trkpt>
      <trkpt lat="43.41533" lon="6.14966">
        <ele>245.99415588379</ele>
        <time>2014-05-24T13:31:09Z</time>
      </trkpt>
      <trkpt lat="43.41531" lon="6.1496">
        <ele>246.56420898438</ele>
        <time>2014-05-24T13:31:11Z</time>
      </trkpt>
      <trkpt lat="43.41531" lon="6.14939">
        <ele>247.01234436035</ele>
        <time>2014-05-24T13:31:16Z</time>
      </trkpt>
      <trkpt lat="43.41531" lon="6.14922">
        <ele>246.45118713379</ele>
        <time>2014-05-24T13:31:20Z</time>
      </trkpt>
      <trkpt lat="43.41531" lon="6.14918">
        <ele>246.34327697754</ele>
        <time>2014-05-24T13:31:21Z</time>
      </trkpt>
      <trkpt lat="43.4153" lon="6.14915">
        <ele>246.42129516602</ele>
        <time>2014-05-24T13:31:22Z</time>
      </trkpt>
      <trkpt lat="43.41528" lon="6.14907">
        <ele>246.53141784668</ele>
        <time>2014-05-24T13:31:24Z</time>
      </trkpt>
      <trkpt lat="43.41527" lon="6.14901">
        <ele>246.80397033691</ele>
        <time>2014-05-24T13:31:26Z</time>
      </trkpt>
      <trkpt lat="43.41527" lon="6.14897">
        <ele>246.68310546875</ele>
        <time>2014-05-24T13:31:27Z</time>
      </trkpt>
      <trkpt lat="43.41526" lon="6.14879">
        <ele>246.54046630859</ele>
        <time>2014-05-24T13:31:34Z</time>
      </trkpt>
      <trkpt lat="43.41526" lon="6.14875">
        <ele>246.69152832031</ele>
        <time>2014-05-24T13:31:35Z</time>
      </trkpt>
      <trkpt lat="43.41526" lon="6.14869">
        <ele>246.69152832031</ele>
        <time>2014-05-24T13:31:37Z</time>
      </trkpt>
      <trkpt lat="43.41526" lon="6.14853">
        <ele>246.83442687988</ele>
        <time>2014-05-24T13:31:43Z</time>
      </trkpt>
      <trkpt lat="43.41526" lon="6.14845">
        <ele>247.10537719727</ele>
        <time>2014-05-24T13:31:46Z</time>
      </trkpt>
      <trkpt lat="43.4153" lon="6.14836">
        <ele>246.28175354004</ele>
        <time>2014-05-24T13:31:49Z</time>
      </trkpt>
      <trkpt lat="43.41532" lon="6.14834">
        <ele>245.97831726074</ele>
        <time>2014-05-24T13:31:50Z</time>
      </trkpt>
      <trkpt lat="43.41533" lon="6.14829">
        <ele>245.70971679688</ele>
        <time>2014-05-24T13:31:53Z</time>
      </trkpt>
      <trkpt lat="43.41533" lon="6.14829">
        <ele>245.61358642578</ele>
        <time>2014-05-24T13:31:58Z</time>
      </trkpt>
      <trkpt lat="43.41533" lon="6.14829">
        <ele>245.61358642578</ele>
        <time>2014-05-24T13:32:14Z</time>
      </trkpt>
      <trkpt lat="43.41533" lon="6.14829">
        <ele>245.61358642578</ele>
        <time>2014-05-24T13:32:30Z</time>
      </trkpt>
      <trkpt lat="43.41533" lon="6.14829">
        <ele>245.70971679688</ele>
        <time>2014-05-24T13:32:35Z</time>
      </trkpt>
      <trkpt lat="43.41533" lon="6.14829">
        <ele>245.70971679688</ele>
        <time>2014-05-24T13:32:36Z</time>
      </trkpt>
      <trkpt lat="43.41533" lon="6.14829">
        <ele>245.70971679688</ele>
        <time>2014-05-24T13:32:50Z</time>
      </trkpt>
      <trkpt lat="43.41537" lon="6.14822">
        <ele>244.74841308594</ele>
        <time>2014-05-24T13:32:59Z</time>
      </trkpt>
      <trkpt lat="43.41546" lon="6.14805">
        <ele>242.44128417969</ele>
        <time>2014-05-24T13:33:03Z</time>
      </trkpt>
      <trkpt lat="43.41553" lon="6.14792">
        <ele>240.61480712891</ele>
        <time>2014-05-24T13:33:05Z</time>
      </trkpt>
      <trkpt lat="43.41561" lon="6.14779">
        <ele>240</ele>
        <time>2014-05-24T13:33:07Z</time>
      </trkpt>
      <trkpt lat="43.41565" lon="6.14773">
        <ele>240</ele>
        <time>2014-05-24T13:33:08Z</time>
      </trkpt>
      <trkpt lat="43.41567" lon="6.14765">
        <ele>240</ele>
        <time>2014-05-24T13:33:09Z</time>
      </trkpt>
      <trkpt lat="43.41569" lon="6.14758">
        <ele>240</ele>
        <time>2014-05-24T13:33:10Z</time>
      </trkpt>
      <trkpt lat="43.41571" lon="6.1475">
        <ele>240</ele>
        <time>2014-05-24T13:33:11Z</time>
      </trkpt>
      <trkpt lat="43.41571" lon="6.14743">
        <ele>240</ele>
        <time>2014-05-24T13:33:12Z</time>
      </trkpt>
      <trkpt lat="43.41571" lon="6.14736">
        <ele>240</ele>
        <time>2014-05-24T13:33:13Z</time>
      </trkpt>
      <trkpt lat="43.4157" lon="6.14728">
        <ele>240</ele>
        <time>2014-05-24T13:33:14Z</time>
      </trkpt>
      <trkpt lat="43.4157" lon="6.14713">
        <ele>240</ele>
        <time>2014-05-24T13:33:16Z</time>
      </trkpt>
      <trkpt lat="43.41568" lon="6.14705">
        <ele>240</ele>
        <time>2014-05-24T13:33:17Z</time>
      </trkpt>
      <trkpt lat="43.41567" lon="6.14698">
        <ele>240</ele>
        <time>2014-05-24T13:33:18Z</time>
      </trkpt>
      <trkpt lat="43.41565" lon="6.14691">
        <ele>240</ele>
        <time>2014-05-24T13:33:19Z</time>
      </trkpt>
      <trkpt lat="43.4155" lon="6.1466">
        <ele>241.4716796875</ele>
        <time>2014-05-24T13:33:24Z</time>
      </trkpt>
      <trkpt lat="43.41546" lon="6.14647">
        <ele>242.68017578125</ele>
        <time>2014-05-24T13:33:26Z</time>
      </trkpt>
      <trkpt lat="43.41542" lon="6.14633">
        <ele>243.99853515625</ele>
        <time>2014-05-24T13:33:28Z</time>
      </trkpt>
      <trkpt lat="43.41541" lon="6.14619">
        <ele>244.21826171875</ele>
        <time>2014-05-24T13:33:30Z</time>
      </trkpt>
      <trkpt lat="43.41541" lon="6.14596">
        <ele>243.65850830078</ele>
        <time>2014-05-24T13:33:33Z</time>
      </trkpt>
      <trkpt lat="43.41541" lon="6.14581">
        <ele>243.11512756348</ele>
        <time>2014-05-24T13:33:35Z</time>
      </trkpt>
      <trkpt lat="43.41542" lon="6.14573">
        <ele>242.81042480469</ele>
        <time>2014-05-24T13:33:36Z</time>
      </trkpt>
      <trkpt lat="43.41544" lon="6.14557">
        <ele>242.10563659668</ele>
        <time>2014-05-24T13:33:38Z</time>
      </trkpt>
      <trkpt lat="43.41547" lon="6.14529">
        <ele>240.98970031738</ele>
        <time>2014-05-24T13:33:42Z</time>
      </trkpt>
      <trkpt lat="43.41548" lon="6.145">
        <ele>240.52536010742</ele>
        <time>2014-05-24T13:33:46Z</time>
      </trkpt>
      <trkpt lat="43.41548" lon="6.14492">
        <ele>240.3790435791</ele>
        <time>2014-05-24T13:33:47Z</time>
      </trkpt>
      <trkpt lat="43.41547" lon="6.14484">
        <ele>240.24966430664</ele>
        <time>2014-05-24T13:33:48Z</time>
      </trkpt>
      <trkpt lat="43.41546" lon="6.14476">
        <ele>240.09719848633</ele>
        <time>2014-05-24T13:33:49Z</time>
      </trkpt>
      <trkpt lat="43.41545" lon="6.14468">
        <ele>240</ele>
        <time>2014-05-24T13:33:50Z</time>
      </trkpt>
      <trkpt lat="43.41544" lon="6.14454">
        <ele>240</ele>
        <time>2014-05-24T13:33:52Z</time>
      </trkpt>
      <trkpt lat="43.41549" lon="6.14434">
        <ele>239.71267700195</ele>
        <time>2014-05-24T13:33:55Z</time>
      </trkpt>
      <trkpt lat="43.41553" lon="6.14418">
        <ele>239.1435546875</ele>
        <time>2014-05-24T13:33:57Z</time>
      </trkpt>
      <trkpt lat="43.41556" lon="6.14402">
        <ele>239</ele>
        <time>2014-05-24T13:33:59Z</time>
      </trkpt>
      <trkpt lat="43.41557" lon="6.14393">
        <ele>239</ele>
        <time>2014-05-24T13:34:00Z</time>
      </trkpt>
      <trkpt lat="43.41559" lon="6.14384">
        <ele>239</ele>
        <time>2014-05-24T13:34:01Z</time>
      </trkpt>
      <trkpt lat="43.4156" lon="6.14375">
        <ele>239</ele>
        <time>2014-05-24T13:34:02Z</time>
      </trkpt>
      <trkpt lat="43.41563" lon="6.14357">
        <ele>239</ele>
        <time>2014-05-24T13:34:04Z</time>
      </trkpt>
      <trkpt lat="43.41565" lon="6.14348">
        <ele>239</ele>
        <time>2014-05-24T13:34:05Z</time>
      </trkpt>
      <trkpt lat="43.41568" lon="6.14331">
        <ele>239</ele>
        <time>2014-05-24T13:34:07Z</time>
      </trkpt>
      <trkpt lat="43.41572" lon="6.143">
        <ele>239</ele>
        <time>2014-05-24T13:34:11Z</time>
      </trkpt>
      <trkpt lat="43.41575" lon="6.14273">
        <ele>239</ele>
        <time>2014-05-24T13:34:15Z</time>
      </trkpt>
      <trkpt lat="43.41579" lon="6.14261">
        <ele>239</ele>
        <time>2014-05-24T13:34:17Z</time>
      </trkpt>
      <trkpt lat="43.41584" lon="6.14246">
        <ele>238.99674987793</ele>
        <time>2014-05-24T13:34:19Z</time>
      </trkpt>
      <trkpt lat="43.41589" lon="6.14223">
        <ele>238.80508422852</ele>
        <time>2014-05-24T13:34:22Z</time>
      </trkpt>
      <trkpt lat="43.4159" lon="6.14216">
        <ele>238.76947021484</ele>
        <time>2014-05-24T13:34:23Z</time>
      </trkpt>
      <trkpt lat="43.41587" lon="6.14203">
        <ele>238.85186767578</ele>
        <time>2014-05-24T13:34:25Z</time>
      </trkpt>
      <trkpt lat="43.41583" lon="6.14183">
        <ele>239.01403808594</ele>
        <time>2014-05-24T13:34:28Z</time>
      </trkpt>
      <trkpt lat="43.41582" lon="6.14165">
        <ele>239.36447143555</ele>
        <time>2014-05-24T13:34:31Z</time>
      </trkpt>
      <trkpt lat="43.41583" lon="6.14137">
        <ele>239.22789001465</ele>
        <time>2014-05-24T13:34:36Z</time>
      </trkpt>
      <trkpt lat="43.41583" lon="6.14132">
        <ele>239.43156433106</ele>
        <time>2014-05-24T13:34:37Z</time>
      </trkpt>
      <trkpt lat="43.41586" lon="6.14105">
        <ele>241.84642028809</ele>
        <time>2014-05-24T13:34:43Z</time>
      </trkpt>
      <trkpt lat="43.41597" lon="6.14083">
        <ele>244.04954528809</ele>
        <time>2014-05-24T13:34:48Z</time>
      </trkpt>
      <trkpt lat="43.41614" lon="6.14061">
        <ele>241.07778930664</ele>
        <time>2014-05-24T13:34:52Z</time>
      </trkpt>
      <trkpt lat="43.4162" lon="6.14055">
        <ele>240.90985107422</ele>
        <time>2014-05-24T13:34:53Z</time>
      </trkpt>
      <trkpt lat="43.4163" lon="6.14042">
        <ele>241.16377258301</ele>
        <time>2014-05-24T13:34:55Z</time>
      </trkpt>
      <trkpt lat="43.41636" lon="6.14035">
        <ele>240.46948242188</ele>
        <time>2014-05-24T13:34:56Z</time>
      </trkpt>
      <trkpt lat="43.4164" lon="6.14029">
        <ele>239.70988464356</ele>
        <time>2014-05-24T13:34:57Z</time>
      </trkpt>
      <trkpt lat="43.41645" lon="6.14022">
        <ele>239.78372192383</ele>
        <time>2014-05-24T13:34:58Z</time>
      </trkpt>
      <trkpt lat="43.4165" lon="6.14015">
        <ele>239.78567504883</ele>
        <time>2014-05-24T13:34:59Z</time>
      </trkpt>
      <trkpt lat="43.4167" lon="6.13986">
        <ele>239.80653381348</ele>
        <time>2014-05-24T13:35:04Z</time>
      </trkpt>
      <trkpt lat="43.41673" lon="6.13979">
        <ele>240.17082214356</ele>
        <time>2014-05-24T13:35:05Z</time>
      </trkpt>
      <trkpt lat="43.41677" lon="6.13973">
        <ele>240.08427429199</ele>
        <time>2014-05-24T13:35:06Z</time>
      </trkpt>
      <trkpt lat="43.41686" lon="6.13965">
        <ele>239.35626220703</ele>
        <time>2014-05-24T13:35:08Z</time>
      </trkpt>
      <trkpt lat="43.41691" lon="6.1396">
        <ele>238.72479248047</ele>
        <time>2014-05-24T13:35:09Z</time>
      </trkpt>
      <trkpt lat="43.41708" lon="6.13937">
        <ele>235.98818969727</ele>
        <time>2014-05-24T13:35:13Z</time>
      </trkpt>
      <trkpt lat="43.41714" lon="6.13926">
        <ele>234.56604003906</ele>
        <time>2014-05-24T13:35:15Z</time>
      </trkpt>
      <trkpt lat="43.41718" lon="6.13921">
        <ele>233.72994995117</ele>
        <time>2014-05-24T13:35:16Z</time>
      </trkpt>
      <trkpt lat="43.41722" lon="6.13916">
        <ele>233.04920959473</ele>
        <time>2014-05-24T13:35:17Z</time>
      </trkpt>
      <trkpt lat="43.41727" lon="6.1391">
        <ele>232.45674133301</ele>
        <time>2014-05-24T13:35:18Z</time>
      </trkpt>
      <trkpt lat="43.41736" lon="6.13899">
        <ele>231.04751586914</ele>
        <time>2014-05-24T13:35:20Z</time>
      </trkpt>
      <trkpt lat="43.41743" lon="6.13886">
        <ele>230.29350280762</ele>
        <time>2014-05-24T13:35:22Z</time>
      </trkpt>
      <trkpt lat="43.41745" lon="6.13879">
        <ele>230.44393920898</ele>
        <time>2014-05-24T13:35:23Z</time>
      </trkpt>
      <trkpt lat="43.41746" lon="6.13875">
        <ele>230.51206970215</ele>
        <time>2014-05-24T13:35:25Z</time>
      </trkpt>
      <trkpt lat="43.41746" lon="6.13875">
        <ele>230.51206970215</ele>
        <time>2014-05-24T13:35:34Z</time>
      </trkpt>
      <trkpt lat="43.41746" lon="6.13876">
        <ele>230.41384887695</ele>
        <time>2014-05-24T13:35:37Z</time>
      </trkpt>
      <trkpt lat="43.41747" lon="6.13878">
        <ele>229.96351623535</ele>
        <time>2014-05-24T13:35:39Z</time>
      </trkpt>
      <trkpt lat="43.41747" lon="6.13881">
        <ele>229.8512878418</ele>
        <time>2014-05-24T13:35:42Z</time>
      </trkpt>
      <trkpt lat="43.41747" lon="6.13883">
        <ele>229.55210876465</ele>
        <time>2014-05-24T13:35:44Z</time>
      </trkpt>
      <trkpt lat="43.41747" lon="6.13882">
        <ele>229.48025512695</ele>
        <time>2014-05-24T13:35:50Z</time>
      </trkpt>
      <trkpt lat="43.41747" lon="6.13882">
        <ele>229.48025512695</ele>
        <time>2014-05-24T13:36:16Z</time>
      </trkpt>
      <trkpt lat="43.41747" lon="6.13882">
        <ele>229.48025512695</ele>
        <time>2014-05-24T13:36:23Z</time>
      </trkpt>
      <trkpt lat="43.41748" lon="6.13882">
        <ele>229.34365844727</ele>
        <time>2014-05-24T13:36:32Z</time>
      </trkpt>
      <trkpt lat="43.41748" lon="6.13883">
        <ele>229.20678710938</ele>
        <time>2014-05-24T13:36:44Z</time>
      </trkpt>
      <trkpt lat="43.41748" lon="6.13883">
        <ele>229.20678710938</ele>
        <time>2014-05-24T13:37:03Z</time>
      </trkpt>
      <trkpt lat="43.41748" lon="6.13883">
        <ele>229.20678710938</ele>
        <time>2014-05-24T13:37:19Z</time>
      </trkpt>
      <trkpt lat="43.41749" lon="6.13883">
        <ele>228.98802185059</ele>
        <time>2014-05-24T13:37:31Z</time>
      </trkpt>
      <trkpt lat="43.41749" lon="6.13883">
        <ele>228.98802185059</ele>
        <time>2014-05-24T13:37:55Z</time>
      </trkpt>
      <trkpt lat="43.41749" lon="6.13883">
        <ele>228.98295593262</ele>
        <time>2014-05-24T13:38:27Z</time>
      </trkpt>
      <trkpt lat="43.41749" lon="6.13883">
        <ele>228.98295593262</ele>
        <time>2014-05-24T13:38:40Z</time>
      </trkpt>
      <trkpt lat="43.41749" lon="6.13883">
        <ele>228.85055541992</ele>
        <time>2014-05-24T13:38:50Z</time>
      </trkpt>
      <trkpt lat="43.41749" lon="6.13883">
        <ele>228.85055541992</ele>
        <time>2014-05-24T13:39:02Z</time>
      </trkpt>
      <trkpt lat="43.41749" lon="6.13883">
        <ele>228.85055541992</ele>
        <time>2014-05-24T13:39:11Z</time>
      </trkpt>
      <trkpt lat="43.41749" lon="6.13883">
        <ele>228.94233703613</ele>
        <time>2014-05-24T13:39:17Z</time>
      </trkpt>
      <trkpt lat="43.41749" lon="6.13883">
        <ele>228.94233703613</ele>
        <time>2014-05-24T13:39:37Z</time>
      </trkpt>
      <trkpt lat="43.41749" lon="6.13883">
        <ele>228.94233703613</ele>
        <time>2014-05-24T13:39:53Z</time>
      </trkpt>
      <trkpt lat="43.41749" lon="6.13883">
        <ele>228.85566711426</ele>
        <time>2014-05-24T13:40:01Z</time>
      </trkpt>
      <trkpt lat="43.41749" lon="6.13883">
        <ele>228.85566711426</ele>
        <time>2014-05-24T13:40:25Z</time>
      </trkpt>
      <trkpt lat="43.41749" lon="6.13882">
        <ele>228.95765686035</ele>
        <time>2014-05-24T13:42:45Z</time>
      </trkpt>
      <trkpt lat="43.41749" lon="6.13882">
        <ele>228.95765686035</ele>
        <time>2014-05-24T13:42:54Z</time>
      </trkpt>
      <trkpt lat="43.41749" lon="6.13882">
        <ele>229.06416320801</ele>
        <time>2014-05-24T13:43:21Z</time>
      </trkpt>
      <trkpt lat="43.41749" lon="6.13882">
        <ele>229.06416320801</ele>
        <time>2014-05-24T13:43:49Z</time>
      </trkpt>
      <trkpt lat="43.41749" lon="6.13882">
        <ele>229.07940673828</ele>
        <time>2014-05-24T13:43:59Z</time>
      </trkpt>
      <trkpt lat="43.41749" lon="6.13882">
        <ele>229.07940673828</ele>
        <time>2014-05-24T13:44:12Z</time>
      </trkpt>
      <trkpt lat="43.41749" lon="6.13882">
        <ele>228.95256042481</ele>
        <time>2014-05-24T13:44:15Z</time>
      </trkpt>
      <trkpt lat="43.4175" lon="6.13883">
        <ele>228.77941894531</ele>
        <time>2014-05-24T13:44:19Z</time>
      </trkpt>
      <trkpt lat="43.41752" lon="6.13887">
        <ele>227.69021606445</ele>
        <time>2014-05-24T13:44:21Z</time>
      </trkpt>
      <trkpt lat="43.41761" lon="6.13893">
        <ele>224.66580200195</ele>
        <time>2014-05-24T13:44:25Z</time>
      </trkpt>
      <trkpt lat="43.41768" lon="6.13894">
        <ele>222.82498168945</ele>
        <time>2014-05-24T13:44:27Z</time>
      </trkpt>
      <trkpt lat="43.41771" lon="6.13895">
        <ele>221.96279907227</ele>
        <time>2014-05-24T13:44:28Z</time>
      </trkpt>
      <trkpt lat="43.41774" lon="6.13895">
        <ele>221.13415527344</ele>
        <time>2014-05-24T13:44:29Z</time>
      </trkpt>
      <trkpt lat="43.41779" lon="6.13892">
        <ele>220</ele>
        <time>2014-05-24T13:44:31Z</time>
      </trkpt>
      <trkpt lat="43.41791" lon="6.13878">
        <ele>220</ele>
        <time>2014-05-24T13:44:36Z</time>
      </trkpt>
      <trkpt lat="43.418" lon="6.13878">
        <ele>220</ele>
        <time>2014-05-24T13:44:40Z</time>
      </trkpt>
      <trkpt lat="43.41802" lon="6.13884">
        <ele>220</ele>
        <time>2014-05-24T13:44:43Z</time>
      </trkpt>
      <trkpt lat="43.41803" lon="6.13886">
        <ele>220</ele>
        <time>2014-05-24T13:44:44Z</time>
      </trkpt>
      <trkpt lat="43.41804" lon="6.13888">
        <ele>220</ele>
        <time>2014-05-24T13:44:45Z</time>
      </trkpt>
      <trkpt lat="43.41805" lon="6.1389">
        <ele>220</ele>
        <time>2014-05-24T13:44:46Z</time>
      </trkpt>
      <trkpt lat="43.41805" lon="6.13893">
        <ele>220</ele>
        <time>2014-05-24T13:44:47Z</time>
      </trkpt>
      <trkpt lat="43.41806" lon="6.13898">
        <ele>220</ele>
        <time>2014-05-24T13:44:49Z</time>
      </trkpt>
      <trkpt lat="43.41806" lon="6.13901">
        <ele>220</ele>
        <time>2014-05-24T13:44:50Z</time>
      </trkpt>
      <trkpt lat="43.41804" lon="6.13908">
        <ele>220</ele>
        <time>2014-05-24T13:44:53Z</time>
      </trkpt>
      <trkpt lat="43.41801" lon="6.13916">
        <ele>220</ele>
        <time>2014-05-24T13:44:56Z</time>
      </trkpt>
      <trkpt lat="43.41794" lon="6.1393">
        <ele>220</ele>
        <time>2014-05-24T13:45:02Z</time>
      </trkpt>
      <trkpt lat="43.41789" lon="6.13941">
        <ele>220</ele>
        <time>2014-05-24T13:45:07Z</time>
      </trkpt>
      <trkpt lat="43.4179" lon="6.13943">
        <ele>220</ele>
        <time>2014-05-24T13:45:08Z</time>
      </trkpt>
      <trkpt lat="43.41793" lon="6.13949">
        <ele>220</ele>
        <time>2014-05-24T13:45:11Z</time>
      </trkpt>
      <trkpt lat="43.41794" lon="6.13951">
        <ele>220</ele>
        <time>2014-05-24T13:45:12Z</time>
      </trkpt>
      <trkpt lat="43.41795" lon="6.13954">
        <ele>220</ele>
        <time>2014-05-24T13:45:14Z</time>
      </trkpt>
      <trkpt lat="43.41798" lon="6.13964">
        <ele>220</ele>
        <time>2014-05-24T13:45:19Z</time>
      </trkpt>
      <trkpt lat="43.41802" lon="6.13974">
        <ele>220</ele>
        <time>2014-05-24T13:45:25Z</time>
      </trkpt>
      <trkpt lat="43.41808" lon="6.13989">
        <ele>220.30934143066</ele>
        <time>2014-05-24T13:45:34Z</time>
      </trkpt>
      <trkpt lat="43.41813" lon="6.13993">
        <ele>220.994140625</ele>
        <time>2014-05-24T13:45:38Z</time>
      </trkpt>
      <trkpt lat="43.41818" lon="6.13987">
        <ele>221.1844329834</ele>
        <time>2014-05-24T13:45:43Z</time>
      </trkpt>
      <trkpt lat="43.41821" lon="6.13983">
        <ele>221.05906677246</ele>
        <time>2014-05-24T13:45:45Z</time>
      </trkpt>
      <trkpt lat="43.41824" lon="6.13978">
        <ele>220.703125</ele>
        <time>2014-05-24T13:45:47Z</time>
      </trkpt>
      <trkpt lat="43.4183" lon="6.13974">
        <ele>220.35789489746</ele>
        <time>2014-05-24T13:45:51Z</time>
      </trkpt>
      <trkpt lat="43.41838" lon="6.13971">
        <ele>221.44068908691</ele>
        <time>2014-05-24T13:45:57Z</time>
      </trkpt>
      <trkpt lat="43.4185" lon="6.13977">
        <ele>225.34558105469</ele>
        <time>2014-05-24T13:46:03Z</time>
      </trkpt>
      <trkpt lat="43.41859" lon="6.13987">
        <ele>229.63349914551</ele>
        <time>2014-05-24T13:46:11Z</time>
      </trkpt>
      <trkpt lat="43.4186" lon="6.13987">
        <ele>229.86442565918</ele>
        <time>2014-05-24T13:46:12Z</time>
      </trkpt>
      <trkpt lat="43.41864" lon="6.13987">
        <ele>230.43168640137</ele>
        <time>2014-05-24T13:46:15Z</time>
      </trkpt>
      <trkpt lat="43.41872" lon="6.13986">
        <ele>231.43544006348</ele>
        <time>2014-05-24T13:46:20Z</time>
      </trkpt>
      <trkpt lat="43.41879" lon="6.13985">
        <ele>232.09602355957</ele>
        <time>2014-05-24T13:46:23Z</time>
      </trkpt>
      <trkpt lat="43.41882" lon="6.1398">
        <ele>231.95524597168</ele>
        <time>2014-05-24T13:46:25Z</time>
      </trkpt>
      <trkpt lat="43.41883" lon="6.13977">
        <ele>231.71405029297</ele>
        <time>2014-05-24T13:46:26Z</time>
      </trkpt>
      <trkpt lat="43.41883" lon="6.13974">
        <ele>231.39094543457</ele>
        <time>2014-05-24T13:46:27Z</time>
      </trkpt>
      <trkpt lat="43.41884" lon="6.13971">
        <ele>231.08543395996</ele>
        <time>2014-05-24T13:46:28Z</time>
      </trkpt>
      <trkpt lat="43.41885" lon="6.13962">
        <ele>230.27270507812</ele>
        <time>2014-05-24T13:46:30Z</time>
      </trkpt>
      <trkpt lat="43.41888" lon="6.1395">
        <ele>229.47370910644</ele>
        <time>2014-05-24T13:46:32Z</time>
      </trkpt>
      <trkpt lat="43.4189" lon="6.13945">
        <ele>229.22955322266</ele>
        <time>2014-05-24T13:46:33Z</time>
      </trkpt>
      <trkpt lat="43.41897" lon="6.13935">
        <ele>229.31524658203</ele>
        <time>2014-05-24T13:46:35Z</time>
      </trkpt>
      <trkpt lat="43.41899" lon="6.13928">
        <ele>229.01551818848</ele>
        <time>2014-05-24T13:46:36Z</time>
      </trkpt>
      <trkpt lat="43.41903" lon="6.13925">
        <ele>229.31614685059</ele>
        <time>2014-05-24T13:46:37Z</time>
      </trkpt>
      <trkpt lat="43.41907" lon="6.13921">
        <ele>229.68930053711</ele>
        <time>2014-05-24T13:46:38Z</time>
      </trkpt>
      <trkpt lat="43.4191" lon="6.13917">
        <ele>229.87821960449</ele>
        <time>2014-05-24T13:46:39Z</time>
      </trkpt>
      <trkpt lat="43.41915" lon="6.13914">
        <ele>230.38540649414</ele>
        <time>2014-05-24T13:46:40Z</time>
      </trkpt>
      <trkpt lat="43.41925" lon="6.13908">
        <ele>230.90283203125</ele>
        <time>2014-05-24T13:46:42Z</time>
      </trkpt>
      <trkpt lat="43.41928" lon="6.13903">
        <ele>230.70715332031</ele>
        <time>2014-05-24T13:46:43Z</time>
      </trkpt>
      <trkpt lat="43.41934" lon="6.13891">
        <ele>230.10461425781</ele>
        <time>2014-05-24T13:46:45Z</time>
      </trkpt>
      <trkpt lat="43.41937" lon="6.13885">
        <ele>229.78018188477</ele>
        <time>2014-05-24T13:46:46Z</time>
      </trkpt>
      <trkpt lat="43.41941" lon="6.1388">
        <ele>229.72866821289</ele>
        <time>2014-05-24T13:46:47Z</time>
      </trkpt>
      <trkpt lat="43.41949" lon="6.13873">
        <ele>229.75958251953</ele>
        <time>2014-05-24T13:46:49Z</time>
      </trkpt>
      <trkpt lat="43.41962" lon="6.13862">
        <ele>230.02737426758</ele>
        <time>2014-05-24T13:46:54Z</time>
      </trkpt>
      <trkpt lat="43.41969" lon="6.13859">
        <ele>230.60610961914</ele>
        <time>2014-05-24T13:46:57Z</time>
      </trkpt>
      <trkpt lat="43.41971" lon="6.13857">
        <ele>230.70910644531</ele>
        <time>2014-05-24T13:46:58Z</time>
      </trkpt>
      <trkpt lat="43.41975" lon="6.13856">
        <ele>231.30058288574</ele>
        <time>2014-05-24T13:47:00Z</time>
      </trkpt>
      <trkpt lat="43.4198" lon="6.13856">
        <ele>232.0537109375</ele>
        <time>2014-05-24T13:47:02Z</time>
      </trkpt>
      <trkpt lat="43.41985" lon="6.13857">
        <ele>232.74328613281</ele>
        <time>2014-05-24T13:47:04Z</time>
      </trkpt>
      <trkpt lat="43.4199" lon="6.13857">
        <ele>233.49324035644</ele>
        <time>2014-05-24T13:47:06Z</time>
      </trkpt>
      <trkpt lat="43.41994" lon="6.13856">
        <ele>234.16548156738</ele>
        <time>2014-05-24T13:47:08Z</time>
      </trkpt>
      <trkpt lat="43.41998" lon="6.13854">
        <ele>234.67874145508</ele>
        <time>2014-05-24T13:47:10Z</time>
      </trkpt>
      <trkpt lat="43.41999" lon="6.13852">
        <ele>234.91226196289</ele>
        <time>2014-05-24T13:47:11Z</time>
      </trkpt>
      <trkpt lat="43.42001" lon="6.13851">
        <ele>235.11415100098</ele>
        <time>2014-05-24T13:47:12Z</time>
      </trkpt>
      <trkpt lat="43.42004" lon="6.1385">
        <ele>235.31591796875</ele>
        <time>2014-05-24T13:47:13Z</time>
      </trkpt>
      <trkpt lat="43.42005" lon="6.13848">
        <ele>235.45788574219</ele>
        <time>2014-05-24T13:47:14Z</time>
      </trkpt>
      <trkpt lat="43.42009" lon="6.13843">
        <ele>235.88882446289</ele>
        <time>2014-05-24T13:47:17Z</time>
      </trkpt>
      <trkpt lat="43.42017" lon="6.1383">
        <ele>236.83416748047</ele>
        <time>2014-05-24T13:47:22Z</time>
      </trkpt>
      <trkpt lat="43.42019" lon="6.13827">
        <ele>237.08135986328</ele>
        <time>2014-05-24T13:47:23Z</time>
      </trkpt>
      <trkpt lat="43.42035" lon="6.13821">
        <ele>238.48620605469</ele>
        <time>2014-05-24T13:47:27Z</time>
      </trkpt>
      <trkpt lat="43.42039" lon="6.13812">
        <ele>238.84326171875</ele>
        <time>2014-05-24T13:47:29Z</time>
      </trkpt>
      <trkpt lat="43.42039" lon="6.13806">
        <ele>238.84326171875</ele>
        <time>2014-05-24T13:47:30Z</time>
      </trkpt>
      <trkpt lat="43.42038" lon="6.138">
        <ele>239.18937683106</ele>
        <time>2014-05-24T13:47:31Z</time>
      </trkpt>
      <trkpt lat="43.42036" lon="6.13793">
        <ele>239.4365234375</ele>
        <time>2014-05-24T13:47:32Z</time>
      </trkpt>
      <trkpt lat="43.42033" lon="6.13786">
        <ele>239.46264648438</ele>
        <time>2014-05-24T13:47:33Z</time>
      </trkpt>
      <trkpt lat="43.42031" lon="6.13779">
        <ele>239.45637512207</ele>
        <time>2014-05-24T13:47:34Z</time>
      </trkpt>
      <trkpt lat="43.4203" lon="6.1377">
        <ele>239.73304748535</ele>
        <time>2014-05-24T13:47:35Z</time>
      </trkpt>
      <trkpt lat="43.42031" lon="6.13754">
        <ele>240.53985595703</ele>
        <time>2014-05-24T13:47:37Z</time>
      </trkpt>
      <trkpt lat="43.42032" lon="6.13747">
        <ele>240.7820892334</ele>
        <time>2014-05-24T13:47:38Z</time>
      </trkpt>
      <trkpt lat="43.42031" lon="6.13741">
        <ele>240.70979309082</ele>
        <time>2014-05-24T13:47:39Z</time>
      </trkpt>
      <trkpt lat="43.4203" lon="6.13736">
        <ele>240.51348876953</ele>
        <time>2014-05-24T13:47:40Z</time>
      </trkpt>
      <trkpt lat="43.42028" lon="6.1373">
        <ele>240.16737365723</ele>
        <time>2014-05-24T13:47:41Z</time>
      </trkpt>
      <trkpt lat="43.42028" lon="6.13725">
        <ele>239.98364257812</ele>
        <time>2014-05-24T13:47:42Z</time>
      </trkpt>
      <trkpt lat="43.42023" lon="6.13701">
        <ele>239.50053405762</ele>
        <time>2014-05-24T13:47:48Z</time>
      </trkpt>
      <trkpt lat="43.42018" lon="6.1367">
        <ele>240.67951965332</ele>
        <time>2014-05-24T13:47:56Z</time>
      </trkpt>
      <trkpt lat="43.42017" lon="6.13659">
        <ele>241.01040649414</ele>
        <time>2014-05-24T13:47:59Z</time>
      </trkpt>
      <trkpt lat="43.42016" lon="6.13656">
        <ele>241.12829589844</ele>
        <time>2014-05-24T13:48:00Z</time>
      </trkpt>
      <trkpt lat="43.42014" lon="6.13646">
        <ele>241.13752746582</ele>
        <time>2014-05-24T13:48:03Z</time>
      </trkpt>
      <trkpt lat="43.42006" lon="6.13626">
        <ele>240.14245605469</ele>
        <time>2014-05-24T13:48:09Z</time>
      </trkpt>
      <trkpt lat="43.41999" lon="6.13608">
        <ele>238.61767578125</ele>
        <time>2014-05-24T13:48:15Z</time>
      </trkpt>
      <trkpt lat="43.41998" lon="6.13605">
        <ele>238.39794921875</ele>
        <time>2014-05-24T13:48:16Z</time>
      </trkpt>
      <trkpt lat="43.41994" lon="6.13596">
        <ele>237.4091796875</ele>
        <time>2014-05-24T13:48:19Z</time>
      </trkpt>
      <trkpt lat="43.41986" lon="6.13572">
        <ele>234.9921875</ele>
        <time>2014-05-24T13:48:28Z</time>
      </trkpt>
      <trkpt lat="43.41984" lon="6.13564">
        <ele>234.3330078125</ele>
        <time>2014-05-24T13:48:31Z</time>
      </trkpt>
      <trkpt lat="43.41982" lon="6.13551">
        <ele>233.78369140625</ele>
        <time>2014-05-24T13:48:36Z</time>
      </trkpt>
      <trkpt lat="43.41981" lon="6.13545">
        <ele>233.4541015625</ele>
        <time>2014-05-24T13:48:38Z</time>
      </trkpt>
      <trkpt lat="43.41979" lon="6.13538">
        <ele>232.90478515625</ele>
        <time>2014-05-24T13:48:40Z</time>
      </trkpt>
      <trkpt lat="43.41979" lon="6.13532">
        <ele>232.90478515625</ele>
        <time>2014-05-24T13:48:42Z</time>
      </trkpt>
      <trkpt lat="43.41979" lon="6.13527">
        <ele>232.91012573242</ele>
        <time>2014-05-24T13:48:44Z</time>
      </trkpt>
      <trkpt lat="43.41978" lon="6.13522">
        <ele>232.72846984863</ele>
        <time>2014-05-24T13:48:46Z</time>
      </trkpt>
      <trkpt lat="43.41978" lon="6.1352">
        <ele>232.6326751709</ele>
        <time>2014-05-24T13:48:47Z</time>
      </trkpt>
      <trkpt lat="43.41978" lon="6.13514">
        <ele>232.67628479004</ele>
        <time>2014-05-24T13:48:51Z</time>
      </trkpt>
      <trkpt lat="43.41977" lon="6.13509">
        <ele>232.58671569824</ele>
        <time>2014-05-24T13:48:53Z</time>
      </trkpt>
      <trkpt lat="43.41977" lon="6.13507">
        <ele>232.6033782959</ele>
        <time>2014-05-24T13:48:55Z</time>
      </trkpt>
      <trkpt lat="43.41977" lon="6.13502">
        <ele>232.63262939453</ele>
        <time>2014-05-24T13:48:59Z</time>
      </trkpt>
      <trkpt lat="43.41978" lon="6.13501">
        <ele>233.00793457031</ele>
        <time>2014-05-24T13:49:04Z</time>
      </trkpt>
      <trkpt lat="43.41978" lon="6.13504">
        <ele>232.74151611328</ele>
        <time>2014-05-24T13:49:07Z</time>
      </trkpt>
      <trkpt lat="43.41978" lon="6.13507">
        <ele>232.724609375</ele>
        <time>2014-05-24T13:49:09Z</time>
      </trkpt>
      <trkpt lat="43.4198" lon="6.13513">
        <ele>233.49719238281</ele>
        <time>2014-05-24T13:49:15Z</time>
      </trkpt>
      <trkpt lat="43.41984" lon="6.13522">
        <ele>234.52861022949</ele>
        <time>2014-05-24T13:49:22Z</time>
      </trkpt>
      <trkpt lat="43.41986" lon="6.13524">
        <ele>234.95484924316</ele>
        <time>2014-05-24T13:49:23Z</time>
      </trkpt>
      <trkpt lat="43.41991" lon="6.13529">
        <ele>236.42041015625</ele>
        <time>2014-05-24T13:49:26Z</time>
      </trkpt>
      <trkpt lat="43.41996" lon="6.13534">
        <ele>237.73876953125</ele>
        <time>2014-05-24T13:49:29Z</time>
      </trkpt>
      <trkpt lat="43.42004" lon="6.13545">
        <ele>241.1759185791</ele>
        <time>2014-05-24T13:49:36Z</time>
      </trkpt>
      <trkpt lat="43.42015" lon="6.13555">
        <ele>245.87980651856</ele>
        <time>2014-05-24T13:49:42Z</time>
      </trkpt>
      <trkpt lat="43.42021" lon="6.1356">
        <ele>248.69355773926</ele>
        <time>2014-05-24T13:49:46Z</time>
      </trkpt>
      <trkpt lat="43.42025" lon="6.13564">
        <ele>250.31303405762</ele>
        <time>2014-05-24T13:49:49Z</time>
      </trkpt>
      <trkpt lat="43.42034" lon="6.13577">
        <ele>252.79559326172</ele>
        <time>2014-05-24T13:49:56Z</time>
      </trkpt>
      <trkpt lat="43.42044" lon="6.13598">
        <ele>254.61363220215</ele>
        <time>2014-05-24T13:50:05Z</time>
      </trkpt>
      <trkpt lat="43.42052" lon="6.13614">
        <ele>256.64752197266</ele>
        <time>2014-05-24T13:50:13Z</time>
      </trkpt>
      <trkpt lat="43.42059" lon="6.13627">
        <ele>258.787109375</ele>
        <time>2014-05-24T13:50:19Z</time>
      </trkpt>
      <trkpt lat="43.42063" lon="6.13635">
        <ele>260.15353393555</ele>
        <time>2014-05-24T13:50:23Z</time>
      </trkpt>
      <trkpt lat="43.42068" lon="6.13645">
        <ele>261.3362121582</ele>
        <time>2014-05-24T13:50:27Z</time>
      </trkpt>
      <trkpt lat="43.42074" lon="6.13659">
        <ele>262.41955566406</ele>
        <time>2014-05-24T13:50:33Z</time>
      </trkpt>
      <trkpt lat="43.42082" lon="6.13674">
        <ele>264.78594970703</ele>
        <time>2014-05-24T13:50:39Z</time>
      </trkpt>
      <trkpt lat="43.42083" lon="6.13676">
        <ele>265.16400146484</ele>
        <time>2014-05-24T13:50:40Z</time>
      </trkpt>
      <trkpt lat="43.42085" lon="6.13689">
        <ele>264.93997192383</ele>
        <time>2014-05-24T13:50:44Z</time>
      </trkpt>
      <trkpt lat="43.42091" lon="6.1371">
        <ele>265.79010009766</ele>
        <time>2014-05-24T13:50:50Z</time>
      </trkpt>
      <trkpt lat="43.42099" lon="6.13726">
        <ele>267.15567016602</ele>
        <time>2014-05-24T13:50:56Z</time>
      </trkpt>
      <trkpt lat="43.42108" lon="6.13742">
        <ele>268.52401733398</ele>
        <time>2014-05-24T13:51:03Z</time>
      </trkpt>
      <trkpt lat="43.42118" lon="6.13759">
        <ele>270.09063720703</ele>
        <time>2014-05-24T13:51:12Z</time>
      </trkpt>
      <trkpt lat="43.4212" lon="6.13764">
        <ele>270.48376464844</ele>
        <time>2014-05-24T13:51:15Z</time>
      </trkpt>
      <trkpt lat="43.4213" lon="6.13783">
        <ele>271.73162841797</ele>
        <time>2014-05-24T13:51:25Z</time>
      </trkpt>
      <trkpt lat="43.42134" lon="6.1379">
        <ele>272.00970458984</ele>
        <time>2014-05-24T13:51:29Z</time>
      </trkpt>
      <trkpt lat="43.42134" lon="6.13792">
        <ele>271.85864257812</ele>
        <time>2014-05-24T13:51:30Z</time>
      </trkpt>
      <trkpt lat="43.42136" lon="6.138">
        <ele>271.67327880859</ele>
        <time>2014-05-24T13:51:34Z</time>
      </trkpt>
      <trkpt lat="43.42136" lon="6.13802">
        <ele>271.72476196289</ele>
        <time>2014-05-24T13:51:35Z</time>
      </trkpt>
      <trkpt lat="43.42141" lon="6.13809">
        <ele>272.38024902344</ele>
        <time>2014-05-24T13:51:40Z</time>
      </trkpt>
      <trkpt lat="43.42145" lon="6.13817">
        <ele>272.76354980469</ele>
        <time>2014-05-24T13:51:45Z</time>
      </trkpt>
      <trkpt lat="43.42146" lon="6.13819">
        <ele>272.85202026367</ele>
        <time>2014-05-24T13:51:46Z</time>
      </trkpt>
      <trkpt lat="43.4215" lon="6.13823">
        <ele>273.91638183594</ele>
        <time>2014-05-24T13:51:50Z</time>
      </trkpt>
      <trkpt lat="43.42154" lon="6.13831">
        <ele>274.44976806641</ele>
        <time>2014-05-24T13:51:55Z</time>
      </trkpt>
      <trkpt lat="43.42157" lon="6.13836">
        <ele>275.21441650391</ele>
        <time>2014-05-24T13:51:59Z</time>
      </trkpt>
      <trkpt lat="43.42163" lon="6.13842">
        <ele>276.53619384766</ele>
        <time>2014-05-24T13:52:05Z</time>
      </trkpt>
      <trkpt lat="43.42165" lon="6.13849">
        <ele>277.07867431641</ele>
        <time>2014-05-24T13:52:08Z</time>
      </trkpt>
      <trkpt lat="43.42168" lon="6.13853">
        <ele>277.66009521484</ele>
        <time>2014-05-24T13:52:11Z</time>
      </trkpt>
      <trkpt lat="43.42171" lon="6.13859">
        <ele>278.22500610352</ele>
        <time>2014-05-24T13:52:15Z</time>
      </trkpt>
      <trkpt lat="43.42176" lon="6.13865">
        <ele>279.07763671875</ele>
        <time>2014-05-24T13:52:20Z</time>
      </trkpt>
      <trkpt lat="43.42178" lon="6.13869">
        <ele>279.25057983398</ele>
        <time>2014-05-24T13:52:22Z</time>
      </trkpt>
      <trkpt lat="43.4218" lon="6.13873">
        <ele>279.27612304688</ele>
        <time>2014-05-24T13:52:25Z</time>
      </trkpt>
      <trkpt lat="43.42184" lon="6.13888">
        <ele>278.560546875</ele>
        <time>2014-05-24T13:52:33Z</time>
      </trkpt>
      <trkpt lat="43.42187" lon="6.13895">
        <ele>278.82473754883</ele>
        <time>2014-05-24T13:52:38Z</time>
      </trkpt>
      <trkpt lat="43.42196" lon="6.13914">
        <ele>280.42587280273</ele>
        <time>2014-05-24T13:52:48Z</time>
      </trkpt>
      <trkpt lat="43.42201" lon="6.13929">
        <ele>281.30578613281</ele>
        <time>2014-05-24T13:52:57Z</time>
      </trkpt>
      <trkpt lat="43.42203" lon="6.13938">
        <ele>281.48931884766</ele>
        <time>2014-05-24T13:53:03Z</time>
      </trkpt>
      <trkpt lat="43.42204" lon="6.1394">
        <ele>281.48150634766</ele>
        <time>2014-05-24T13:53:04Z</time>
      </trkpt>
      <trkpt lat="43.42203" lon="6.13956">
        <ele>280.83541870117</ele>
        <time>2014-05-24T13:53:11Z</time>
      </trkpt>
      <trkpt lat="43.42202" lon="6.13962">
        <ele>280.64337158203</ele>
        <time>2014-05-24T13:53:14Z</time>
      </trkpt>
      <trkpt lat="43.42202" lon="6.13977">
        <ele>280.17510986328</ele>
        <time>2014-05-24T13:53:22Z</time>
      </trkpt>
      <trkpt lat="43.42202" lon="6.13984">
        <ele>279.85925292969</ele>
        <time>2014-05-24T13:53:27Z</time>
      </trkpt>
      <trkpt lat="43.422" lon="6.13993">
        <ele>279.33569335938</ele>
        <time>2014-05-24T13:53:32Z</time>
      </trkpt>
      <trkpt lat="43.42198" lon="6.1401">
        <ele>278.67260742188</ele>
        <time>2014-05-24T13:53:41Z</time>
      </trkpt>
      <trkpt lat="43.42198" lon="6.14012">
        <ele>278.60394287109</ele>
        <time>2014-05-24T13:53:42Z</time>
      </trkpt>
      <trkpt lat="43.42196" lon="6.14018">
        <ele>278.32928466797</ele>
        <time>2014-05-24T13:53:46Z</time>
      </trkpt>
      <trkpt lat="43.42196" lon="6.14027">
        <ele>278.19195556641</ele>
        <time>2014-05-24T13:53:51Z</time>
      </trkpt>
      <trkpt lat="43.42196" lon="6.14029">
        <ele>278.26998901367</ele>
        <time>2014-05-24T13:53:52Z</time>
      </trkpt>
      <trkpt lat="43.42194" lon="6.14031">
        <ele>278.24569702148</ele>
        <time>2014-05-24T13:53:54Z</time>
      </trkpt>
      <trkpt lat="43.4219" lon="6.1404">
        <ele>277.76510620117</ele>
        <time>2014-05-24T13:54:05Z</time>
      </trkpt>
      <trkpt lat="43.42189" lon="6.14042">
        <ele>277.74676513672</ele>
        <time>2014-05-24T13:54:07Z</time>
      </trkpt>
      <trkpt lat="43.42188" lon="6.14046">
        <ele>277.71838378906</ele>
        <time>2014-05-24T13:54:10Z</time>
      </trkpt>
      <trkpt lat="43.42184" lon="6.14052">
        <ele>277.55172729492</ele>
        <time>2014-05-24T13:54:14Z</time>
      </trkpt>
      <trkpt lat="43.4218" lon="6.14061">
        <ele>277.04287719727</ele>
        <time>2014-05-24T13:54:20Z</time>
      </trkpt>
      <trkpt lat="43.42175" lon="6.14072">
        <ele>276.19689941406</ele>
        <time>2014-05-24T13:54:26Z</time>
      </trkpt>
      <trkpt lat="43.42175" lon="6.14079">
        <ele>276.38159179688</ele>
        <time>2014-05-24T13:54:30Z</time>
      </trkpt>
      <trkpt lat="43.42173" lon="6.14091">
        <ele>276.67749023438</ele>
        <time>2014-05-24T13:54:36Z</time>
      </trkpt>
      <trkpt lat="43.42166" lon="6.14107">
        <ele>276.57070922852</ele>
        <time>2014-05-24T13:54:44Z</time>
      </trkpt>
      <trkpt lat="43.42164" lon="6.14111">
        <ele>276.56735229492</ele>
        <time>2014-05-24T13:54:46Z</time>
      </trkpt>
      <trkpt lat="43.42162" lon="6.14114">
        <ele>276.54675292969</ele>
        <time>2014-05-24T13:54:48Z</time>
      </trkpt>
      <trkpt lat="43.4216" lon="6.14118">
        <ele>276.62991333008</ele>
        <time>2014-05-24T13:54:50Z</time>
      </trkpt>
      <trkpt lat="43.42157" lon="6.14122">
        <ele>276.57275390625</ele>
        <time>2014-05-24T13:54:52Z</time>
      </trkpt>
      <trkpt lat="43.42155" lon="6.14123">
        <ele>276.59790039062</ele>
        <time>2014-05-24T13:54:53Z</time>
      </trkpt>
      <trkpt lat="43.42152" lon="6.14128">
        <ele>276.75970458984</ele>
        <time>2014-05-24T13:54:57Z</time>
      </trkpt>
      <trkpt lat="43.42152" lon="6.14129">
        <ele>276.84963989258</ele>
        <time>2014-05-24T13:54:58Z</time>
      </trkpt>
      <trkpt lat="43.42152" lon="6.1413">
        <ele>276.99673461914</ele>
        <time>2014-05-24T13:54:59Z</time>
      </trkpt>
      <trkpt lat="43.42152" lon="6.1413">
        <ele>276.99673461914</ele>
        <time>2014-05-24T13:55:10Z</time>
      </trkpt>
      <trkpt lat="43.42151" lon="6.14131">
        <ele>277.06350708008</ele>
        <time>2014-05-24T13:55:13Z</time>
      </trkpt>
      <trkpt lat="43.42151" lon="6.14131">
        <ele>277.06350708008</ele>
        <time>2014-05-24T13:55:29Z</time>
      </trkpt>
      <trkpt lat="43.42151" lon="6.14131">
        <ele>277.01794433594</ele>
        <time>2014-05-24T13:55:54Z</time>
      </trkpt>
      <trkpt lat="43.42151" lon="6.14131">
        <ele>277.01794433594</ele>
        <time>2014-05-24T13:56:08Z</time>
      </trkpt>
      <trkpt lat="43.42151" lon="6.14131">
        <ele>276.99102783203</ele>
        <time>2014-05-24T13:56:48Z</time>
      </trkpt>
      <trkpt lat="43.42151" lon="6.14131">
        <ele>276.99102783203</ele>
        <time>2014-05-24T13:57:01Z</time>
      </trkpt>
      <trkpt lat="43.42151" lon="6.14132">
        <ele>277.14889526367</ele>
        <time>2014-05-24T13:57:04Z</time>
      </trkpt>
      <trkpt lat="43.42151" lon="6.14131">
        <ele>277.01794433594</ele>
        <time>2014-05-24T13:57:09Z</time>
      </trkpt>
      <trkpt lat="43.4215" lon="6.14131">
        <ele>276.94506835938</ele>
        <time>2014-05-24T13:57:13Z</time>
      </trkpt>
      <trkpt lat="43.42153" lon="6.14129">
        <ele>276.88851928711</ele>
        <time>2014-05-24T13:57:16Z</time>
      </trkpt>
      <trkpt lat="43.4216" lon="6.14117">
        <ele>276.49978637695</ele>
        <time>2014-05-24T13:57:20Z</time>
      </trkpt>
      <trkpt lat="43.42172" lon="6.14095">
        <ele>276.73574829102</ele>
        <time>2014-05-24T13:57:26Z</time>
      </trkpt>
      <trkpt lat="43.42179" lon="6.14074">
        <ele>277.05276489258</ele>
        <time>2014-05-24T13:57:31Z</time>
      </trkpt>
      <trkpt lat="43.42181" lon="6.14069">
        <ele>277.26403808594</ele>
        <time>2014-05-24T13:57:32Z</time>
      </trkpt>
      <trkpt lat="43.42183" lon="6.14065">
        <ele>277.57864379883</ele>
        <time>2014-05-24T13:57:33Z</time>
      </trkpt>
      <trkpt lat="43.42184" lon="6.14061">
        <ele>277.91534423828</ele>
        <time>2014-05-24T13:57:34Z</time>
      </trkpt>
      <trkpt lat="43.42188" lon="6.14053">
        <ele>278.4421081543</ele>
        <time>2014-05-24T13:57:36Z</time>
      </trkpt>
      <trkpt lat="43.42192" lon="6.14043">
        <ele>278.54965209961</ele>
        <time>2014-05-24T13:57:39Z</time>
      </trkpt>
      <trkpt lat="43.42195" lon="6.14037">
        <ele>278.81225585938</ele>
        <time>2014-05-24T13:57:41Z</time>
      </trkpt>
      <trkpt lat="43.42197" lon="6.14035">
        <ele>278.89303588867</ele>
        <time>2014-05-24T13:57:42Z</time>
      </trkpt>
      <trkpt lat="43.42202" lon="6.14027">
        <ele>279.29058837891</ele>
        <time>2014-05-24T13:57:46Z</time>
      </trkpt>
      <trkpt lat="43.42202" lon="6.14025">
        <ele>279.35925292969</ele>
        <time>2014-05-24T13:57:47Z</time>
      </trkpt>
      <trkpt lat="43.42203" lon="6.14019">
        <ele>279.49658203125</ele>
        <time>2014-05-24T13:57:49Z</time>
      </trkpt>
      <trkpt lat="43.42203" lon="6.14017">
        <ele>279.56524658203</ele>
        <time>2014-05-24T13:57:50Z</time>
      </trkpt>
      <trkpt lat="43.42205" lon="6.1401">
        <ele>279.90856933594</ele>
        <time>2014-05-24T13:57:53Z</time>
      </trkpt>
      <trkpt lat="43.42206" lon="6.14008">
        <ele>280.0458984375</ele>
        <time>2014-05-24T13:57:54Z</time>
      </trkpt>
      <trkpt lat="43.42206" lon="6.14006">
        <ele>280.0458984375</ele>
        <time>2014-05-24T13:57:55Z</time>
      </trkpt>
      <trkpt lat="43.42204" lon="6.14005">
        <ele>279.77124023438</ele>
        <time>2014-05-24T13:57:57Z</time>
      </trkpt>
      <trkpt lat="43.42204" lon="6.14004">
        <ele>279.63391113281</ele>
        <time>2014-05-24T13:58:00Z</time>
      </trkpt>
      <trkpt lat="43.42205" lon="6.14003">
        <ele>279.97723388672</ele>
        <time>2014-05-24T13:58:04Z</time>
      </trkpt>
      <trkpt lat="43.42207" lon="6.14004">
        <ele>280.32055664062</ele>
        <time>2014-05-24T13:58:06Z</time>
      </trkpt>
      <trkpt lat="43.42208" lon="6.14007">
        <ele>280.38922119141</ele>
        <time>2014-05-24T13:58:11Z</time>
      </trkpt>
      <trkpt lat="43.42207" lon="6.14014">
        <ele>280.32055664062</ele>
        <time>2014-05-24T13:58:17Z</time>
      </trkpt>
      <trkpt lat="43.42206" lon="6.14025">
        <ele>280.11456298828</ele>
        <time>2014-05-24T13:58:21Z</time>
      </trkpt>
      <trkpt lat="43.42205" lon="6.14028">
        <ele>279.97723388672</ele>
        <time>2014-05-24T13:58:22Z</time>
      </trkpt>
      <trkpt lat="43.42204" lon="6.14032">
        <ele>279.88717651367</ele>
        <time>2014-05-24T13:58:24Z</time>
      </trkpt>
      <trkpt lat="43.42201" lon="6.14035">
        <ele>279.70465087891</ele>
        <time>2014-05-24T13:58:26Z</time>
      </trkpt>
      <trkpt lat="43.42199" lon="6.14039">
        <ele>279.58349609375</ele>
        <time>2014-05-24T13:58:28Z</time>
      </trkpt>
      <trkpt lat="43.42192" lon="6.1405">
        <ele>278.96908569336</ele>
        <time>2014-05-24T13:58:34Z</time>
      </trkpt>
      <trkpt lat="43.42184" lon="6.14064">
        <ele>277.94683837891</ele>
        <time>2014-05-24T13:58:41Z</time>
      </trkpt>
      <trkpt lat="43.42179" lon="6.14074">
        <ele>276.9716796875</ele>
        <time>2014-05-24T13:58:46Z</time>
      </trkpt>
      <trkpt lat="43.42174" lon="6.1409">
        <ele>276.7658996582</ele>
        <time>2014-05-24T13:58:53Z</time>
      </trkpt>
      <trkpt lat="43.42169" lon="6.14101">
        <ele>276.62689208984</ele>
        <time>2014-05-24T13:58:58Z</time>
      </trkpt>
      <trkpt lat="43.42162" lon="6.14111">
        <ele>276.35064697266</ele>
        <time>2014-05-24T13:59:05Z</time>
      </trkpt>
      <trkpt lat="43.42159" lon="6.14118">
        <ele>276.49337768555</ele>
        <time>2014-05-24T13:59:09Z</time>
      </trkpt>
      <trkpt lat="43.42155" lon="6.14122">
        <ele>276.52081298828</ele>
        <time>2014-05-24T13:59:11Z</time>
      </trkpt>
      <trkpt lat="43.42152" lon="6.1413">
        <ele>276.90252685547</ele>
        <time>2014-05-24T13:59:15Z</time>
      </trkpt>
      <trkpt lat="43.42149" lon="6.14132">
        <ele>276.82574462891</ele>
        <time>2014-05-24T13:59:20Z</time>
      </trkpt>
      <trkpt lat="43.42149" lon="6.14132">
        <ele>276.82574462891</ele>
        <time>2014-05-24T13:59:40Z</time>
      </trkpt>
      <trkpt lat="43.42149" lon="6.14132">
        <ele>276.82574462891</ele>
        <time>2014-05-24T13:59:58Z</time>
      </trkpt>
      <trkpt lat="43.42149" lon="6.14132">
        <ele>276.84841918945</ele>
        <time>2014-05-24T13:59:59Z</time>
      </trkpt>
      <trkpt lat="43.42149" lon="6.14132">
        <ele>276.84841918945</ele>
        <time>2014-05-24T14:00:13Z</time>
      </trkpt>
      <trkpt lat="43.42148" lon="6.14132">
        <ele>276.87673950195</ele>
        <time>2014-05-24T14:00:41Z</time>
      </trkpt>
      <trkpt lat="43.42148" lon="6.14132">
        <ele>276.87673950195</ele>
        <time>2014-05-24T14:00:58Z</time>
      </trkpt>
      <trkpt lat="43.42148" lon="6.14132">
        <ele>276.79663085938</ele>
        <time>2014-05-24T14:01:21Z</time>
      </trkpt>
      <trkpt lat="43.42148" lon="6.14132">
        <ele>276.79663085938</ele>
        <time>2014-05-24T14:01:23Z</time>
      </trkpt>
      <trkpt lat="43.42147" lon="6.14132">
        <ele>276.71115112305</ele>
        <time>2014-05-24T14:01:29Z</time>
      </trkpt>
      <trkpt lat="43.42147" lon="6.14132">
        <ele>276.71115112305</ele>
        <time>2014-05-24T14:01:30Z</time>
      </trkpt>
      <trkpt lat="43.42146" lon="6.14133">
        <ele>276.82257080078</ele>
        <time>2014-05-24T14:01:36Z</time>
      </trkpt>
      <trkpt lat="43.42146" lon="6.14135">
        <ele>277.01605224609</ele>
        <time>2014-05-24T14:01:37Z</time>
      </trkpt>
      <trkpt lat="43.42151" lon="6.1414">
        <ele>277.9521484375</ele>
        <time>2014-05-24T14:01:42Z</time>
      </trkpt>
      <trkpt lat="43.42153" lon="6.14142">
        <ele>278.20666503906</ele>
        <time>2014-05-24T14:01:45Z</time>
      </trkpt>
      <trkpt lat="43.42154" lon="6.14145">
        <ele>278.43041992188</ele>
        <time>2014-05-24T14:01:47Z</time>
      </trkpt>
      <trkpt lat="43.42158" lon="6.14153">
        <ele>279.04260253906</ele>
        <time>2014-05-24T14:01:50Z</time>
      </trkpt>
      <trkpt lat="43.42161" lon="6.14161">
        <ele>279.56903076172</ele>
        <time>2014-05-24T14:01:52Z</time>
      </trkpt>
      <trkpt lat="43.42166" lon="6.1417">
        <ele>280.22290039062</ele>
        <time>2014-05-24T14:01:54Z</time>
      </trkpt>
      <trkpt lat="43.42173" lon="6.14187">
        <ele>281.72375488281</ele>
        <time>2014-05-24T14:01:57Z</time>
      </trkpt>
      <trkpt lat="43.42175" lon="6.14194">
        <ele>282.25274658203</ele>
        <time>2014-05-24T14:01:58Z</time>
      </trkpt>
      <trkpt lat="43.42178" lon="6.142">
        <ele>282.60568237305</ele>
        <time>2014-05-24T14:01:59Z</time>
      </trkpt>
      <trkpt lat="43.42181" lon="6.14207">
        <ele>282.95587158203</ele>
        <time>2014-05-24T14:02:00Z</time>
      </trkpt>
      <trkpt lat="43.42186" lon="6.14211">
        <ele>283.30606079102</ele>
        <time>2014-05-24T14:02:01Z</time>
      </trkpt>
      <trkpt lat="43.42191" lon="6.14215">
        <ele>283.62362670898</ele>
        <time>2014-05-24T14:02:02Z</time>
      </trkpt>
      <trkpt lat="43.42197" lon="6.14217">
        <ele>284.20227050781</ele>
        <time>2014-05-24T14:02:03Z</time>
      </trkpt>
      <trkpt lat="43.42203" lon="6.1422">
        <ele>285.1653137207</ele>
        <time>2014-05-24T14:02:04Z</time>
      </trkpt>
      <trkpt lat="43.42209" lon="6.14222">
        <ele>286.06311035156</ele>
        <time>2014-05-24T14:02:05Z</time>
      </trkpt>
      <trkpt lat="43.42215" lon="6.14224">
        <ele>286.96087646484</ele>
        <time>2014-05-24T14:02:06Z</time>
      </trkpt>
      <trkpt lat="43.4222" lon="6.14226">
        <ele>287.74365234375</ele>
        <time>2014-05-24T14:02:07Z</time>
      </trkpt>
      <trkpt lat="43.42225" lon="6.14227">
        <ele>288.66659545898</ele>
        <time>2014-05-24T14:02:08Z</time>
      </trkpt>
      <trkpt lat="43.42238" lon="6.14229">
        <ele>291.71356201172</ele>
        <time>2014-05-24T14:02:11Z</time>
      </trkpt>
      <trkpt lat="43.42246" lon="6.14229">
        <ele>293.44564819336</ele>
        <time>2014-05-24T14:02:13Z</time>
      </trkpt>
      <trkpt lat="43.42266" lon="6.14216">
        <ele>293.86743164062</ele>
        <time>2014-05-24T14:02:19Z</time>
      </trkpt>
      <trkpt lat="43.42268" lon="6.14214">
        <ele>293.80743408203</ele>
        <time>2014-05-24T14:02:20Z</time>
      </trkpt>
      <trkpt lat="43.42274" lon="6.14213">
        <ele>293.71334838867</ele>
        <time>2014-05-24T14:02:22Z</time>
      </trkpt>
      <trkpt lat="43.4228" lon="6.14212">
        <ele>292.75030517578</ele>
        <time>2014-05-24T14:02:25Z</time>
      </trkpt>
      <trkpt lat="43.42282" lon="6.14212">
        <ele>292.05853271484</ele>
        <time>2014-05-24T14:02:26Z</time>
      </trkpt>
      <trkpt lat="43.42284" lon="6.14212">
        <ele>291.38388061523</ele>
        <time>2014-05-24T14:02:27Z</time>
      </trkpt>
      <trkpt lat="43.42292" lon="6.14214">
        <ele>288.71453857422</ele>
        <time>2014-05-24T14:02:31Z</time>
      </trkpt>
      <trkpt lat="43.42301" lon="6.14221">
        <ele>285.52166748047</ele>
        <time>2014-05-24T14:02:37Z</time>
      </trkpt>
      <trkpt lat="43.42309" lon="6.14239">
        <ele>283.81594848633</ele>
        <time>2014-05-24T14:02:42Z</time>
      </trkpt>
      <trkpt lat="43.42313" lon="6.14261">
        <ele>284.12985229492</ele>
        <time>2014-05-24T14:02:47Z</time>
      </trkpt>
      <trkpt lat="43.42321" lon="6.14287">
        <ele>284.60815429688</ele>
        <time>2014-05-24T14:02:52Z</time>
      </trkpt>
      <trkpt lat="43.42328" lon="6.14309">
        <ele>284.49859619141</ele>
        <time>2014-05-24T14:02:57Z</time>
      </trkpt>
      <trkpt lat="43.42335" lon="6.1433">
        <ele>284.87847900391</ele>
        <time>2014-05-24T14:03:03Z</time>
      </trkpt>
      <trkpt lat="43.42338" lon="6.1434">
        <ele>285.22351074219</ele>
        <time>2014-05-24T14:03:06Z</time>
      </trkpt>
      <trkpt lat="43.42339" lon="6.14346">
        <ele>285.43811035156</ele>
        <time>2014-05-24T14:03:08Z</time>
      </trkpt>
      <trkpt lat="43.4234" lon="6.1435">
        <ele>285.5823059082</ele>
        <time>2014-05-24T14:03:09Z</time>
      </trkpt>
      <trkpt lat="43.42347" lon="6.14368">
        <ele>286.26550292969</ele>
        <time>2014-05-24T14:03:15Z</time>
      </trkpt>
      <trkpt lat="43.42361" lon="6.144">
        <ele>287.00592041016</ele>
        <time>2014-05-24T14:03:25Z</time>
      </trkpt>
      <trkpt lat="43.42363" lon="6.14405">
        <ele>286.93286132812</ele>
        <time>2014-05-24T14:03:27Z</time>
      </trkpt>
      <trkpt lat="43.4237" lon="6.14422">
        <ele>286.88064575195</ele>
        <time>2014-05-24T14:03:33Z</time>
      </trkpt>
      <trkpt lat="43.42375" lon="6.14432">
        <ele>287.04373168945</ele>
        <time>2014-05-24T14:03:36Z</time>
      </trkpt>
      <trkpt lat="43.42376" lon="6.14434">
        <ele>287.09350585938</ele>
        <time>2014-05-24T14:03:37Z</time>
      </trkpt>
      <trkpt lat="43.42377" lon="6.14436">
        <ele>287.11755371094</ele>
        <time>2014-05-24T14:03:38Z</time>
      </trkpt>
      <trkpt lat="43.42377" lon="6.14437">
        <ele>287.13815307617</ele>
        <time>2014-05-24T14:03:39Z</time>
      </trkpt>
      <trkpt lat="43.42378" lon="6.14438">
        <ele>287.16561889648</ele>
        <time>2014-05-24T14:03:40Z</time>
      </trkpt>
      <trkpt lat="43.42382" lon="6.14444">
        <ele>287.22396850586</ele>
        <time>2014-05-24T14:03:45Z</time>
      </trkpt>
      <trkpt lat="43.42383" lon="6.14445">
        <ele>287.20852661133</ele>
        <time>2014-05-24T14:03:46Z</time>
      </trkpt>
      <trkpt lat="43.4239" lon="6.14441">
        <ele>286.88507080078</ele>
        <time>2014-05-24T14:03:50Z</time>
      </trkpt>
      <trkpt lat="43.42397" lon="6.14441">
        <ele>286.86447143555</ele>
        <time>2014-05-24T14:03:54Z</time>
      </trkpt>
      <trkpt lat="43.42406" lon="6.1445">
        <ele>287.19061279297</ele>
        <time>2014-05-24T14:03:57Z</time>
      </trkpt>
      <trkpt lat="43.4242" lon="6.14469">
        <ele>288.01635742188</ele>
        <time>2014-05-24T14:04:01Z</time>
      </trkpt>
      <trkpt lat="43.42425" lon="6.14472">
        <ele>288.28930664062</ele>
        <time>2014-05-24T14:04:02Z</time>
      </trkpt>
      <trkpt lat="43.4243" lon="6.14471">
        <ele>288.45065307617</ele>
        <time>2014-05-24T14:04:03Z</time>
      </trkpt>
      <trkpt lat="43.42435" lon="6.1447">
        <ele>288.56567382812</ele>
        <time>2014-05-24T14:04:04Z</time>
      </trkpt>
      <trkpt lat="43.4244" lon="6.14467">
        <ele>288.67895507812</ele>
        <time>2014-05-24T14:04:05Z</time>
      </trkpt>
      <trkpt lat="43.42446" lon="6.14465">
        <ele>288.86175537109</ele>
        <time>2014-05-24T14:04:06Z</time>
      </trkpt>
      <trkpt lat="43.42457" lon="6.1446">
        <ele>289.45397949219</ele>
        <time>2014-05-24T14:04:08Z</time>
      </trkpt>
      <trkpt lat="43.42462" lon="6.14456">
        <ele>289.64797973633</ele>
        <time>2014-05-24T14:04:09Z</time>
      </trkpt>
      <trkpt lat="43.42466" lon="6.14437">
        <ele>289.07223510742</ele>
        <time>2014-05-24T14:04:12Z</time>
      </trkpt>
      <trkpt lat="43.42463" lon="6.14425">
        <ele>288.14636230469</ele>
        <time>2014-05-24T14:04:14Z</time>
      </trkpt>
      <trkpt lat="43.4246" lon="6.14411">
        <ele>287.36749267578</ele>
        <time>2014-05-24T14:04:16Z</time>
      </trkpt>
      <trkpt lat="43.42461" lon="6.14383">
        <ele>286.35467529297</ele>
        <time>2014-05-24T14:04:20Z</time>
      </trkpt>
      <trkpt lat="43.42459" lon="6.14354">
        <ele>284.99798583984</ele>
        <time>2014-05-24T14:04:25Z</time>
      </trkpt>
      <trkpt lat="43.42459" lon="6.14341">
        <ele>284.09503173828</ele>
        <time>2014-05-24T14:04:27Z</time>
      </trkpt>
      <trkpt lat="43.42461" lon="6.1433">
        <ele>283.46469116211</ele>
        <time>2014-05-24T14:04:29Z</time>
      </trkpt>
      <trkpt lat="43.42462" lon="6.14326">
        <ele>283.36682128906</ele>
        <time>2014-05-24T14:04:30Z</time>
      </trkpt>
      <trkpt lat="43.42472" lon="6.14306">
        <ele>283.03887939453</ele>
        <time>2014-05-24T14:04:35Z</time>
      </trkpt>
      <trkpt lat="43.42478" lon="6.14302">
        <ele>283.29119873047</ele>
        <time>2014-05-24T14:04:37Z</time>
      </trkpt>
      <trkpt lat="43.42488" lon="6.14304">
        <ele>284.12719726562</ele>
        <time>2014-05-24T14:04:41Z</time>
      </trkpt>
      <trkpt lat="43.425" lon="6.14309">
        <ele>285.07992553711</ele>
        <time>2014-05-24T14:04:46Z</time>
      </trkpt>
      <trkpt lat="43.42502" lon="6.14309">
        <ele>285.30718994141</ele>
        <time>2014-05-24T14:04:47Z</time>
      </trkpt>
      <trkpt lat="43.42508" lon="6.1431">
        <ele>286.04876708984</ele>
        <time>2014-05-24T14:04:50Z</time>
      </trkpt>
      <trkpt lat="43.42513" lon="6.14312">
        <ele>286.68048095703</ele>
        <time>2014-05-24T14:04:52Z</time>
      </trkpt>
      <trkpt lat="43.4252" lon="6.14319">
        <ele>287.65551757812</ele>
        <time>2014-05-24T14:04:55Z</time>
      </trkpt>
      <trkpt lat="43.42522" lon="6.14322">
        <ele>288.02975463867</ele>
        <time>2014-05-24T14:04:56Z</time>
      </trkpt>
      <trkpt lat="43.42525" lon="6.14325">
        <ele>288.42626953125</ele>
        <time>2014-05-24T14:04:57Z</time>
      </trkpt>
      <trkpt lat="43.4253" lon="6.14327">
        <ele>289.36303710938</ele>
        <time>2014-05-24T14:04:59Z</time>
      </trkpt>
      <trkpt lat="43.42537" lon="6.14326">
        <ele>290.80133056641</ele>
        <time>2014-05-24T14:05:01Z</time>
      </trkpt>
      <trkpt lat="43.42551" lon="6.14315">
        <ele>293.9182434082</ele>
        <time>2014-05-24T14:05:05Z</time>
      </trkpt>
      <trkpt lat="43.42555" lon="6.14312">
        <ele>294.82949829102</ele>
        <time>2014-05-24T14:05:06Z</time>
      </trkpt>
      <trkpt lat="43.42566" lon="6.14297">
        <ele>293.92205810547</ele>
        <time>2014-05-24T14:05:10Z</time>
      </trkpt>
      <trkpt lat="43.42567" lon="6.14292">
        <ele>293.71606445312</ele>
        <time>2014-05-24T14:05:11Z</time>
      </trkpt>
      <trkpt lat="43.42569" lon="6.14274">
        <ele>293.42303466797</ele>
        <time>2014-05-24T14:05:15Z</time>
      </trkpt>
      <trkpt lat="43.4257" lon="6.14254">
        <ele>292.58361816406</ele>
        <time>2014-05-24T14:05:21Z</time>
      </trkpt>
      <trkpt lat="43.42575" lon="6.14235">
        <ele>292.30953979492</ele>
        <time>2014-05-24T14:05:26Z</time>
      </trkpt>
      <trkpt lat="43.42579" lon="6.14217">
        <ele>292.34753417969</ele>
        <time>2014-05-24T14:05:30Z</time>
      </trkpt>
      <trkpt lat="43.42579" lon="6.14216">
        <ele>292.34753417969</ele>
        <time>2014-05-24T14:05:31Z</time>
      </trkpt>
      <trkpt lat="43.4258" lon="6.14215">
        <ele>292.26513671875</ele>
        <time>2014-05-24T14:05:40Z</time>
      </trkpt>
      <trkpt lat="43.4258" lon="6.14215">
        <ele>292.26513671875</ele>
        <time>2014-05-24T14:06:01Z</time>
      </trkpt>
      <trkpt lat="43.4258" lon="6.14215">
        <ele>292.26513671875</ele>
        <time>2014-05-24T14:06:12Z</time>
      </trkpt>
      <trkpt lat="43.4258" lon="6.14216">
        <ele>292.26513671875</ele>
        <time>2014-05-24T14:06:19Z</time>
      </trkpt>
      <trkpt lat="43.4258" lon="6.14216">
        <ele>292.26513671875</ele>
        <time>2014-05-24T14:06:34Z</time>
      </trkpt>
      <trkpt lat="43.4258" lon="6.14216">
        <ele>292.26513671875</ele>
        <time>2014-05-24T14:06:49Z</time>
      </trkpt>
      <trkpt lat="43.4258" lon="6.14215">
        <ele>292.26513671875</ele>
        <time>2014-05-24T14:06:54Z</time>
      </trkpt>
      <trkpt lat="43.4258" lon="6.14215">
        <ele>292.26513671875</ele>
        <time>2014-05-24T14:07:02Z</time>
      </trkpt>
      <trkpt lat="43.4258" lon="6.14215">
        <ele>292.26513671875</ele>
        <time>2014-05-24T14:07:16Z</time>
      </trkpt>
      <trkpt lat="43.4258" lon="6.14214">
        <ele>292.23767089844</ele>
        <time>2014-05-24T14:07:18Z</time>
      </trkpt>
      <trkpt lat="43.42581" lon="6.14214">
        <ele>292.1552734375</ele>
        <time>2014-05-24T14:07:19Z</time>
      </trkpt>
      <trkpt lat="43.42582" lon="6.14214">
        <ele>292.10034179688</ele>
        <time>2014-05-24T14:07:20Z</time>
      </trkpt>
      <trkpt lat="43.42583" lon="6.14214">
        <ele>292.01794433594</ele>
        <time>2014-05-24T14:07:21Z</time>
      </trkpt>
      <trkpt lat="43.4259" lon="6.14212">
        <ele>289.31362915039</ele>
        <time>2014-05-24T14:07:25Z</time>
      </trkpt>
      <trkpt lat="43.42592" lon="6.14212">
        <ele>288.53506469727</ele>
        <time>2014-05-24T14:07:26Z</time>
      </trkpt>
      <trkpt lat="43.42594" lon="6.14212">
        <ele>287.61145019531</ele>
        <time>2014-05-24T14:07:27Z</time>
      </trkpt>
      <trkpt lat="43.42596" lon="6.14212">
        <ele>286.85308837891</ele>
        <time>2014-05-24T14:07:28Z</time>
      </trkpt>
      <trkpt lat="43.42598" lon="6.14211">
        <ele>286.2744140625</ele>
        <time>2014-05-24T14:07:29Z</time>
      </trkpt>
      <trkpt lat="43.42601" lon="6.14208">
        <ele>285.02139282227</ele>
        <time>2014-05-24T14:07:31Z</time>
      </trkpt>
      <trkpt lat="43.42603" lon="6.14206">
        <ele>284.34356689453</ele>
        <time>2014-05-24T14:07:32Z</time>
      </trkpt>
      <trkpt lat="43.42604" lon="6.14206">
        <ele>283.78887939453</ele>
        <time>2014-05-24T14:07:33Z</time>
      </trkpt>
      <trkpt lat="43.42606" lon="6.14205">
        <ele>283.08120727539</ele>
        <time>2014-05-24T14:07:34Z</time>
      </trkpt>
      <trkpt lat="43.42608" lon="6.14205">
        <ele>282.49612426758</ele>
        <time>2014-05-24T14:07:35Z</time>
      </trkpt>
      <trkpt lat="43.42611" lon="6.14205">
        <ele>281.30429077148</ele>
        <time>2014-05-24T14:07:37Z</time>
      </trkpt>
      <trkpt lat="43.42613" lon="6.14205">
        <ele>280.70974731445</ele>
        <time>2014-05-24T14:07:38Z</time>
      </trkpt>
      <trkpt lat="43.42617" lon="6.14202">
        <ele>279.88821411133</ele>
        <time>2014-05-24T14:07:40Z</time>
      </trkpt>
      <trkpt lat="43.42618" lon="6.14202">
        <ele>279.62698364258</ele>
        <time>2014-05-24T14:07:41Z</time>
      </trkpt>
      <trkpt lat="43.42619" lon="6.14201">
        <ele>279.56619262695</ele>
        <time>2014-05-24T14:07:42Z</time>
      </trkpt>
      <trkpt lat="43.42621" lon="6.142">
        <ele>279.03778076172</ele>
        <time>2014-05-24T14:07:51Z</time>
      </trkpt>
      <trkpt lat="43.42626" lon="6.14197">
        <ele>278.08380126953</ele>
        <time>2014-05-24T14:07:55Z</time>
      </trkpt>
      <trkpt lat="43.42633" lon="6.14192">
        <ele>276.77786254883</ele>
        <time>2014-05-24T14:07:58Z</time>
      </trkpt>
      <trkpt lat="43.42635" lon="6.14192">
        <ele>276.42956542969</ele>
        <time>2014-05-24T14:07:59Z</time>
      </trkpt>
      <trkpt lat="43.42637" lon="6.1419">
        <ele>276.28070068359</ele>
        <time>2014-05-24T14:08:02Z</time>
      </trkpt>
      <trkpt lat="43.42638" lon="6.14189">
        <ele>276.13507080078</ele>
        <time>2014-05-24T14:08:03Z</time>
      </trkpt>
      <trkpt lat="43.42642" lon="6.14186">
        <ele>275.58169555664</ele>
        <time>2014-05-24T14:08:05Z</time>
      </trkpt>
      <trkpt lat="43.42648" lon="6.14183">
        <ele>274.26522827148</ele>
        <time>2014-05-24T14:08:08Z</time>
      </trkpt>
      <trkpt lat="43.4265" lon="6.14182">
        <ele>273.8410949707</ele>
        <time>2014-05-24T14:08:09Z</time>
      </trkpt>
      <trkpt lat="43.42653" lon="6.1418">
        <ele>273.45379638672</ele>
        <time>2014-05-24T14:08:10Z</time>
      </trkpt>
      <trkpt lat="43.42654" lon="6.14178">
        <ele>273.15036010742</ele>
        <time>2014-05-24T14:08:11Z</time>
      </trkpt>
      <trkpt lat="43.42659" lon="6.14175">
        <ele>272.21179199219</ele>
        <time>2014-05-24T14:08:13Z</time>
      </trkpt>
      <trkpt lat="43.42664" lon="6.14173">
        <ele>270.80508422852</ele>
        <time>2014-05-24T14:08:15Z</time>
      </trkpt>
      <trkpt lat="43.42671" lon="6.1417">
        <ele>269.85595703125</ele>
        <time>2014-05-24T14:08:17Z</time>
      </trkpt>
      <trkpt lat="43.42674" lon="6.14169">
        <ele>269.54010009766</ele>
        <time>2014-05-24T14:08:18Z</time>
      </trkpt>
      <trkpt lat="43.42679" lon="6.14168">
        <ele>269.05258178711</ele>
        <time>2014-05-24T14:08:19Z</time>
      </trkpt>
      <trkpt lat="43.42683" lon="6.14166">
        <ele>268.66256713867</ele>
        <time>2014-05-24T14:08:20Z</time>
      </trkpt>
      <trkpt lat="43.42686" lon="6.14165">
        <ele>268.28500366211</ele>
        <time>2014-05-24T14:08:21Z</time>
      </trkpt>
      <trkpt lat="43.42691" lon="6.14164">
        <ele>267.6780090332</ele>
        <time>2014-05-24T14:08:22Z</time>
      </trkpt>
      <trkpt lat="43.42699" lon="6.14163">
        <ele>266.56509399414</ele>
        <time>2014-05-24T14:08:24Z</time>
      </trkpt>
      <trkpt lat="43.42703" lon="6.14164">
        <ele>265.97113037109</ele>
        <time>2014-05-24T14:08:25Z</time>
      </trkpt>
      <trkpt lat="43.42707" lon="6.14166">
        <ele>265.17807006836</ele>
        <time>2014-05-24T14:08:26Z</time>
      </trkpt>
      <trkpt lat="43.42713" lon="6.14165">
        <ele>264.38842773438</ele>
        <time>2014-05-24T14:08:27Z</time>
      </trkpt>
      <trkpt lat="43.42723" lon="6.14161">
        <ele>263.40121459961</ele>
        <time>2014-05-24T14:08:29Z</time>
      </trkpt>
      <trkpt lat="43.42735" lon="6.14162">
        <ele>263.27972412109</ele>
        <time>2014-05-24T14:08:32Z</time>
      </trkpt>
      <trkpt lat="43.42739" lon="6.14164">
        <ele>263.10989379883</ele>
        <time>2014-05-24T14:08:33Z</time>
      </trkpt>
      <trkpt lat="43.42743" lon="6.14167">
        <ele>262.96704101562</ele>
        <time>2014-05-24T14:08:34Z</time>
      </trkpt>
      <trkpt lat="43.42747" lon="6.14171">
        <ele>262.63717651367</ele>
        <time>2014-05-24T14:08:35Z</time>
      </trkpt>
      <trkpt lat="43.42751" lon="6.14176">
        <ele>262.44073486328</ele>
        <time>2014-05-24T14:08:36Z</time>
      </trkpt>
      <trkpt lat="43.42756" lon="6.14181">
        <ele>262.46859741211</ele>
        <time>2014-05-24T14:08:37Z</time>
      </trkpt>
      <trkpt lat="43.42764" lon="6.1419">
        <ele>262.40893554688</ele>
        <time>2014-05-24T14:08:39Z</time>
      </trkpt>
      <trkpt lat="43.42774" lon="6.14197">
        <ele>262.27365112305</ele>
        <time>2014-05-24T14:08:41Z</time>
      </trkpt>
      <trkpt lat="43.42779" lon="6.14199">
        <ele>262.33929443359</ele>
        <time>2014-05-24T14:08:42Z</time>
      </trkpt>
      <trkpt lat="43.42784" lon="6.14199">
        <ele>262.80285644531</ele>
        <time>2014-05-24T14:08:43Z</time>
      </trkpt>
      <trkpt lat="43.42788" lon="6.14197">
        <ele>263.73239135742</ele>
        <time>2014-05-24T14:08:44Z</time>
      </trkpt>
      <trkpt lat="43.42793" lon="6.14195">
        <ele>264.4494934082</ele>
        <time>2014-05-24T14:08:45Z</time>
      </trkpt>
      <trkpt lat="43.42801" lon="6.14195">
        <ele>265.38818359375</ele>
        <time>2014-05-24T14:08:47Z</time>
      </trkpt>
      <trkpt lat="43.42804" lon="6.14195">
        <ele>265.69512939453</ele>
        <time>2014-05-24T14:08:48Z</time>
      </trkpt>
      <trkpt lat="43.42806" lon="6.14195">
        <ele>265.83395385742</ele>
        <time>2014-05-24T14:08:49Z</time>
      </trkpt>
      <trkpt lat="43.4281" lon="6.14196">
        <ele>265.41223144531</ele>
        <time>2014-05-24T14:08:51Z</time>
      </trkpt>
      <trkpt lat="43.42813" lon="6.14195">
        <ele>265.32791137695</ele>
        <time>2014-05-24T14:08:53Z</time>
      </trkpt>
      <trkpt lat="43.42816" lon="6.14194">
        <ele>265.26495361328</ele>
        <time>2014-05-24T14:08:54Z</time>
      </trkpt>
      <trkpt lat="43.42818" lon="6.14193">
        <ele>265.42462158203</ele>
        <time>2014-05-24T14:08:55Z</time>
      </trkpt>
      <trkpt lat="43.4282" lon="6.14192">
        <ele>265.67694091797</ele>
        <time>2014-05-24T14:08:56Z</time>
      </trkpt>
      <trkpt lat="43.42823" lon="6.14191">
        <ele>265.79025268555</ele>
        <time>2014-05-24T14:08:57Z</time>
      </trkpt>
      <trkpt lat="43.42825" lon="6.1419">
        <ele>266.10437011719</ele>
        <time>2014-05-24T14:08:58Z</time>
      </trkpt>
      <trkpt lat="43.42827" lon="6.1419">
        <ele>266.03228759766</ele>
        <time>2014-05-24T14:08:59Z</time>
      </trkpt>
      <trkpt lat="43.42832" lon="6.14188">
        <ele>266.08892822266</ele>
        <time>2014-05-24T14:09:01Z</time>
      </trkpt>
      <trkpt lat="43.42838" lon="6.14189">
        <ele>264.43179321289</ele>
        <time>2014-05-24T14:09:03Z</time>
      </trkpt>
      <trkpt lat="43.42843" lon="6.1419">
        <ele>262.59844970703</ele>
        <time>2014-05-24T14:09:05Z</time>
      </trkpt>
      <trkpt lat="43.42846" lon="6.14189">
        <ele>262.06115722656</ele>
        <time>2014-05-24T14:09:06Z</time>
      </trkpt>
      <trkpt lat="43.42849" lon="6.14188">
        <ele>261.46032714844</ele>
        <time>2014-05-24T14:09:07Z</time>
      </trkpt>
      <trkpt lat="43.42853" lon="6.14187">
        <ele>260.8251953125</ele>
        <time>2014-05-24T14:09:08Z</time>
      </trkpt>
      <trkpt lat="43.42861" lon="6.14185">
        <ele>259.06164550781</ele>
        <time>2014-05-24T14:09:10Z</time>
      </trkpt>
      <trkpt lat="43.42865" lon="6.14183">
        <ele>257.79840087891</ele>
        <time>2014-05-24T14:09:11Z</time>
      </trkpt>
      <trkpt lat="43.42879" lon="6.14175">
        <ele>253.7149810791</ele>
        <time>2014-05-24T14:09:14Z</time>
      </trkpt>
      <trkpt lat="43.42883" lon="6.14173">
        <ele>252.12045288086</ele>
        <time>2014-05-24T14:09:15Z</time>
      </trkpt>
      <trkpt lat="43.42887" lon="6.14171">
        <ele>250.5989074707</ele>
        <time>2014-05-24T14:09:16Z</time>
      </trkpt>
      <trkpt lat="43.42891" lon="6.14169">
        <ele>249.83905029297</ele>
        <time>2014-05-24T14:09:17Z</time>
      </trkpt>
      <trkpt lat="43.42901" lon="6.14165">
        <ele>247.17936706543</ele>
        <time>2014-05-24T14:09:20Z</time>
      </trkpt>
      <trkpt lat="43.42909" lon="6.14164">
        <ele>244.72804260254</ele>
        <time>2014-05-24T14:09:22Z</time>
      </trkpt>
      <trkpt lat="43.42914" lon="6.14162">
        <ele>243.31698608398</ele>
        <time>2014-05-24T14:09:23Z</time>
      </trkpt>
      <trkpt lat="43.42923" lon="6.14157">
        <ele>240.82400512695</ele>
        <time>2014-05-24T14:09:25Z</time>
      </trkpt>
      <trkpt lat="43.42929" lon="6.14154">
        <ele>239.07305908203</ele>
        <time>2014-05-24T14:09:26Z</time>
      </trkpt>
      <trkpt lat="43.42939" lon="6.14145">
        <ele>236.11877441406</ele>
        <time>2014-05-24T14:09:28Z</time>
      </trkpt>
      <trkpt lat="43.42944" lon="6.14141">
        <ele>234.939453125</ele>
        <time>2014-05-24T14:09:29Z</time>
      </trkpt>
      <trkpt lat="43.42949" lon="6.14137">
        <ele>233.43476867676</ele>
        <time>2014-05-24T14:09:30Z</time>
      </trkpt>
      <trkpt lat="43.42953" lon="6.14134">
        <ele>231.98239135742</ele>
        <time>2014-05-24T14:09:31Z</time>
      </trkpt>
      <trkpt lat="43.42958" lon="6.14131">
        <ele>230.56015014648</ele>
        <time>2014-05-24T14:09:32Z</time>
      </trkpt>
      <trkpt lat="43.42962" lon="6.1413">
        <ele>228.74543762207</ele>
        <time>2014-05-24T14:09:33Z</time>
      </trkpt>
      <trkpt lat="43.42967" lon="6.14129">
        <ele>226.79248046875</ele>
        <time>2014-05-24T14:09:34Z</time>
      </trkpt>
      <trkpt lat="43.42978" lon="6.14121">
        <ele>223.78230285644</ele>
        <time>2014-05-24T14:09:37Z</time>
      </trkpt>
      <trkpt lat="43.42981" lon="6.14109">
        <ele>223.78988647461</ele>
        <time>2014-05-24T14:09:40Z</time>
      </trkpt>
      <trkpt lat="43.42982" lon="6.14106">
        <ele>223.63478088379</ele>
        <time>2014-05-24T14:09:41Z</time>
      </trkpt>
      <trkpt lat="43.42983" lon="6.14105">
        <ele>223.41436767578</ele>
        <time>2014-05-24T14:09:42Z</time>
      </trkpt>
      <trkpt lat="43.42985" lon="6.14103">
        <ele>222.86711120606</ele>
        <time>2014-05-24T14:09:43Z</time>
      </trkpt>
      <trkpt lat="43.42986" lon="6.14101">
        <ele>222.59686279297</ele>
        <time>2014-05-24T14:09:44Z</time>
      </trkpt>
      <trkpt lat="43.42989" lon="6.141">
        <ele>221.56278991699</ele>
        <time>2014-05-24T14:09:46Z</time>
      </trkpt>
      <trkpt lat="43.42991" lon="6.14099">
        <ele>221.01727294922</ele>
        <time>2014-05-24T14:09:47Z</time>
      </trkpt>
      <trkpt lat="43.42994" lon="6.14097">
        <ele>220.23414611816</ele>
        <time>2014-05-24T14:09:49Z</time>
      </trkpt>
      <trkpt lat="43.42996" lon="6.14097">
        <ele>219.65875244141</ele>
        <time>2014-05-24T14:09:50Z</time>
      </trkpt>
      <trkpt lat="43.43001" lon="6.14098">
        <ele>217.9705657959</ele>
        <time>2014-05-24T14:09:55Z</time>
      </trkpt>
      <trkpt lat="43.43002" lon="6.14099">
        <ele>217.44624328613</ele>
        <time>2014-05-24T14:09:56Z</time>
      </trkpt>
      <trkpt lat="43.43003" lon="6.14099">
        <ele>217.08950805664</ele>
        <time>2014-05-24T14:09:57Z</time>
      </trkpt>
      <trkpt lat="43.43006" lon="6.14101">
        <ele>215.84103393555</ele>
        <time>2014-05-24T14:09:59Z</time>
      </trkpt>
      <trkpt lat="43.43009" lon="6.14103">
        <ele>214.53086853027</ele>
        <time>2014-05-24T14:10:02Z</time>
      </trkpt>
      <trkpt lat="43.43009" lon="6.14103">
        <ele>214.38540649414</ele>
        <time>2014-05-24T14:10:03Z</time>
      </trkpt>
      <trkpt lat="43.43009" lon="6.14103">
        <ele>214.38540649414</ele>
        <time>2014-05-24T14:10:06Z</time>
      </trkpt>
      <trkpt lat="43.43013" lon="6.14106">
        <ele>212.57560729981</ele>
        <time>2014-05-24T14:10:09Z</time>
      </trkpt>
      <trkpt lat="43.43015" lon="6.14105">
        <ele>212.08445739746</ele>
        <time>2014-05-24T14:10:10Z</time>
      </trkpt>
      <trkpt lat="43.43017" lon="6.141">
        <ele>211.54548645019</ele>
        <time>2014-05-24T14:10:12Z</time>
      </trkpt>
      <trkpt lat="43.43019" lon="6.14092">
        <ele>211.37280273438</ele>
        <time>2014-05-24T14:10:15Z</time>
      </trkpt>
      <trkpt lat="43.43019" lon="6.14091">
        <ele>211.31178283691</ele>
        <time>2014-05-24T14:10:16Z</time>
      </trkpt>
      <trkpt lat="43.43021" lon="6.14087">
        <ele>210.70841979981</ele>
        <time>2014-05-24T14:10:18Z</time>
      </trkpt>
      <trkpt lat="43.43025" lon="6.14089">
        <ele>209.0126953125</ele>
        <time>2014-05-24T14:10:20Z</time>
      </trkpt>
      <trkpt lat="43.4303" lon="6.14092">
        <ele>206.90655517578</ele>
        <time>2014-05-24T14:10:23Z</time>
      </trkpt>
      <trkpt lat="43.43041" lon="6.14104">
        <ele>203.01327514648</ele>
        <time>2014-05-24T14:10:30Z</time>
      </trkpt>
      <trkpt lat="43.43042" lon="6.14106">
        <ele>202.58241271973</ele>
        <time>2014-05-24T14:10:31Z</time>
      </trkpt>
      <trkpt lat="43.43045" lon="6.1411">
        <ele>201.45288085938</ele>
        <time>2014-05-24T14:10:34Z</time>
      </trkpt>
      <trkpt lat="43.43049" lon="6.14113">
        <ele>200.01376342773</ele>
        <time>2014-05-24T14:10:36Z</time>
      </trkpt>
      <trkpt lat="43.43051" lon="6.14112">
        <ele>199.53491210938</ele>
        <time>2014-05-24T14:10:37Z</time>
      </trkpt>
      <trkpt lat="43.43055" lon="6.14108">
        <ele>198.18788146973</ele>
        <time>2014-05-24T14:10:40Z</time>
      </trkpt>
      <trkpt lat="43.43056" lon="6.14106">
        <ele>198.11712646484</ele>
        <time>2014-05-24T14:10:41Z</time>
      </trkpt>
      <trkpt lat="43.4306" lon="6.14092">
        <ele>198.06390380859</ele>
        <time>2014-05-24T14:10:48Z</time>
      </trkpt>
      <trkpt lat="43.43061" lon="6.14091">
        <ele>197.99353027344</ele>
        <time>2014-05-24T14:10:49Z</time>
      </trkpt>
      <trkpt lat="43.43061" lon="6.14086">
        <ele>198.10166931152</ele>
        <time>2014-05-24T14:10:53Z</time>
      </trkpt>
      <trkpt lat="43.43063" lon="6.14082">
        <ele>197.98681640625</ele>
        <time>2014-05-24T14:10:55Z</time>
      </trkpt>
      <trkpt lat="43.43063" lon="6.14081">
        <ele>197.93188476562</ele>
        <time>2014-05-24T14:10:56Z</time>
      </trkpt>
      <trkpt lat="43.43064" lon="6.1408">
        <ele>197.71215820312</ele>
        <time>2014-05-24T14:11:00Z</time>
      </trkpt>
      <trkpt lat="43.43064" lon="6.1408">
        <ele>197.71215820312</ele>
        <time>2014-05-24T14:11:23Z</time>
      </trkpt>
      <trkpt lat="43.43064" lon="6.1408">
        <ele>197.71215820312</ele>
        <time>2014-05-24T14:11:36Z</time>
      </trkpt>
      <trkpt lat="43.43064" lon="6.1408">
        <ele>197.71215820312</ele>
        <time>2014-05-24T14:11:41Z</time>
      </trkpt>
      <trkpt lat="43.43064" lon="6.1408">
        <ele>197.71215820312</ele>
        <time>2014-05-24T14:11:43Z</time>
      </trkpt>
      <trkpt lat="43.43065" lon="6.14079">
        <ele>197.60229492188</ele>
        <time>2014-05-24T14:11:46Z</time>
      </trkpt>
      <trkpt lat="43.43066" lon="6.14079">
        <ele>197.4375</ele>
        <time>2014-05-24T14:11:48Z</time>
      </trkpt>
      <trkpt lat="43.43076" lon="6.14086">
        <ele>196.01254272461</ele>
        <time>2014-05-24T14:11:52Z</time>
      </trkpt>
      <trkpt lat="43.4308" lon="6.14087">
        <ele>195.3258972168</ele>
        <time>2014-05-24T14:11:54Z</time>
      </trkpt>
      <trkpt lat="43.43084" lon="6.14086">
        <ele>194.68212890625</ele>
        <time>2014-05-24T14:11:56Z</time>
      </trkpt>
      <trkpt lat="43.43089" lon="6.14085">
        <ele>193.72598266602</ele>
        <time>2014-05-24T14:11:58Z</time>
      </trkpt>
      <trkpt lat="43.43094" lon="6.14088">
        <ele>192.57069396973</ele>
        <time>2014-05-24T14:12:00Z</time>
      </trkpt>
      <trkpt lat="43.43099" lon="6.14093">
        <ele>191.29010009766</ele>
        <time>2014-05-24T14:12:02Z</time>
      </trkpt>
      <trkpt lat="43.431" lon="6.14095">
        <ele>191.05834960938</ele>
        <time>2014-05-24T14:12:03Z</time>
      </trkpt>
      <trkpt lat="43.431" lon="6.14098">
        <ele>190.80773925781</ele>
        <time>2014-05-24T14:12:04Z</time>
      </trkpt>
      <trkpt lat="43.43102" lon="6.14101">
        <ele>190.44895935059</ele>
        <time>2014-05-24T14:12:05Z</time>
      </trkpt>
      <trkpt lat="43.43103" lon="6.14104">
        <ele>190.06787109375</ele>
        <time>2014-05-24T14:12:06Z</time>
      </trkpt>
      <trkpt lat="43.43105" lon="6.14112">
        <ele>189.20613098144</ele>
        <time>2014-05-24T14:12:08Z</time>
      </trkpt>
      <trkpt lat="43.43106" lon="6.14117">
        <ele>188.78555297852</ele>
        <time>2014-05-24T14:12:09Z</time>
      </trkpt>
      <trkpt lat="43.43108" lon="6.14122">
        <ele>188.27229309082</ele>
        <time>2014-05-24T14:12:10Z</time>
      </trkpt>
      <trkpt lat="43.43109" lon="6.14127">
        <ele>187.93927001953</ele>
        <time>2014-05-24T14:12:11Z</time>
      </trkpt>
      <trkpt lat="43.43114" lon="6.14136">
        <ele>186.83792114258</ele>
        <time>2014-05-24T14:12:13Z</time>
      </trkpt>
      <trkpt lat="43.43116" lon="6.14139">
        <ele>186.41717529297</ele>
        <time>2014-05-24T14:12:14Z</time>
      </trkpt>
      <trkpt lat="43.43119" lon="6.14142">
        <ele>186.11015319824</ele>
        <time>2014-05-24T14:12:15Z</time>
      </trkpt>
      <trkpt lat="43.4312" lon="6.14143">
        <ele>185.91973876953</ele>
        <time>2014-05-24T14:12:16Z</time>
      </trkpt>
      <trkpt lat="43.43121" lon="6.14143">
        <ele>185.83030700684</ele>
        <time>2014-05-24T14:12:17Z</time>
      </trkpt>
      <trkpt lat="43.43121" lon="6.14144">
        <ele>185.82588195801</ele>
        <time>2014-05-24T14:12:18Z</time>
      </trkpt>
      <trkpt lat="43.43121" lon="6.14144">
        <ele>185.82588195801</ele>
        <time>2014-05-24T14:12:29Z</time>
      </trkpt>
      <trkpt lat="43.4312" lon="6.14142">
        <ele>185.9416809082</ele>
        <time>2014-05-24T14:12:37Z</time>
      </trkpt>
      <trkpt lat="43.4312" lon="6.14142">
        <ele>185.9416809082</ele>
        <time>2014-05-24T14:12:50Z</time>
      </trkpt>
      <trkpt lat="43.4312" lon="6.14142">
        <ele>185.9416809082</ele>
        <time>2014-05-24T14:13:06Z</time>
      </trkpt>
      <trkpt lat="43.43121" lon="6.14143">
        <ele>185.84582519531</ele>
        <time>2014-05-24T14:13:12Z</time>
      </trkpt>
      <trkpt lat="43.43121" lon="6.14143">
        <ele>185.84582519531</ele>
        <time>2014-05-24T14:13:37Z</time>
      </trkpt>
      <trkpt lat="43.43121" lon="6.14143">
        <ele>185.80004882812</ele>
        <time>2014-05-24T14:14:32Z</time>
      </trkpt>
      <trkpt lat="43.43121" lon="6.14143">
        <ele>185.80004882812</ele>
        <time>2014-05-24T14:14:59Z</time>
      </trkpt>
      <trkpt lat="43.43121" lon="6.14143">
        <ele>185.80113220215</ele>
        <time>2014-05-24T14:15:11Z</time>
      </trkpt>
      <trkpt lat="43.43121" lon="6.14143">
        <ele>185.80113220215</ele>
        <time>2014-05-24T14:15:24Z</time>
      </trkpt>
      <trkpt lat="43.43121" lon="6.14143">
        <ele>185.79138183594</ele>
        <time>2014-05-24T14:15:51Z</time>
      </trkpt>
      <trkpt lat="43.43121" lon="6.14143">
        <ele>185.79138183594</ele>
        <time>2014-05-24T14:16:16Z</time>
      </trkpt>
      <trkpt lat="43.43121" lon="6.14143">
        <ele>185.79138183594</ele>
        <time>2014-05-24T14:16:27Z</time>
      </trkpt>
      <trkpt lat="43.43121" lon="6.14144">
        <ele>185.82034301758</ele>
        <time>2014-05-24T14:16:35Z</time>
      </trkpt>
      <trkpt lat="43.43121" lon="6.14144">
        <ele>185.82034301758</ele>
        <time>2014-05-24T14:16:54Z</time>
      </trkpt>
      <trkpt lat="43.43121" lon="6.14144">
        <ele>185.82034301758</ele>
        <time>2014-05-24T14:17:05Z</time>
      </trkpt>
      <trkpt lat="43.43121" lon="6.14143">
        <ele>185.87150573731</ele>
        <time>2014-05-24T14:17:12Z</time>
      </trkpt>
      <trkpt lat="43.43121" lon="6.14143">
        <ele>185.87150573731</ele>
        <time>2014-05-24T14:17:37Z</time>
      </trkpt>
      <trkpt lat="43.43121" lon="6.14143">
        <ele>185.87150573731</ele>
        <time>2014-05-24T14:17:49Z</time>
      </trkpt>
      <trkpt lat="43.43121" lon="6.14143">
        <ele>185.87490844727</ele>
        <time>2014-05-24T14:17:50Z</time>
      </trkpt>
      <trkpt lat="43.43121" lon="6.14143">
        <ele>185.87490844727</ele>
        <time>2014-05-24T14:18:15Z</time>
      </trkpt>
      <trkpt lat="43.43121" lon="6.14143">
        <ele>185.87490844727</ele>
        <time>2014-05-24T14:18:29Z</time>
      </trkpt>
      <trkpt lat="43.43121" lon="6.14144">
        <ele>185.86584472656</ele>
        <time>2014-05-24T14:18:32Z</time>
      </trkpt>
      <trkpt lat="43.43121" lon="6.14144">
        <ele>185.86584472656</ele>
        <time>2014-05-24T14:18:54Z</time>
      </trkpt>
      <trkpt lat="43.43121" lon="6.14144">
        <ele>185.86584472656</ele>
        <time>2014-05-24T14:19:07Z</time>
      </trkpt>
      <trkpt lat="43.43121" lon="6.14143">
        <ele>185.86924743652</ele>
        <time>2014-05-24T14:19:13Z</time>
      </trkpt>
      <trkpt lat="43.43121" lon="6.14143">
        <ele>185.86924743652</ele>
        <time>2014-05-24T14:19:17Z</time>
      </trkpt>
      <trkpt lat="43.43121" lon="6.14146">
        <ele>185.73713684082</ele>
        <time>2014-05-24T14:19:20Z</time>
      </trkpt>
      <trkpt lat="43.43121" lon="6.14151">
        <ele>185.6662902832</ele>
        <time>2014-05-24T14:19:22Z</time>
      </trkpt>
      <trkpt lat="43.43121" lon="6.14157">
        <ele>185.52111816406</ele>
        <time>2014-05-24T14:19:24Z</time>
      </trkpt>
      <trkpt lat="43.4312" lon="6.14166">
        <ele>185.36517333984</ele>
        <time>2014-05-24T14:19:26Z</time>
      </trkpt>
      <trkpt lat="43.43121" lon="6.14177">
        <ele>184.93499755859</ele>
        <time>2014-05-24T14:19:28Z</time>
      </trkpt>
      <trkpt lat="43.43122" lon="6.14189">
        <ele>184.37023925781</ele>
        <time>2014-05-24T14:19:32Z</time>
      </trkpt>
      <trkpt lat="43.43124" lon="6.14191">
        <ele>184.21058654785</ele>
        <time>2014-05-24T14:19:35Z</time>
      </trkpt>
      <trkpt lat="43.43124" lon="6.14191">
        <ele>184.21058654785</ele>
        <time>2014-05-24T14:19:38Z</time>
      </trkpt>
      <trkpt lat="43.43123" lon="6.14192">
        <ele>184.22088623047</ele>
        <time>2014-05-24T14:19:45Z</time>
      </trkpt>
      <trkpt lat="43.43123" lon="6.14192">
        <ele>184.22088623047</ele>
        <time>2014-05-24T14:20:06Z</time>
      </trkpt>
      <trkpt lat="43.43123" lon="6.14192">
        <ele>184.21572875977</ele>
        <time>2014-05-24T14:20:25Z</time>
      </trkpt>
      <trkpt lat="43.43123" lon="6.14192">
        <ele>184.21572875977</ele>
        <time>2014-05-24T14:20:38Z</time>
      </trkpt>
      <trkpt lat="43.43124" lon="6.14192">
        <ele>184.18139648438</ele>
        <time>2014-05-24T14:20:43Z</time>
      </trkpt>
      <trkpt lat="43.43124" lon="6.14192">
        <ele>184.18139648438</ele>
        <time>2014-05-24T14:20:49Z</time>
      </trkpt>
      <trkpt lat="43.43124" lon="6.14192">
        <ele>184.14535522461</ele>
        <time>2014-05-24T14:20:53Z</time>
      </trkpt>
      <trkpt lat="43.43124" lon="6.14192">
        <ele>184.14535522461</ele>
        <time>2014-05-24T14:21:20Z</time>
      </trkpt>
      <trkpt lat="43.43124" lon="6.14192">
        <ele>184.14192199707</ele>
        <time>2014-05-24T14:21:50Z</time>
      </trkpt>
      <trkpt lat="43.43124" lon="6.14192">
        <ele>184.14192199707</ele>
        <time>2014-05-24T14:22:12Z</time>
      </trkpt>
      <trkpt lat="43.43124" lon="6.14205">
        <ele>183.64624023438</ele>
        <time>2014-05-24T14:22:18Z</time>
      </trkpt>
      <trkpt lat="43.43123" lon="6.14231">
        <ele>183</ele>
        <time>2014-05-24T14:22:23Z</time>
      </trkpt>
      <trkpt lat="43.43121" lon="6.14242">
        <ele>183</ele>
        <time>2014-05-24T14:22:25Z</time>
      </trkpt>
      <trkpt lat="43.43117" lon="6.14258">
        <ele>183.46998596191</ele>
        <time>2014-05-24T14:22:28Z</time>
      </trkpt>
      <trkpt lat="43.43116" lon="6.14263">
        <ele>183.78411865234</ele>
        <time>2014-05-24T14:22:29Z</time>
      </trkpt>
      <trkpt lat="43.43114" lon="6.14273">
        <ele>184.4983215332</ele>
        <time>2014-05-24T14:22:31Z</time>
      </trkpt>
      <trkpt lat="43.43113" lon="6.14278">
        <ele>184.86566162109</ele>
        <time>2014-05-24T14:22:32Z</time>
      </trkpt>
      <trkpt lat="43.4311" lon="6.14287">
        <ele>185.99104309082</ele>
        <time>2014-05-24T14:22:34Z</time>
      </trkpt>
      <trkpt lat="43.43106" lon="6.14312">
        <ele>188.90773010254</ele>
        <time>2014-05-24T14:22:40Z</time>
      </trkpt>
      <trkpt lat="43.431" lon="6.14334">
        <ele>192.05790710449</ele>
        <time>2014-05-24T14:22:46Z</time>
      </trkpt>
      <trkpt lat="43.431" lon="6.14338">
        <ele>192.52755737305</ele>
        <time>2014-05-24T14:22:47Z</time>
      </trkpt>
      <trkpt lat="43.43102" lon="6.14358">
        <ele>192.82228088379</ele>
        <time>2014-05-24T14:22:51Z</time>
      </trkpt>
      <trkpt lat="43.43103" lon="6.14362">
        <ele>192.61529541016</ele>
        <time>2014-05-24T14:22:52Z</time>
      </trkpt>
      <trkpt lat="43.43108" lon="6.14386">
        <ele>190.787109375</ele>
        <time>2014-05-24T14:22:58Z</time>
      </trkpt>
      <trkpt lat="43.4312" lon="6.14425">
        <ele>188.76458740234</ele>
        <time>2014-05-24T14:23:07Z</time>
      </trkpt>
      <trkpt lat="43.43126" lon="6.14442">
        <ele>187.58869934082</ele>
        <time>2014-05-24T14:23:11Z</time>
      </trkpt>
      <trkpt lat="43.43135" lon="6.14459">
        <ele>185.35302734375</ele>
        <time>2014-05-24T14:23:16Z</time>
      </trkpt>
      <trkpt lat="43.43146" lon="6.14472">
        <ele>184.50631713867</ele>
        <time>2014-05-24T14:23:21Z</time>
      </trkpt>
      <trkpt lat="43.43158" lon="6.14494">
        <ele>184.54728698731</ele>
        <time>2014-05-24T14:23:27Z</time>
      </trkpt>
      <trkpt lat="43.43163" lon="6.14506">
        <ele>183.90000915527</ele>
        <time>2014-05-24T14:23:31Z</time>
      </trkpt>
      <trkpt lat="43.43163" lon="6.14518">
        <ele>183.96823120117</ele>
        <time>2014-05-24T14:23:35Z</time>
      </trkpt>
      <trkpt lat="43.43163" lon="6.1453">
        <ele>184.30027770996</ele>
        <time>2014-05-24T14:23:40Z</time>
      </trkpt>
      <trkpt lat="43.43162" lon="6.14537">
        <ele>184.34359741211</ele>
        <time>2014-05-24T14:23:43Z</time>
      </trkpt>
      <trkpt lat="43.43162" lon="6.14538">
        <ele>184.32797241211</ele>
        <time>2014-05-24T14:23:44Z</time>
      </trkpt>
      <trkpt lat="43.43162" lon="6.1454">
        <ele>184.30752563477</ele>
        <time>2014-05-24T14:23:45Z</time>
      </trkpt>
      <trkpt lat="43.43163" lon="6.14542">
        <ele>184.13261413574</ele>
        <time>2014-05-24T14:23:46Z</time>
      </trkpt>
      <trkpt lat="43.43164" lon="6.14549">
        <ele>183.20843505859</ele>
        <time>2014-05-24T14:23:51Z</time>
      </trkpt>
      <trkpt lat="43.43166" lon="6.14552">
        <ele>182.60632324219</ele>
        <time>2014-05-24T14:23:53Z</time>
      </trkpt>
      <trkpt lat="43.43169" lon="6.14563">
        <ele>183.6618347168</ele>
        <time>2014-05-24T14:23:59Z</time>
      </trkpt>
      <trkpt lat="43.43171" lon="6.14568">
        <ele>184.70713806152</ele>
        <time>2014-05-24T14:24:02Z</time>
      </trkpt>
      <trkpt lat="43.43174" lon="6.14573">
        <ele>185.21807861328</ele>
        <time>2014-05-24T14:24:05Z</time>
      </trkpt>
      <trkpt lat="43.43174" lon="6.14574">
        <ele>185.56072998047</ele>
        <time>2014-05-24T14:24:06Z</time>
      </trkpt>
      <trkpt lat="43.43174" lon="6.14596">
        <ele>189.05136108398</ele>
        <time>2014-05-24T14:24:19Z</time>
      </trkpt>
      <trkpt lat="43.43174" lon="6.1461">
        <ele>191.35539245606</ele>
        <time>2014-05-24T14:24:29Z</time>
      </trkpt>
      <trkpt lat="43.43174" lon="6.14612">
        <ele>191.64373779297</ele>
        <time>2014-05-24T14:24:30Z</time>
      </trkpt>
      <trkpt lat="43.43175" lon="6.14615">
        <ele>191.78091430664</ele>
        <time>2014-05-24T14:24:32Z</time>
      </trkpt>
      <trkpt lat="43.43177" lon="6.14627">
        <ele>192.52955627441</ele>
        <time>2014-05-24T14:24:40Z</time>
      </trkpt>
      <trkpt lat="43.4318" lon="6.14641">
        <ele>192.14399719238</ele>
        <time>2014-05-24T14:24:48Z</time>
      </trkpt>
      <trkpt lat="43.43183" lon="6.1465">
        <ele>192.01737976074</ele>
        <time>2014-05-24T14:24:54Z</time>
      </trkpt>
      <trkpt lat="43.43184" lon="6.14654">
        <ele>192.29010009766</ele>
        <time>2014-05-24T14:24:56Z</time>
      </trkpt>
      <trkpt lat="43.43184" lon="6.14672">
        <ele>196.50344848633</ele>
        <time>2014-05-24T14:25:07Z</time>
      </trkpt>
      <trkpt lat="43.43184" lon="6.14673">
        <ele>196.91110229492</ele>
        <time>2014-05-24T14:25:08Z</time>
      </trkpt>
      <trkpt lat="43.43184" lon="6.14675">
        <ele>197.5252532959</ele>
        <time>2014-05-24T14:25:09Z</time>
      </trkpt>
      <trkpt lat="43.43181" lon="6.14687">
        <ele>202.1854095459</ele>
        <time>2014-05-24T14:25:17Z</time>
      </trkpt>
      <trkpt lat="43.43179" lon="6.147">
        <ele>205.23681640625</ele>
        <time>2014-05-24T14:25:25Z</time>
      </trkpt>
      <trkpt lat="43.43179" lon="6.14704">
        <ele>205.43588256836</ele>
        <time>2014-05-24T14:25:27Z</time>
      </trkpt>
      <trkpt lat="43.43179" lon="6.14708">
        <ele>205.70503234863</ele>
        <time>2014-05-24T14:25:30Z</time>
      </trkpt>
      <trkpt lat="43.4318" lon="6.14717">
        <ele>205.89643859863</ele>
        <time>2014-05-24T14:25:35Z</time>
      </trkpt>
      <trkpt lat="43.43181" lon="6.14727">
        <ele>206.33943176269</ele>
        <time>2014-05-24T14:25:40Z</time>
      </trkpt>
      <trkpt lat="43.43181" lon="6.14732">
        <ele>206.95397949219</ele>
        <time>2014-05-24T14:25:42Z</time>
      </trkpt>
      <trkpt lat="43.43182" lon="6.14737">
        <ele>207.15914916992</ele>
        <time>2014-05-24T14:25:44Z</time>
      </trkpt>
      <trkpt lat="43.43184" lon="6.14755">
        <ele>208.88342285156</ele>
        <time>2014-05-24T14:25:52Z</time>
      </trkpt>
      <trkpt lat="43.43186" lon="6.14764">
        <ele>208.95208740234</ele>
        <time>2014-05-24T14:25:57Z</time>
      </trkpt>
      <trkpt lat="43.43192" lon="6.14784">
        <ele>207.9981842041</ele>
        <time>2014-05-24T14:26:05Z</time>
      </trkpt>
      <trkpt lat="43.43193" lon="6.14807">
        <ele>206.5811920166</ele>
        <time>2014-05-24T14:26:15Z</time>
      </trkpt>
      <trkpt lat="43.43192" lon="6.14813">
        <ele>207.78601074219</ele>
        <time>2014-05-24T14:26:18Z</time>
      </trkpt>
      <trkpt lat="43.43192" lon="6.14831">
        <ele>209.11672973633</ele>
        <time>2014-05-24T14:26:26Z</time>
      </trkpt>
      <trkpt lat="43.4319" lon="6.14843">
        <ele>210.06407165527</ele>
        <time>2014-05-24T14:26:31Z</time>
      </trkpt>
      <trkpt lat="43.43185" lon="6.1486">
        <ele>212.70002746582</ele>
        <time>2014-05-24T14:26:39Z</time>
      </trkpt>
      <trkpt lat="43.43176" lon="6.14882">
        <ele>216.45594787598</ele>
        <time>2014-05-24T14:26:51Z</time>
      </trkpt>
      <trkpt lat="43.43173" lon="6.1489">
        <ele>217.71170043945</ele>
        <time>2014-05-24T14:26:56Z</time>
      </trkpt>
      <trkpt lat="43.43171" lon="6.14894">
        <ele>218.07264709473</ele>
        <time>2014-05-24T14:26:58Z</time>
      </trkpt>
      <trkpt lat="43.43166" lon="6.14904">
        <ele>219.29525756836</ele>
        <time>2014-05-24T14:27:05Z</time>
      </trkpt>
      <trkpt lat="43.43159" lon="6.14912">
        <ele>221.12911987305</ele>
        <time>2014-05-24T14:27:12Z</time>
      </trkpt>
      <trkpt lat="43.43153" lon="6.14916">
        <ele>222.88555908203</ele>
        <time>2014-05-24T14:27:17Z</time>
      </trkpt>
      <trkpt lat="43.43143" lon="6.14925">
        <ele>225.6399230957</ele>
        <time>2014-05-24T14:27:27Z</time>
      </trkpt>
      <trkpt lat="43.4314" lon="6.14927">
        <ele>226.41108703613</ele>
        <time>2014-05-24T14:27:30Z</time>
      </trkpt>
      <trkpt lat="43.43136" lon="6.1493">
        <ele>227.39761352539</ele>
        <time>2014-05-24T14:27:34Z</time>
      </trkpt>
      <trkpt lat="43.43129" lon="6.14939">
        <ele>228.59410095215</ele>
        <time>2014-05-24T14:27:41Z</time>
      </trkpt>
      <trkpt lat="43.43122" lon="6.14946">
        <ele>229.64418029785</ele>
        <time>2014-05-24T14:27:45Z</time>
      </trkpt>
      <trkpt lat="43.43118" lon="6.14954">
        <ele>229.56954956055</ele>
        <time>2014-05-24T14:27:48Z</time>
      </trkpt>
      <trkpt lat="43.43114" lon="6.14967">
        <ele>228.85453796387</ele>
        <time>2014-05-24T14:27:54Z</time>
      </trkpt>
      <trkpt lat="43.43113" lon="6.14968">
        <ele>228.87213134766</ele>
        <time>2014-05-24T14:27:55Z</time>
      </trkpt>
      <trkpt lat="43.43113" lon="6.14971">
        <ele>228.68406677246</ele>
        <time>2014-05-24T14:27:57Z</time>
      </trkpt>
      <trkpt lat="43.43112" lon="6.14976">
        <ele>228.21212768555</ele>
        <time>2014-05-24T14:28:00Z</time>
      </trkpt>
      <trkpt lat="43.43111" lon="6.14984">
        <ele>227.21989440918</ele>
        <time>2014-05-24T14:28:05Z</time>
      </trkpt>
      <trkpt lat="43.43111" lon="6.14988">
        <ele>226.71600341797</ele>
        <time>2014-05-24T14:28:07Z</time>
      </trkpt>
      <trkpt lat="43.43112" lon="6.14992">
        <ele>226.00863647461</ele>
        <time>2014-05-24T14:28:10Z</time>
      </trkpt>
      <trkpt lat="43.43113" lon="6.14994">
        <ele>225.34638977051</ele>
        <time>2014-05-24T14:28:12Z</time>
      </trkpt>
      <trkpt lat="43.43117" lon="6.14997">
        <ele>224.16850280762</ele>
        <time>2014-05-24T14:28:16Z</time>
      </trkpt>
      <trkpt lat="43.4312" lon="6.14999">
        <ele>223.16156005859</ele>
        <time>2014-05-24T14:28:19Z</time>
      </trkpt>
      <trkpt lat="43.43123" lon="6.14997">
        <ele>222.73706054688</ele>
        <time>2014-05-24T14:28:22Z</time>
      </trkpt>
      <trkpt lat="43.43127" lon="6.14995">
        <ele>222.03866577148</ele>
        <time>2014-05-24T14:28:25Z</time>
      </trkpt>
      <trkpt lat="43.43134" lon="6.14995">
        <ele>220.36930847168</ele>
        <time>2014-05-24T14:28:31Z</time>
      </trkpt>
      <trkpt lat="43.43137" lon="6.14995">
        <ele>219.52793884277</ele>
        <time>2014-05-24T14:28:34Z</time>
      </trkpt>
      <trkpt lat="43.43142" lon="6.15">
        <ele>218.90649414062</ele>
        <time>2014-05-24T14:28:38Z</time>
      </trkpt>
      <trkpt lat="43.43147" lon="6.15005">
        <ele>218.72546386719</ele>
        <time>2014-05-24T14:28:43Z</time>
      </trkpt>
      <trkpt lat="43.43148" lon="6.15008">
        <ele>218.67053222656</ele>
        <time>2014-05-24T14:28:45Z</time>
      </trkpt>
      <trkpt lat="43.43145" lon="6.15018">
        <ele>218.79412841797</ele>
        <time>2014-05-24T14:28:53Z</time>
      </trkpt>
      <trkpt lat="43.43144" lon="6.15019">
        <ele>218.82159423828</ele>
        <time>2014-05-24T14:28:54Z</time>
      </trkpt>
      <trkpt lat="43.43142" lon="6.15021">
        <ele>218.89025878906</ele>
        <time>2014-05-24T14:28:56Z</time>
      </trkpt>
      <trkpt lat="43.43139" lon="6.15028">
        <ele>219.041015625</ele>
        <time>2014-05-24T14:29:02Z</time>
      </trkpt>
      <trkpt lat="43.43138" lon="6.15035">
        <ele>219.09254455566</ele>
        <time>2014-05-24T14:29:06Z</time>
      </trkpt>
      <trkpt lat="43.43136" lon="6.15051">
        <ele>219.05033874512</ele>
        <time>2014-05-24T14:29:18Z</time>
      </trkpt>
      <trkpt lat="43.43134" lon="6.15061">
        <ele>219.1838684082</ele>
        <time>2014-05-24T14:29:24Z</time>
      </trkpt>
      <trkpt lat="43.43131" lon="6.15066">
        <ele>219.38471984863</ele>
        <time>2014-05-24T14:29:28Z</time>
      </trkpt>
      <trkpt lat="43.43129" lon="6.15069">
        <ele>219.48257446289</ele>
        <time>2014-05-24T14:29:32Z</time>
      </trkpt>
      <trkpt lat="43.43129" lon="6.1507">
        <ele>219.51861572266</ele>
        <time>2014-05-24T14:29:33Z</time>
      </trkpt>
      <trkpt lat="43.43126" lon="6.15076">
        <ele>219.74005126953</ele>
        <time>2014-05-24T14:29:38Z</time>
      </trkpt>
      <trkpt lat="43.43124" lon="6.15084">
        <ele>220.05346679688</ele>
        <time>2014-05-24T14:29:45Z</time>
      </trkpt>
      <trkpt lat="43.43123" lon="6.15089">
        <ele>220.43455505371</ele>
        <time>2014-05-24T14:29:49Z</time>
      </trkpt>
      <trkpt lat="43.43122" lon="6.15095">
        <ele>220.83624267578</ele>
        <time>2014-05-24T14:29:53Z</time>
      </trkpt>
      <trkpt lat="43.4312" lon="6.15115">
        <ele>222.5234375</ele>
        <time>2014-05-24T14:30:07Z</time>
      </trkpt>
      <trkpt lat="43.43118" lon="6.15124">
        <ele>223.4991607666</ele>
        <time>2014-05-24T14:30:11Z</time>
      </trkpt>
      <trkpt lat="43.43118" lon="6.15135">
        <ele>224.79057312012</ele>
        <time>2014-05-24T14:30:17Z</time>
      </trkpt>
      <trkpt lat="43.43118" lon="6.15148">
        <ele>226.50448608398</ele>
        <time>2014-05-24T14:30:24Z</time>
      </trkpt>
      <trkpt lat="43.43116" lon="6.15162">
        <ele>228.42709350586</ele>
        <time>2014-05-24T14:30:31Z</time>
      </trkpt>
      <trkpt lat="43.43116" lon="6.15172">
        <ele>229.80218505859</ele>
        <time>2014-05-24T14:30:36Z</time>
      </trkpt>
      <trkpt lat="43.43116" lon="6.15176">
        <ele>230.21762084961</ele>
        <time>2014-05-24T14:30:38Z</time>
      </trkpt>
      <trkpt lat="43.43116" lon="6.15187">
        <ele>231.41580200195</ele>
        <time>2014-05-24T14:30:44Z</time>
      </trkpt>
      <trkpt lat="43.43116" lon="6.152">
        <ele>232.81031799316</ele>
        <time>2014-05-24T14:30:51Z</time>
      </trkpt>
      <trkpt lat="43.43115" lon="6.15205">
        <ele>233.31802368164</ele>
        <time>2014-05-24T14:30:54Z</time>
      </trkpt>
      <trkpt lat="43.43115" lon="6.15209">
        <ele>233.81526184082</ele>
        <time>2014-05-24T14:30:57Z</time>
      </trkpt>
      <trkpt lat="43.43116" lon="6.15219">
        <ele>234.92733764648</ele>
        <time>2014-05-24T14:31:03Z</time>
      </trkpt>
      <trkpt lat="43.43115" lon="6.15229">
        <ele>236.07583618164</ele>
        <time>2014-05-24T14:31:09Z</time>
      </trkpt>
      <trkpt lat="43.43113" lon="6.15237">
        <ele>236.77128601074</ele>
        <time>2014-05-24T14:31:14Z</time>
      </trkpt>
      <trkpt lat="43.4311" lon="6.15248">
        <ele>237.94149780273</ele>
        <time>2014-05-24T14:31:22Z</time>
      </trkpt>
      <trkpt lat="43.43106" lon="6.15253">
        <ele>238.75677490234</ele>
        <time>2014-05-24T14:31:28Z</time>
      </trkpt>
      <trkpt lat="43.43103" lon="6.15257">
        <ele>239.27638244629</ele>
        <time>2014-05-24T14:31:32Z</time>
      </trkpt>
      <trkpt lat="43.43103" lon="6.15258">
        <ele>239.31187438965</ele>
        <time>2014-05-24T14:31:34Z</time>
      </trkpt>
      <trkpt lat="43.43103" lon="6.15258">
        <ele>239.31187438965</ele>
        <time>2014-05-24T14:31:54Z</time>
      </trkpt>
      <trkpt lat="43.43103" lon="6.15258">
        <ele>239.31187438965</ele>
        <time>2014-05-24T14:32:12Z</time>
      </trkpt>
      <trkpt lat="43.43104" lon="6.15258">
        <ele>239.28045654297</ele>
        <time>2014-05-24T14:32:14Z</time>
      </trkpt>
      <trkpt lat="43.43104" lon="6.15258">
        <ele>239.28045654297</ele>
        <time>2014-05-24T14:32:33Z</time>
      </trkpt>
      <trkpt lat="43.43104" lon="6.15258">
        <ele>239.28045654297</ele>
        <time>2014-05-24T14:32:45Z</time>
      </trkpt>
      <trkpt lat="43.43104" lon="6.15258">
        <ele>239.30430603027</ele>
        <time>2014-05-24T14:32:57Z</time>
      </trkpt>
      <trkpt lat="43.43104" lon="6.15259">
        <ele>239.35795593262</ele>
        <time>2014-05-24T14:32:58Z</time>
      </trkpt>
      <trkpt lat="43.43104" lon="6.15259">
        <ele>239.35795593262</ele>
        <time>2014-05-24T14:33:21Z</time>
      </trkpt>
      <trkpt lat="43.43104" lon="6.15259">
        <ele>239.35795593262</ele>
        <time>2014-05-24T14:33:35Z</time>
      </trkpt>
      <trkpt lat="43.43104" lon="6.1526">
        <ele>239.37832641602</ele>
        <time>2014-05-24T14:33:46Z</time>
      </trkpt>
      <trkpt lat="43.43104" lon="6.1526">
        <ele>239.37832641602</ele>
        <time>2014-05-24T14:34:02Z</time>
      </trkpt>
      <trkpt lat="43.43104" lon="6.1526">
        <ele>239.42054748535</ele>
        <time>2014-05-24T14:34:23Z</time>
      </trkpt>
      <trkpt lat="43.43104" lon="6.1526">
        <ele>239.42054748535</ele>
        <time>2014-05-24T14:34:37Z</time>
      </trkpt>
      <trkpt lat="43.43104" lon="6.1526">
        <ele>239.42054748535</ele>
        <time>2014-05-24T14:34:54Z</time>
      </trkpt>
      <trkpt lat="43.43104" lon="6.1526">
        <ele>239.37532043457</ele>
        <time>2014-05-24T14:35:01Z</time>
      </trkpt>
      <trkpt lat="43.43104" lon="6.1526">
        <ele>239.37532043457</ele>
        <time>2014-05-24T14:35:22Z</time>
      </trkpt>
      <trkpt lat="43.43104" lon="6.1526">
        <ele>239.37532043457</ele>
        <time>2014-05-24T14:35:53Z</time>
      </trkpt>
      <trkpt lat="43.43105" lon="6.1526">
        <ele>239.36326599121</ele>
        <time>2014-05-24T14:35:56Z</time>
      </trkpt>
      <trkpt lat="43.43105" lon="6.1526">
        <ele>239.36628723144</ele>
        <time>2014-05-24T14:35:59Z</time>
      </trkpt>
      <trkpt lat="43.43105" lon="6.15261">
        <ele>239.42079162598</ele>
        <time>2014-05-24T14:36:01Z</time>
      </trkpt>
      <trkpt lat="43.43103" lon="6.15264">
        <ele>239.67561340332</ele>
        <time>2014-05-24T14:36:04Z</time>
      </trkpt>
      <trkpt lat="43.43102" lon="6.15265">
        <ele>239.93882751465</ele>
        <time>2014-05-24T14:36:06Z</time>
      </trkpt>
      <trkpt lat="43.431" lon="6.15267">
        <ele>240.1780090332</ele>
        <time>2014-05-24T14:36:07Z</time>
      </trkpt>
      <trkpt lat="43.43098" lon="6.1527">
        <ele>240.52340698242</ele>
        <time>2014-05-24T14:36:09Z</time>
      </trkpt>
      <trkpt lat="43.43097" lon="6.15274">
        <ele>240.84321594238</ele>
        <time>2014-05-24T14:36:11Z</time>
      </trkpt>
      <trkpt lat="43.43096" lon="6.15276">
        <ele>241.00886535644</ele>
        <time>2014-05-24T14:36:12Z</time>
      </trkpt>
      <trkpt lat="43.43095" lon="6.15278">
        <ele>241.18748474121</ele>
        <time>2014-05-24T14:36:13Z</time>
      </trkpt>
      <trkpt lat="43.43095" lon="6.1528">
        <ele>241.49101257324</ele>
        <time>2014-05-24T14:36:14Z</time>
      </trkpt>
      <trkpt lat="43.43094" lon="6.15283">
        <ele>242.1116027832</ele>
        <time>2014-05-24T14:36:16Z</time>
      </trkpt>
      <trkpt lat="43.43092" lon="6.15292">
        <ele>243.58036804199</ele>
        <time>2014-05-24T14:36:21Z</time>
      </trkpt>
      <trkpt lat="43.43093" lon="6.15301">
        <ele>244.96354675293</ele>
        <time>2014-05-24T14:36:27Z</time>
      </trkpt>
      <trkpt lat="43.43093" lon="6.15303">
        <ele>245.20928955078</ele>
        <time>2014-05-24T14:36:28Z</time>
      </trkpt>
      <trkpt lat="43.43092" lon="6.15309">
        <ele>245.90264892578</ele>
        <time>2014-05-24T14:36:33Z</time>
      </trkpt>
      <trkpt lat="43.43092" lon="6.15311">
        <ele>245.98497009277</ele>
        <time>2014-05-24T14:36:34Z</time>
      </trkpt>
      <trkpt lat="43.4309" lon="6.15315">
        <ele>246.25859069824</ele>
        <time>2014-05-24T14:36:37Z</time>
      </trkpt>
      <trkpt lat="43.43087" lon="6.15322">
        <ele>246.59759521484</ele>
        <time>2014-05-24T14:36:43Z</time>
      </trkpt>
      <trkpt lat="43.43084" lon="6.15329">
        <ele>246.85321044922</ele>
        <time>2014-05-24T14:36:49Z</time>
      </trkpt>
      <trkpt lat="43.43081" lon="6.15335">
        <ele>247.67807006836</ele>
        <time>2014-05-24T14:36:55Z</time>
      </trkpt>
      <trkpt lat="43.43079" lon="6.15341">
        <ele>248.73377990723</ele>
        <time>2014-05-24T14:37:00Z</time>
      </trkpt>
      <trkpt lat="43.43076" lon="6.15346">
        <ele>250.00579833984</ele>
        <time>2014-05-24T14:37:06Z</time>
      </trkpt>
      <trkpt lat="43.43074" lon="6.15351">
        <ele>250.84521484375</ele>
        <time>2014-05-24T14:37:10Z</time>
      </trkpt>
      <trkpt lat="43.43071" lon="6.15357">
        <ele>252.26141357422</ele>
        <time>2014-05-24T14:37:16Z</time>
      </trkpt>
      <trkpt lat="43.43065" lon="6.15368">
        <ele>254.3751373291</ele>
        <time>2014-05-24T14:37:25Z</time>
      </trkpt>
      <trkpt lat="43.43063" lon="6.15372">
        <ele>255.08157348633</ele>
        <time>2014-05-24T14:37:29Z</time>
      </trkpt>
      <trkpt lat="43.43059" lon="6.15379">
        <ele>256.15835571289</ele>
        <time>2014-05-24T14:37:36Z</time>
      </trkpt>
      <trkpt lat="43.43054" lon="6.15384">
        <ele>257.70364379883</ele>
        <time>2014-05-24T14:37:43Z</time>
      </trkpt>
      <trkpt lat="43.4305" lon="6.15386">
        <ele>259.61749267578</ele>
        <time>2014-05-24T14:37:47Z</time>
      </trkpt>
      <trkpt lat="43.43048" lon="6.15388">
        <ele>260.94146728516</ele>
        <time>2014-05-24T14:37:50Z</time>
      </trkpt>
      <trkpt lat="43.43044" lon="6.1539">
        <ele>263.55026245117</ele>
        <time>2014-05-24T14:37:56Z</time>
      </trkpt>
      <trkpt lat="43.43037" lon="6.15392">
        <ele>267.04794311523</ele>
        <time>2014-05-24T14:38:01Z</time>
      </trkpt>
      <trkpt lat="43.43029" lon="6.15388">
        <ele>271.40518188477</ele>
        <time>2014-05-24T14:38:08Z</time>
      </trkpt>
      <trkpt lat="43.43027" lon="6.15386">
        <ele>272.04766845703</ele>
        <time>2014-05-24T14:38:10Z</time>
      </trkpt>
      <trkpt lat="43.43024" lon="6.15384">
        <ele>272.96948242188</ele>
        <time>2014-05-24T14:38:13Z</time>
      </trkpt>
      <trkpt lat="43.43016" lon="6.15378">
        <ele>275.76586914062</ele>
        <time>2014-05-24T14:38:21Z</time>
      </trkpt>
      <trkpt lat="43.43015" lon="6.15378">
        <ele>276.21560668945</ele>
        <time>2014-05-24T14:38:22Z</time>
      </trkpt>
      <trkpt lat="43.43011" lon="6.15377">
        <ele>277.81207275391</ele>
        <time>2014-05-24T14:38:27Z</time>
      </trkpt>
      <trkpt lat="43.4301" lon="6.15377">
        <ele>278.37341308594</ele>
        <time>2014-05-24T14:38:28Z</time>
      </trkpt>
      <trkpt lat="43.43003" lon="6.15383">
        <ele>282.63403320312</ele>
        <time>2014-05-24T14:38:35Z</time>
      </trkpt>
      <trkpt lat="43.43" lon="6.15389">
        <ele>285.14822387695</ele>
        <time>2014-05-24T14:38:40Z</time>
      </trkpt>
      <trkpt lat="43.42999" lon="6.15396">
        <ele>285.90869140625</ele>
        <time>2014-05-24T14:38:44Z</time>
      </trkpt>
      <trkpt lat="43.42999" lon="6.15401">
        <ele>286.63653564453</ele>
        <time>2014-05-24T14:38:48Z</time>
      </trkpt>
      <trkpt lat="43.42999" lon="6.1541">
        <ele>287.44848632812</ele>
        <time>2014-05-24T14:38:54Z</time>
      </trkpt>
      <trkpt lat="43.43" lon="6.15423">
        <ele>289.02569580078</ele>
        <time>2014-05-24T14:39:03Z</time>
      </trkpt>
      <trkpt lat="43.43" lon="6.15428">
        <ele>289.63275146484</ele>
        <time>2014-05-24T14:39:06Z</time>
      </trkpt>
      <trkpt lat="43.42999" lon="6.15434">
        <ele>290.62487792969</ele>
        <time>2014-05-24T14:39:09Z</time>
      </trkpt>
      <trkpt lat="43.42999" lon="6.15442">
        <ele>291.85516357422</ele>
        <time>2014-05-24T14:39:14Z</time>
      </trkpt>
      <trkpt lat="43.42999" lon="6.15443">
        <ele>292.04177856445</ele>
        <time>2014-05-24T14:39:15Z</time>
      </trkpt>
      <trkpt lat="43.43" lon="6.15447">
        <ele>292.28393554688</ele>
        <time>2014-05-24T14:39:18Z</time>
      </trkpt>
      <trkpt lat="43.43002" lon="6.15454">
        <ele>291.9035949707</ele>
        <time>2014-05-24T14:39:23Z</time>
      </trkpt>
      <trkpt lat="43.43005" lon="6.15466">
        <ele>291.81042480469</ele>
        <time>2014-05-24T14:39:31Z</time>
      </trkpt>
      <trkpt lat="43.43005" lon="6.15473">
        <ele>292.32247924805</ele>
        <time>2014-05-24T14:39:35Z</time>
      </trkpt>
      <trkpt lat="43.43006" lon="6.15479">
        <ele>292.08822631836</ele>
        <time>2014-05-24T14:39:39Z</time>
      </trkpt>
      <trkpt lat="43.43005" lon="6.15482">
        <ele>292.37789916992</ele>
        <time>2014-05-24T14:39:41Z</time>
      </trkpt>
      <trkpt lat="43.43004" lon="6.15488">
        <ele>293.2109375</ele>
        <time>2014-05-24T14:39:46Z</time>
      </trkpt>
      <trkpt lat="43.43005" lon="6.15493">
        <ele>293.13729858398</ele>
        <time>2014-05-24T14:39:49Z</time>
      </trkpt>
      <trkpt lat="43.43006" lon="6.15509">
        <ele>293.6907043457</ele>
        <time>2014-05-24T14:40:01Z</time>
      </trkpt>
      <trkpt lat="43.43007" lon="6.1552">
        <ele>294.42004394531</ele>
        <time>2014-05-24T14:40:10Z</time>
      </trkpt>
      <trkpt lat="43.43005" lon="6.15522">
        <ele>295.47314453125</ele>
        <time>2014-05-24T14:40:12Z</time>
      </trkpt>
      <trkpt lat="43.43006" lon="6.15526">
        <ele>295.38497924805</ele>
        <time>2014-05-24T14:40:15Z</time>
      </trkpt>
      <trkpt lat="43.43008" lon="6.15534">
        <ele>295.12341308594</ele>
        <time>2014-05-24T14:40:21Z</time>
      </trkpt>
      <trkpt lat="43.43007" lon="6.15547">
        <ele>296.92706298828</ele>
        <time>2014-05-24T14:40:29Z</time>
      </trkpt>
      <trkpt lat="43.43006" lon="6.15562">
        <ele>298.03503417969</ele>
        <time>2014-05-24T14:40:38Z</time>
      </trkpt>
      <trkpt lat="43.43006" lon="6.1559">
        <ele>299.19705200195</ele>
        <time>2014-05-24T14:40:56Z</time>
      </trkpt>
      <trkpt lat="43.43006" lon="6.15592">
        <ele>299.2966003418</ele>
        <time>2014-05-24T14:40:58Z</time>
      </trkpt>
      <trkpt lat="43.43006" lon="6.15593">
        <ele>299.29165649414</ele>
        <time>2014-05-24T14:40:59Z</time>
      </trkpt>
      <trkpt lat="43.43008" lon="6.15598">
        <ele>299.37106323242</ele>
        <time>2014-05-24T14:41:03Z</time>
      </trkpt>
      <trkpt lat="43.43009" lon="6.15607">
        <ele>299.75668334961</ele>
        <time>2014-05-24T14:41:09Z</time>
      </trkpt>
      <trkpt lat="43.4301" lon="6.1561">
        <ele>299.95349121094</ele>
        <time>2014-05-24T14:41:11Z</time>
      </trkpt>
      <trkpt lat="43.4301" lon="6.15615">
        <ele>300</ele>
        <time>2014-05-24T14:41:13Z</time>
      </trkpt>
      <trkpt lat="43.43011" lon="6.1562">
        <ele>300</ele>
        <time>2014-05-24T14:41:15Z</time>
      </trkpt>
      <trkpt lat="43.4301" lon="6.15631">
        <ele>300</ele>
        <time>2014-05-24T14:41:22Z</time>
      </trkpt>
      <trkpt lat="43.43009" lon="6.15641">
        <ele>300</ele>
        <time>2014-05-24T14:41:29Z</time>
      </trkpt>
      <trkpt lat="43.4301" lon="6.15652">
        <ele>300</ele>
        <time>2014-05-24T14:41:36Z</time>
      </trkpt>
      <trkpt lat="43.4301" lon="6.15654">
        <ele>300</ele>
        <time>2014-05-24T14:41:38Z</time>
      </trkpt>
      <trkpt lat="43.43009" lon="6.15658">
        <ele>300</ele>
        <time>2014-05-24T14:41:41Z</time>
      </trkpt>
      <trkpt lat="43.43009" lon="6.15662">
        <ele>300</ele>
        <time>2014-05-24T14:41:44Z</time>
      </trkpt>
      <trkpt lat="43.43009" lon="6.15664">
        <ele>300</ele>
        <time>2014-05-24T14:41:47Z</time>
      </trkpt>
      <trkpt lat="43.43009" lon="6.15664">
        <ele>300</ele>
        <time>2014-05-24T14:41:52Z</time>
      </trkpt>
      <trkpt lat="43.43009" lon="6.15664">
        <ele>300</ele>
        <time>2014-05-24T14:42:07Z</time>
      </trkpt>
      <trkpt lat="43.43009" lon="6.15664">
        <ele>300</ele>
        <time>2014-05-24T14:42:27Z</time>
      </trkpt>
      <trkpt lat="43.43009" lon="6.15665">
        <ele>300</ele>
        <time>2014-05-24T14:42:30Z</time>
      </trkpt>
      <trkpt lat="43.43009" lon="6.15665">
        <ele>300</ele>
        <time>2014-05-24T14:42:49Z</time>
      </trkpt>
      <trkpt lat="43.43008" lon="6.15665">
        <ele>300</ele>
        <time>2014-05-24T14:43:19Z</time>
      </trkpt>
      <trkpt lat="43.43008" lon="6.15665">
        <ele>300</ele>
        <time>2014-05-24T14:43:29Z</time>
      </trkpt>
      <trkpt lat="43.43008" lon="6.15665">
        <ele>300</ele>
        <time>2014-05-24T14:43:38Z</time>
      </trkpt>
      <trkpt lat="43.43008" lon="6.15665">
        <ele>300</ele>
        <time>2014-05-24T14:43:46Z</time>
      </trkpt>
      <trkpt lat="43.43008" lon="6.15665">
        <ele>300</ele>
        <time>2014-05-24T14:44:12Z</time>
      </trkpt>
      <trkpt lat="43.43008" lon="6.15665">
        <ele>300</ele>
        <time>2014-05-24T14:45:30Z</time>
      </trkpt>
      <trkpt lat="43.43008" lon="6.15665">
        <ele>300</ele>
        <time>2014-05-24T14:45:56Z</time>
      </trkpt>
      <trkpt lat="43.43008" lon="6.15665">
        <ele>300</ele>
        <time>2014-05-24T14:46:25Z</time>
      </trkpt>
      <trkpt lat="43.43008" lon="6.15665">
        <ele>300</ele>
        <time>2014-05-24T14:46:30Z</time>
      </trkpt>
      <trkpt lat="43.43008" lon="6.15664">
        <ele>300</ele>
        <time>2014-05-24T14:46:35Z</time>
      </trkpt>
      <trkpt lat="43.43008" lon="6.15665">
        <ele>300</ele>
        <time>2014-05-24T14:46:36Z</time>
      </trkpt>
      <trkpt lat="43.43008" lon="6.15665">
        <ele>300</ele>
        <time>2014-05-24T14:46:52Z</time>
      </trkpt>
      <trkpt lat="43.43008" lon="6.15665">
        <ele>300</ele>
        <time>2014-05-24T14:47:07Z</time>
      </trkpt>
      <trkpt lat="43.43009" lon="6.15664">
        <ele>300</ele>
        <time>2014-05-24T14:47:11Z</time>
      </trkpt>
      <trkpt lat="43.4301" lon="6.15664">
        <ele>300</ele>
        <time>2014-05-24T14:47:12Z</time>
      </trkpt>
      <trkpt lat="43.43012" lon="6.15662">
        <ele>300</ele>
        <time>2014-05-24T14:47:14Z</time>
      </trkpt>
      <trkpt lat="43.43019" lon="6.15659">
        <ele>300</ele>
        <time>2014-05-24T14:47:18Z</time>
      </trkpt>
      <trkpt lat="43.43031" lon="6.15655">
        <ele>299.95172119141</ele>
        <time>2014-05-24T14:47:26Z</time>
      </trkpt>
      <trkpt lat="43.43033" lon="6.15654">
        <ele>299.91198730469</ele>
        <time>2014-05-24T14:47:28Z</time>
      </trkpt>
      <trkpt lat="43.43037" lon="6.15651">
        <ele>299.80892944336</ele>
        <time>2014-05-24T14:47:30Z</time>
      </trkpt>
      <trkpt lat="43.43042" lon="6.15649">
        <ele>299.68728637695</ele>
        <time>2014-05-24T14:47:32Z</time>
      </trkpt>
      <trkpt lat="43.43047" lon="6.15648">
        <ele>299.52529907227</ele>
        <time>2014-05-24T14:47:35Z</time>
      </trkpt>
      <trkpt lat="43.43052" lon="6.15646">
        <ele>299.35794067383</ele>
        <time>2014-05-24T14:47:37Z</time>
      </trkpt>
      <trkpt lat="43.4306" lon="6.15645">
        <ele>299.34197998047</ele>
        <time>2014-05-24T14:47:40Z</time>
      </trkpt>
      <trkpt lat="43.43061" lon="6.15647">
        <ele>299.44030761719</ele>
        <time>2014-05-24T14:47:41Z</time>
      </trkpt>
      <trkpt lat="43.43064" lon="6.15656">
        <ele>299.73251342773</ele>
        <time>2014-05-24T14:47:44Z</time>
      </trkpt>
      <trkpt lat="43.43071" lon="6.15675">
        <ele>300</ele>
        <time>2014-05-24T14:47:50Z</time>
      </trkpt>
      <trkpt lat="43.43073" lon="6.1568">
        <ele>300</ele>
        <time>2014-05-24T14:47:52Z</time>
      </trkpt>
      <trkpt lat="43.43074" lon="6.15683">
        <ele>300</ele>
        <time>2014-05-24T14:47:53Z</time>
      </trkpt>
      <trkpt lat="43.43085" lon="6.15691">
        <ele>300</ele>
        <time>2014-05-24T14:47:58Z</time>
      </trkpt>
      <trkpt lat="43.43087" lon="6.15693">
        <ele>300</ele>
        <time>2014-05-24T14:47:59Z</time>
      </trkpt>
      <trkpt lat="43.4309" lon="6.15696">
        <ele>300</ele>
        <time>2014-05-24T14:48:01Z</time>
      </trkpt>
      <trkpt lat="43.43092" lon="6.15699">
        <ele>300</ele>
        <time>2014-05-24T14:48:03Z</time>
      </trkpt>
      <trkpt lat="43.43095" lon="6.15702">
        <ele>300</ele>
        <time>2014-05-24T14:48:05Z</time>
      </trkpt>
      <trkpt lat="43.43098" lon="6.15705">
        <ele>300</ele>
        <time>2014-05-24T14:48:07Z</time>
      </trkpt>
      <trkpt lat="43.43102" lon="6.15708">
        <ele>300</ele>
        <time>2014-05-24T14:48:09Z</time>
      </trkpt>
      <trkpt lat="43.43103" lon="6.1571">
        <ele>300</ele>
        <time>2014-05-24T14:48:10Z</time>
      </trkpt>
      <trkpt lat="43.43104" lon="6.15711">
        <ele>300</ele>
        <time>2014-05-24T14:48:11Z</time>
      </trkpt>
      <trkpt lat="43.43106" lon="6.15712">
        <ele>300</ele>
        <time>2014-05-24T14:48:12Z</time>
      </trkpt>
      <trkpt lat="43.43107" lon="6.15712">
        <ele>300</ele>
        <time>2014-05-24T14:48:13Z</time>
      </trkpt>
      <trkpt lat="43.43108" lon="6.15712">
        <ele>300</ele>
        <time>2014-05-24T14:48:14Z</time>
      </trkpt>
      <trkpt lat="43.43111" lon="6.15713">
        <ele>300</ele>
        <time>2014-05-24T14:48:16Z</time>
      </trkpt>
      <trkpt lat="43.43113" lon="6.15713">
        <ele>299.89218139648</ele>
        <time>2014-05-24T14:48:17Z</time>
      </trkpt>
      <trkpt lat="43.43115" lon="6.15713">
        <ele>299.79888916016</ele>
        <time>2014-05-24T14:48:18Z</time>
      </trkpt>
      <trkpt lat="43.43118" lon="6.15712">
        <ele>299.66687011719</ele>
        <time>2014-05-24T14:48:20Z</time>
      </trkpt>
      <trkpt lat="43.43124" lon="6.1571">
        <ele>299.47613525391</ele>
        <time>2014-05-24T14:48:22Z</time>
      </trkpt>
      <trkpt lat="43.43128" lon="6.15709">
        <ele>299.38522338867</ele>
        <time>2014-05-24T14:48:23Z</time>
      </trkpt>
      <trkpt lat="43.43135" lon="6.15704">
        <ele>299.41821289062</ele>
        <time>2014-05-24T14:48:26Z</time>
      </trkpt>
      <trkpt lat="43.43144" lon="6.15699">
        <ele>298.36419677734</ele>
        <time>2014-05-24T14:48:32Z</time>
      </trkpt>
      <trkpt lat="43.43146" lon="6.15698">
        <ele>297.93380737305</ele>
        <time>2014-05-24T14:48:33Z</time>
      </trkpt>
      <trkpt lat="43.43148" lon="6.15698">
        <ele>297.48428344727</ele>
        <time>2014-05-24T14:48:34Z</time>
      </trkpt>
      <trkpt lat="43.43152" lon="6.15697">
        <ele>296.35852050781</ele>
        <time>2014-05-24T14:48:36Z</time>
      </trkpt>
      <trkpt lat="43.43168" lon="6.15694">
        <ele>292.27551269531</ele>
        <time>2014-05-24T14:48:42Z</time>
      </trkpt>
      <trkpt lat="43.43174" lon="6.15693">
        <ele>289.83892822266</ele>
        <time>2014-05-24T14:48:44Z</time>
      </trkpt>
      <trkpt lat="43.43175" lon="6.15692">
        <ele>289.17840576172</ele>
        <time>2014-05-24T14:48:45Z</time>
      </trkpt>
      <trkpt lat="43.43187" lon="6.15683">
        <ele>283.73153686523</ele>
        <time>2014-05-24T14:48:50Z</time>
      </trkpt>
      <trkpt lat="43.43191" lon="6.15679">
        <ele>281.67260742188</ele>
        <time>2014-05-24T14:48:52Z</time>
      </trkpt>
      <trkpt lat="43.43196" lon="6.15673">
        <ele>279.35549926758</ele>
        <time>2014-05-24T14:48:54Z</time>
      </trkpt>
      <trkpt lat="43.43198" lon="6.1567">
        <ele>278.45230102539</ele>
        <time>2014-05-24T14:48:55Z</time>
      </trkpt>
      <trkpt lat="43.43214" lon="6.15655">
        <ele>272.24212646484</ele>
        <time>2014-05-24T14:49:01Z</time>
      </trkpt>
      <trkpt lat="43.43216" lon="6.15652">
        <ele>271.33575439453</ele>
        <time>2014-05-24T14:49:02Z</time>
      </trkpt>
      <trkpt lat="43.43219" lon="6.15648">
        <ele>270.42938232422</ele>
        <time>2014-05-24T14:49:03Z</time>
      </trkpt>
      <trkpt lat="43.43222" lon="6.1564">
        <ele>269.06982421875</ele>
        <time>2014-05-24T14:49:05Z</time>
      </trkpt>
      <trkpt lat="43.43223" lon="6.15639">
        <ele>268.54693603516</ele>
        <time>2014-05-24T14:49:06Z</time>
      </trkpt>
      <trkpt lat="43.43231" lon="6.15629">
        <ele>264.97637939453</ele>
        <time>2014-05-24T14:49:10Z</time>
      </trkpt>
      <trkpt lat="43.43232" lon="6.15625">
        <ele>264.61932373047</ele>
        <time>2014-05-24T14:49:11Z</time>
      </trkpt>
      <trkpt lat="43.43232" lon="6.15618">
        <ele>264.26226806641</ele>
        <time>2014-05-24T14:49:13Z</time>
      </trkpt>
      <trkpt lat="43.43232" lon="6.1561">
        <ele>264.10696411133</ele>
        <time>2014-05-24T14:49:16Z</time>
      </trkpt>
      <trkpt lat="43.43233" lon="6.15604">
        <ele>262.80651855469</ele>
        <time>2014-05-24T14:49:18Z</time>
      </trkpt>
      <trkpt lat="43.43235" lon="6.15597">
        <ele>260.8017578125</ele>
        <time>2014-05-24T14:49:20Z</time>
      </trkpt>
      <trkpt lat="43.43236" lon="6.1559">
        <ele>259.00930786133</ele>
        <time>2014-05-24T14:49:22Z</time>
      </trkpt>
      <trkpt lat="43.43237" lon="6.15586">
        <ele>258.29309082031</ele>
        <time>2014-05-24T14:49:23Z</time>
      </trkpt>
      <trkpt lat="43.43236" lon="6.15577">
        <ele>257.29257202148</ele>
        <time>2014-05-24T14:49:26Z</time>
      </trkpt>
      <trkpt lat="43.43236" lon="6.15575">
        <ele>256.71627807617</ele>
        <time>2014-05-24T14:49:27Z</time>
      </trkpt>
      <trkpt lat="43.43236" lon="6.15572">
        <ele>256.4001159668</ele>
        <time>2014-05-24T14:49:29Z</time>
      </trkpt>
      <trkpt lat="43.43236" lon="6.15572">
        <ele>256.4001159668</ele>
        <time>2014-05-24T14:49:33Z</time>
      </trkpt>
      <trkpt lat="43.43236" lon="6.15567">
        <ele>255.56167602539</ele>
        <time>2014-05-24T14:49:41Z</time>
      </trkpt>
      <trkpt lat="43.43236" lon="6.15556">
        <ele>254.24844360352</ele>
        <time>2014-05-24T14:49:46Z</time>
      </trkpt>
      <trkpt lat="43.43236" lon="6.15556">
        <ele>254.24844360352</ele>
        <time>2014-05-24T14:50:08Z</time>
      </trkpt>
      <trkpt lat="43.43236" lon="6.15556">
        <ele>254.24844360352</ele>
        <time>2014-05-24T14:50:21Z</time>
      </trkpt>
      <trkpt lat="43.43236" lon="6.15553">
        <ele>253.62899780273</ele>
        <time>2014-05-24T14:50:23Z</time>
      </trkpt>
      <trkpt lat="43.43237" lon="6.15548">
        <ele>251.73715209961</ele>
        <time>2014-05-24T14:50:25Z</time>
      </trkpt>
      <trkpt lat="43.4324" lon="6.1554">
        <ele>248.17491149902</ele>
        <time>2014-05-24T14:50:28Z</time>
      </trkpt>
      <trkpt lat="43.4324" lon="6.15537">
        <ele>247.17456054688</ele>
        <time>2014-05-24T14:50:29Z</time>
      </trkpt>
      <trkpt lat="43.43241" lon="6.15529">
        <ele>244.93014526367</ele>
        <time>2014-05-24T14:50:31Z</time>
      </trkpt>
      <trkpt lat="43.43241" lon="6.15525">
        <ele>244.14407348633</ele>
        <time>2014-05-24T14:50:32Z</time>
      </trkpt>
      <trkpt lat="43.43242" lon="6.15522">
        <ele>243.34614562988</ele>
        <time>2014-05-24T14:50:33Z</time>
      </trkpt>
      <trkpt lat="43.43244" lon="6.15516">
        <ele>241.62637329102</ele>
        <time>2014-05-24T14:50:35Z</time>
      </trkpt>
      <trkpt lat="43.43244" lon="6.15513">
        <ele>241.07040405273</ele>
        <time>2014-05-24T14:50:36Z</time>
      </trkpt>
      <trkpt lat="43.43245" lon="6.1551">
        <ele>240.42129516602</ele>
        <time>2014-05-24T14:50:37Z</time>
      </trkpt>
      <trkpt lat="43.43245" lon="6.15508">
        <ele>239.97145080566</ele>
        <time>2014-05-24T14:50:38Z</time>
      </trkpt>
      <trkpt lat="43.43245" lon="6.15485">
        <ele>237.36003112793</ele>
        <time>2014-05-24T14:50:46Z</time>
      </trkpt>
      <trkpt lat="43.43245" lon="6.1548">
        <ele>236.79399108887</ele>
        <time>2014-05-24T14:50:48Z</time>
      </trkpt>
      <trkpt lat="43.43245" lon="6.15476">
        <ele>236.33769226074</ele>
        <time>2014-05-24T14:50:50Z</time>
      </trkpt>
      <trkpt lat="43.43245" lon="6.15471">
        <ele>235.85107421875</ele>
        <time>2014-05-24T14:50:52Z</time>
      </trkpt>
      <trkpt lat="43.43245" lon="6.15468">
        <ele>235.18502807617</ele>
        <time>2014-05-24T14:50:54Z</time>
      </trkpt>
      <trkpt lat="43.43245" lon="6.15466">
        <ele>234.77304077148</ele>
        <time>2014-05-24T14:50:56Z</time>
      </trkpt>
      <trkpt lat="43.43245" lon="6.15466">
        <ele>234.77304077148</ele>
        <time>2014-05-24T14:51:06Z</time>
      </trkpt>
      <trkpt lat="43.43246" lon="6.15464">
        <ele>234.23745727539</ele>
        <time>2014-05-24T14:51:07Z</time>
      </trkpt>
      <trkpt lat="43.43246" lon="6.1546">
        <ele>233.65380859375</ele>
        <time>2014-05-24T14:51:11Z</time>
      </trkpt>
      <trkpt lat="43.43246" lon="6.1546">
        <ele>233.65380859375</ele>
        <time>2014-05-24T14:51:15Z</time>
      </trkpt>
      <trkpt lat="43.43248" lon="6.15456">
        <ele>232.54830932617</ele>
        <time>2014-05-24T14:51:19Z</time>
      </trkpt>
      <trkpt lat="43.43248" lon="6.15446">
        <ele>230.86602783203</ele>
        <time>2014-05-24T14:51:22Z</time>
      </trkpt>
      <trkpt lat="43.43248" lon="6.15443">
        <ele>230.44627380371</ele>
        <time>2014-05-24T14:51:23Z</time>
      </trkpt>
      <trkpt lat="43.43249" lon="6.15441">
        <ele>229.89352416992</ele>
        <time>2014-05-24T14:51:24Z</time>
      </trkpt>
      <trkpt lat="43.43251" lon="6.15438">
        <ele>228.9102935791</ele>
        <time>2014-05-24T14:51:26Z</time>
      </trkpt>
      <trkpt lat="43.43253" lon="6.15439">
        <ele>228.23529052734</ele>
        <time>2014-05-24T14:51:28Z</time>
      </trkpt>
      <trkpt lat="43.43254" lon="6.1544">
        <ele>228.10124206543</ele>
        <time>2014-05-24T14:51:29Z</time>
      </trkpt>
      <trkpt lat="43.43259" lon="6.15445">
        <ele>226.57751464844</ele>
        <time>2014-05-24T14:51:32Z</time>
      </trkpt>
      <trkpt lat="43.4326" lon="6.15445">
        <ele>226.02302551269</ele>
        <time>2014-05-24T14:51:33Z</time>
      </trkpt>
      <trkpt lat="43.43265" lon="6.15447">
        <ele>224.41596984863</ele>
        <time>2014-05-24T14:51:35Z</time>
      </trkpt>
      <trkpt lat="43.43266" lon="6.15447">
        <ele>223.90126037598</ele>
        <time>2014-05-24T14:51:36Z</time>
      </trkpt>
      <trkpt lat="43.43269" lon="6.15446">
        <ele>222.87197875977</ele>
        <time>2014-05-24T14:51:37Z</time>
      </trkpt>
      <trkpt lat="43.43272" lon="6.15438">
        <ele>220.62326049805</ele>
        <time>2014-05-24T14:51:40Z</time>
      </trkpt>
      <trkpt lat="43.43273" lon="6.15436">
        <ele>220.16758728027</ele>
        <time>2014-05-24T14:51:41Z</time>
      </trkpt>
      <trkpt lat="43.43274" lon="6.15434">
        <ele>219.70127868652</ele>
        <time>2014-05-24T14:51:42Z</time>
      </trkpt>
      <trkpt lat="43.43275" lon="6.15431">
        <ele>219.18141174316</ele>
        <time>2014-05-24T14:51:43Z</time>
      </trkpt>
      <trkpt lat="43.43272" lon="6.15402">
        <ele>218.30856323242</ele>
        <time>2014-05-24T14:51:50Z</time>
      </trkpt>
      <trkpt lat="43.43273" lon="6.15399">
        <ele>217.94689941406</ele>
        <time>2014-05-24T14:51:51Z</time>
      </trkpt>
      <trkpt lat="43.43273" lon="6.15397">
        <ele>217.83485412598</ele>
        <time>2014-05-24T14:51:52Z</time>
      </trkpt>
      <trkpt lat="43.43274" lon="6.1539">
        <ele>217.18307495117</ele>
        <time>2014-05-24T14:51:55Z</time>
      </trkpt>
      <trkpt lat="43.43275" lon="6.15388">
        <ele>216.85464477539</ele>
        <time>2014-05-24T14:51:56Z</time>
      </trkpt>
      <trkpt lat="43.43275" lon="6.15385">
        <ele>216.51989746094</ele>
        <time>2014-05-24T14:51:57Z</time>
      </trkpt>
      <trkpt lat="43.43276" lon="6.15382">
        <ele>216.20404052734</ele>
        <time>2014-05-24T14:51:58Z</time>
      </trkpt>
      <trkpt lat="43.43277" lon="6.15377">
        <ele>215.68563842773</ele>
        <time>2014-05-24T14:52:00Z</time>
      </trkpt>
      <trkpt lat="43.43279" lon="6.15374">
        <ele>215.27058410644</ele>
        <time>2014-05-24T14:52:01Z</time>
      </trkpt>
      <trkpt lat="43.43279" lon="6.15371">
        <ele>214.98391723633</ele>
        <time>2014-05-24T14:52:02Z</time>
      </trkpt>
      <trkpt lat="43.43281" lon="6.15365">
        <ele>214.3830871582</ele>
        <time>2014-05-24T14:52:04Z</time>
      </trkpt>
      <trkpt lat="43.43281" lon="6.15362">
        <ele>214.2646484375</ele>
        <time>2014-05-24T14:52:05Z</time>
      </trkpt>
      <trkpt lat="43.43282" lon="6.15358">
        <ele>213.8117980957</ele>
        <time>2014-05-24T14:52:06Z</time>
      </trkpt>
      <trkpt lat="43.43281" lon="6.15354">
        <ele>213.66442871094</ele>
        <time>2014-05-24T14:52:07Z</time>
      </trkpt>
      <trkpt lat="43.43281" lon="6.1535">
        <ele>213.49079895019</ele>
        <time>2014-05-24T14:52:08Z</time>
      </trkpt>
      <trkpt lat="43.4328" lon="6.15346">
        <ele>213.38229370117</ele>
        <time>2014-05-24T14:52:09Z</time>
      </trkpt>
      <trkpt lat="43.43279" lon="6.15341">
        <ele>213.2020111084</ele>
        <time>2014-05-24T14:52:10Z</time>
      </trkpt>
      <trkpt lat="43.43279" lon="6.15336">
        <ele>213.03535461426</ele>
        <time>2014-05-24T14:52:11Z</time>
      </trkpt>
      <trkpt lat="43.43279" lon="6.15324">
        <ele>212.49748229981</ele>
        <time>2014-05-24T14:52:14Z</time>
      </trkpt>
      <trkpt lat="43.43279" lon="6.15321">
        <ele>212.30870056152</ele>
        <time>2014-05-24T14:52:15Z</time>
      </trkpt>
      <trkpt lat="43.4328" lon="6.15319">
        <ele>212.03669738769</ele>
        <time>2014-05-24T14:52:16Z</time>
      </trkpt>
      <trkpt lat="43.4328" lon="6.15313">
        <ele>211.72254943848</ele>
        <time>2014-05-24T14:52:18Z</time>
      </trkpt>
      <trkpt lat="43.4328" lon="6.15309">
        <ele>211.48164367676</ele>
        <time>2014-05-24T14:52:21Z</time>
      </trkpt>
      <trkpt lat="43.4328" lon="6.15309">
        <ele>211.48164367676</ele>
        <time>2014-05-24T14:52:31Z</time>
      </trkpt>
      <trkpt lat="43.4328" lon="6.15309">
        <ele>211.48164367676</ele>
        <time>2014-05-24T14:52:36Z</time>
      </trkpt>
      <trkpt lat="43.43281" lon="6.15307">
        <ele>211.28076171875</ele>
        <time>2014-05-24T14:52:42Z</time>
      </trkpt>
      <trkpt lat="43.43281" lon="6.153">
        <ele>210.86155700684</ele>
        <time>2014-05-24T14:52:44Z</time>
      </trkpt>
      <trkpt lat="43.43282" lon="6.15297">
        <ele>210.44763183594</ele>
        <time>2014-05-24T14:52:45Z</time>
      </trkpt>
      <trkpt lat="43.43284" lon="6.15296">
        <ele>209.95939636231</ele>
        <time>2014-05-24T14:52:46Z</time>
      </trkpt>
      <trkpt lat="43.43286" lon="6.15297">
        <ele>209.45579528809</ele>
        <time>2014-05-24T14:52:47Z</time>
      </trkpt>
      <trkpt lat="43.43288" lon="6.15297">
        <ele>209.13006591797</ele>
        <time>2014-05-24T14:52:48Z</time>
      </trkpt>
      <trkpt lat="43.43291" lon="6.153">
        <ele>208.51754760742</ele>
        <time>2014-05-24T14:52:50Z</time>
      </trkpt>
      <trkpt lat="43.43293" lon="6.15305">
        <ele>208.14591979981</ele>
        <time>2014-05-24T14:52:52Z</time>
      </trkpt>
      <trkpt lat="43.43296" lon="6.15315">
        <ele>208.02534484863</ele>
        <time>2014-05-24T14:52:55Z</time>
      </trkpt>
      <trkpt lat="43.43297" lon="6.15318">
        <ele>207.95574951172</ele>
        <time>2014-05-24T14:52:56Z</time>
      </trkpt>
      <trkpt lat="43.43298" lon="6.15321">
        <ele>207.94039916992</ele>
        <time>2014-05-24T14:52:57Z</time>
      </trkpt>
      <trkpt lat="43.43298" lon="6.15323">
        <ele>207.88552856445</ele>
        <time>2014-05-24T14:52:58Z</time>
      </trkpt>
      <trkpt lat="43.43304" lon="6.15321">
        <ele>206.53817749023</ele>
        <time>2014-05-24T14:53:02Z</time>
      </trkpt>
      <trkpt lat="43.43304" lon="6.15321">
        <ele>206.36106872559</ele>
        <time>2014-05-24T14:53:03Z</time>
      </trkpt>
      <trkpt lat="43.43304" lon="6.15321">
        <ele>206.36106872559</ele>
        <time>2014-05-24T14:53:07Z</time>
      </trkpt>
      <trkpt lat="43.43305" lon="6.15321">
        <ele>206.17712402344</ele>
        <time>2014-05-24T14:53:13Z</time>
      </trkpt>
      <trkpt lat="43.43307" lon="6.1532">
        <ele>205.53103637695</ele>
        <time>2014-05-24T14:53:15Z</time>
      </trkpt>
      <trkpt lat="43.43309" lon="6.15318">
        <ele>204.58825683594</ele>
        <time>2014-05-24T14:53:17Z</time>
      </trkpt>
      <trkpt lat="43.43311" lon="6.15318">
        <ele>203.73381042481</ele>
        <time>2014-05-24T14:53:18Z</time>
      </trkpt>
      <trkpt lat="43.43316" lon="6.15317">
        <ele>201.27262878418</ele>
        <time>2014-05-24T14:53:21Z</time>
      </trkpt>
      <trkpt lat="43.43319" lon="6.15316">
        <ele>200.07231140137</ele>
        <time>2014-05-24T14:53:22Z</time>
      </trkpt>
      <trkpt lat="43.43324" lon="6.15312">
        <ele>197.74101257324</ele>
        <time>2014-05-24T14:53:24Z</time>
      </trkpt>
      <trkpt lat="43.43329" lon="6.15309">
        <ele>195.66149902344</ele>
        <time>2014-05-24T14:53:27Z</time>
      </trkpt>
      <trkpt lat="43.43336" lon="6.15308">
        <ele>193.57786560059</ele>
        <time>2014-05-24T14:53:31Z</time>
      </trkpt>
      <trkpt lat="43.43343" lon="6.15311">
        <ele>192.26652526856</ele>
        <time>2014-05-24T14:53:35Z</time>
      </trkpt>
      <trkpt lat="43.43346" lon="6.15311">
        <ele>191.81083679199</ele>
        <time>2014-05-24T14:53:36Z</time>
      </trkpt>
      <trkpt lat="43.43353" lon="6.15316">
        <ele>190.74113464356</ele>
        <time>2014-05-24T14:53:39Z</time>
      </trkpt>
      <trkpt lat="43.43358" lon="6.15319">
        <ele>190.0011138916</ele>
        <time>2014-05-24T14:53:41Z</time>
      </trkpt>
      <trkpt lat="43.43361" lon="6.15319">
        <ele>189.59747314453</ele>
        <time>2014-05-24T14:53:42Z</time>
      </trkpt>
      <trkpt lat="43.43363" lon="6.1532">
        <ele>189.37944030762</ele>
        <time>2014-05-24T14:53:43Z</time>
      </trkpt>
      <trkpt lat="43.43369" lon="6.15325">
        <ele>188.96810913086</ele>
        <time>2014-05-24T14:53:46Z</time>
      </trkpt>
      <trkpt lat="43.43373" lon="6.15326">
        <ele>188.5587310791</ele>
        <time>2014-05-24T14:53:48Z</time>
      </trkpt>
      <trkpt lat="43.43375" lon="6.15327">
        <ele>188.42034912109</ele>
        <time>2014-05-24T14:53:49Z</time>
      </trkpt>
      <trkpt lat="43.43378" lon="6.15329">
        <ele>188.06349182129</ele>
        <time>2014-05-24T14:53:51Z</time>
      </trkpt>
      <trkpt lat="43.43381" lon="6.1533">
        <ele>187.8063659668</ele>
        <time>2014-05-24T14:53:53Z</time>
      </trkpt>
      <trkpt lat="43.43381" lon="6.1533">
        <ele>187.80685424805</ele>
        <time>2014-05-24T14:53:55Z</time>
      </trkpt>
      <trkpt lat="43.43381" lon="6.1533">
        <ele>187.80685424805</ele>
        <time>2014-05-24T14:54:14Z</time>
      </trkpt>
      <trkpt lat="43.43381" lon="6.1533">
        <ele>187.80685424805</ele>
        <time>2014-05-24T14:54:27Z</time>
      </trkpt>
      <trkpt lat="43.43382" lon="6.1533">
        <ele>187.76815795898</ele>
        <time>2014-05-24T14:54:34Z</time>
      </trkpt>
      <trkpt lat="43.43382" lon="6.1533">
        <ele>187.76815795898</ele>
        <time>2014-05-24T14:54:54Z</time>
      </trkpt>
      <trkpt lat="43.43382" lon="6.15327">
        <ele>187.73893737793</ele>
        <time>2014-05-24T14:55:01Z</time>
      </trkpt>
      <trkpt lat="43.4338" lon="6.15319">
        <ele>187.79237365723</ele>
        <time>2014-05-24T14:55:06Z</time>
      </trkpt>
      <trkpt lat="43.4338" lon="6.15317">
        <ele>187.80271911621</ele>
        <time>2014-05-24T14:55:07Z</time>
      </trkpt>
      <trkpt lat="43.43379" lon="6.15314">
        <ele>187.8063659668</ele>
        <time>2014-05-24T14:55:08Z</time>
      </trkpt>
      <trkpt lat="43.4338" lon="6.15311">
        <ele>187.70367431641</ele>
        <time>2014-05-24T14:55:09Z</time>
      </trkpt>
      <trkpt lat="43.4338" lon="6.15299">
        <ele>187.20320129394</ele>
        <time>2014-05-24T14:55:12Z</time>
      </trkpt>
      <trkpt lat="43.43377" lon="6.1528">
        <ele>185.96723937988</ele>
        <time>2014-05-24T14:55:17Z</time>
      </trkpt>
      <trkpt lat="43.43377" lon="6.15276">
        <ele>185.79939270019</ele>
        <time>2014-05-24T14:55:18Z</time>
      </trkpt>
      <trkpt lat="43.43375" lon="6.15257">
        <ele>185.25866699219</ele>
        <time>2014-05-24T14:55:23Z</time>
      </trkpt>
      <trkpt lat="43.43373" lon="6.1525">
        <ele>185.13848876953</ele>
        <time>2014-05-24T14:55:25Z</time>
      </trkpt>
      <trkpt lat="43.43371" lon="6.15236">
        <ele>184.49728393555</ele>
        <time>2014-05-24T14:55:29Z</time>
      </trkpt>
      <trkpt lat="43.4337" lon="6.15229">
        <ele>184.11239624023</ele>
        <time>2014-05-24T14:55:31Z</time>
      </trkpt>
      <trkpt lat="43.43369" lon="6.15223">
        <ele>183.74603271484</ele>
        <time>2014-05-24T14:55:33Z</time>
      </trkpt>
      <trkpt lat="43.43367" lon="6.15212">
        <ele>183.43054199219</ele>
        <time>2014-05-24T14:55:36Z</time>
      </trkpt>
      <trkpt lat="43.43365" lon="6.15204">
        <ele>183.19021606445</ele>
        <time>2014-05-24T14:55:38Z</time>
      </trkpt>
      <trkpt lat="43.43364" lon="6.15195">
        <ele>182.93444824219</ele>
        <time>2014-05-24T14:55:40Z</time>
      </trkpt>
      <trkpt lat="43.43361" lon="6.15178">
        <ele>182.46516418457</ele>
        <time>2014-05-24T14:55:44Z</time>
      </trkpt>
      <trkpt lat="43.43353" lon="6.15151">
        <ele>183.23809814453</ele>
        <time>2014-05-24T14:55:49Z</time>
      </trkpt>
      <trkpt lat="43.43348" lon="6.15133">
        <ele>183.65875244141</ele>
        <time>2014-05-24T14:55:52Z</time>
      </trkpt>
      <trkpt lat="43.43346" lon="6.15122">
        <ele>183.58477783203</ele>
        <time>2014-05-24T14:55:54Z</time>
      </trkpt>
      <trkpt lat="43.43343" lon="6.15111">
        <ele>183.55058288574</ele>
        <time>2014-05-24T14:55:56Z</time>
      </trkpt>
      <trkpt lat="43.43341" lon="6.15091">
        <ele>183.36767578125</ele>
        <time>2014-05-24T14:56:00Z</time>
      </trkpt>
      <trkpt lat="43.43333" lon="6.15073">
        <ele>184.11315917969</ele>
        <time>2014-05-24T14:56:04Z</time>
      </trkpt>
      <trkpt lat="43.43324" lon="6.15046">
        <ele>186.80432128906</ele>
        <time>2014-05-24T14:56:09Z</time>
      </trkpt>
      <trkpt lat="43.43321" lon="6.15025">
        <ele>186.8348236084</ele>
        <time>2014-05-24T14:56:14Z</time>
      </trkpt>
      <trkpt lat="43.43309" lon="6.15017">
        <ele>190.0545501709</ele>
        <time>2014-05-24T14:56:19Z</time>
      </trkpt>
      <trkpt lat="43.43305" lon="6.1501">
        <ele>190.86692810059</ele>
        <time>2014-05-24T14:56:21Z</time>
      </trkpt>
      <trkpt lat="43.43298" lon="6.14973">
        <ele>190.17929077148</ele>
        <time>2014-05-24T14:56:27Z</time>
      </trkpt>
      <trkpt lat="43.43296" lon="6.14968">
        <ele>190.03817749023</ele>
        <time>2014-05-24T14:56:28Z</time>
      </trkpt>
      <trkpt lat="43.43295" lon="6.14963">
        <ele>189.78755187988</ele>
        <time>2014-05-24T14:56:29Z</time>
      </trkpt>
      <trkpt lat="43.43295" lon="6.14957">
        <ele>189.41333007812</ele>
        <time>2014-05-24T14:56:30Z</time>
      </trkpt>
      <trkpt lat="43.43295" lon="6.14948">
        <ele>188.82968139648</ele>
        <time>2014-05-24T14:56:32Z</time>
      </trkpt>
      <trkpt lat="43.43291" lon="6.14934">
        <ele>188.27349853516</ele>
        <time>2014-05-24T14:56:35Z</time>
      </trkpt>
      <trkpt lat="43.43287" lon="6.14921">
        <ele>187.9610748291</ele>
        <time>2014-05-24T14:56:38Z</time>
      </trkpt>
      <trkpt lat="43.43284" lon="6.14913">
        <ele>187.8821105957</ele>
        <time>2014-05-24T14:56:40Z</time>
      </trkpt>
      <trkpt lat="43.43279" lon="6.14902">
        <ele>187.80657958984</ele>
        <time>2014-05-24T14:56:45Z</time>
      </trkpt>
      <trkpt lat="43.43272" lon="6.14889">
        <ele>187.59349060059</ele>
        <time>2014-05-24T14:56:48Z</time>
      </trkpt>
      <trkpt lat="43.4327" lon="6.14884">
        <ele>187.51243591309</ele>
        <time>2014-05-24T14:56:49Z</time>
      </trkpt>
      <trkpt lat="43.43262" lon="6.14864">
        <ele>187.43676757812</ele>
        <time>2014-05-24T14:56:53Z</time>
      </trkpt>
      <trkpt lat="43.4326" lon="6.14858">
        <ele>187.25158691406</ele>
        <time>2014-05-24T14:56:54Z</time>
      </trkpt>
      <trkpt lat="43.43251" lon="6.1482">
        <ele>184.92489624023</ele>
        <time>2014-05-24T14:57:01Z</time>
      </trkpt>
      <trkpt lat="43.43248" lon="6.14799">
        <ele>184.63482666016</ele>
        <time>2014-05-24T14:57:06Z</time>
      </trkpt>
      <trkpt lat="43.43247" lon="6.14792">
        <ele>184.67797851562</ele>
        <time>2014-05-24T14:57:08Z</time>
      </trkpt>
      <trkpt lat="43.43246" lon="6.14778">
        <ele>184.01606750488</ele>
        <time>2014-05-24T14:57:12Z</time>
      </trkpt>
      <trkpt lat="43.43245" lon="6.14751">
        <ele>184.19444274902</ele>
        <time>2014-05-24T14:57:17Z</time>
      </trkpt>
      <trkpt lat="43.43237" lon="6.14728">
        <ele>186.15278625488</ele>
        <time>2014-05-24T14:57:22Z</time>
      </trkpt>
      <trkpt lat="43.43231" lon="6.14711">
        <ele>186.07006835938</ele>
        <time>2014-05-24T14:57:27Z</time>
      </trkpt>
      <trkpt lat="43.4323" lon="6.14706">
        <ele>185.62150573731</ele>
        <time>2014-05-24T14:57:28Z</time>
      </trkpt>
      <trkpt lat="43.43226" lon="6.14683">
        <ele>183.57847595215</ele>
        <time>2014-05-24T14:57:33Z</time>
      </trkpt>
      <trkpt lat="43.43224" lon="6.1466">
        <ele>182</ele>
        <time>2014-05-24T14:57:38Z</time>
      </trkpt>
      <trkpt lat="43.43221" lon="6.14644">
        <ele>182.09446716309</ele>
        <time>2014-05-24T14:57:43Z</time>
      </trkpt>
      <trkpt lat="43.43217" lon="6.14637">
        <ele>182</ele>
        <time>2014-05-24T14:57:47Z</time>
      </trkpt>
      <trkpt lat="43.43217" lon="6.14635">
        <ele>182</ele>
        <time>2014-05-24T14:57:48Z</time>
      </trkpt>
      <trkpt lat="43.43216" lon="6.14633">
        <ele>182</ele>
        <time>2014-05-24T14:57:49Z</time>
      </trkpt>
      <trkpt lat="43.43214" lon="6.14628">
        <ele>182</ele>
        <time>2014-05-24T14:57:52Z</time>
      </trkpt>
      <trkpt lat="43.43213" lon="6.14626">
        <ele>182</ele>
        <time>2014-05-24T14:57:54Z</time>
      </trkpt>
      <trkpt lat="43.43211" lon="6.14624">
        <ele>182</ele>
        <time>2014-05-24T14:57:55Z</time>
      </trkpt>
      <trkpt lat="43.43208" lon="6.14617">
        <ele>182</ele>
        <time>2014-05-24T14:57:59Z</time>
      </trkpt>
      <trkpt lat="43.43202" lon="6.14607">
        <ele>182</ele>
        <time>2014-05-24T14:58:05Z</time>
      </trkpt>
      <trkpt lat="43.43199" lon="6.14602">
        <ele>182</ele>
        <time>2014-05-24T14:58:07Z</time>
      </trkpt>
      <trkpt lat="43.43198" lon="6.14596">
        <ele>182</ele>
        <time>2014-05-24T14:58:09Z</time>
      </trkpt>
      <trkpt lat="43.43194" lon="6.14587">
        <ele>182.06982421875</ele>
        <time>2014-05-24T14:58:13Z</time>
      </trkpt>
      <trkpt lat="43.43191" lon="6.1458">
        <ele>182.80511474609</ele>
        <time>2014-05-24T14:58:17Z</time>
      </trkpt>
      <trkpt lat="43.43187" lon="6.14567">
        <ele>182.73802185059</ele>
        <time>2014-05-24T14:58:21Z</time>
      </trkpt>
      <trkpt lat="43.43186" lon="6.14562">
        <ele>182.44960021973</ele>
        <time>2014-05-24T14:58:22Z</time>
      </trkpt>
      <trkpt lat="43.43179" lon="6.14546">
        <ele>182.19638061523</ele>
        <time>2014-05-24T14:58:25Z</time>
      </trkpt>
      <trkpt lat="43.43175" lon="6.14535">
        <ele>182.51710510254</ele>
        <time>2014-05-24T14:58:27Z</time>
      </trkpt>
      <trkpt lat="43.43174" lon="6.14528">
        <ele>182.71623229981</ele>
        <time>2014-05-24T14:58:28Z</time>
      </trkpt>
      <trkpt lat="43.43172" lon="6.14507">
        <ele>182.95684814453</ele>
        <time>2014-05-24T14:58:31Z</time>
      </trkpt>
      <trkpt lat="43.43163" lon="6.14489">
        <ele>183.52751159668</ele>
        <time>2014-05-24T14:58:34Z</time>
      </trkpt>
      <trkpt lat="43.43156" lon="6.14479">
        <ele>184.11720275879</ele>
        <time>2014-05-24T14:58:36Z</time>
      </trkpt>
      <trkpt lat="43.43154" lon="6.14475">
        <ele>184.09197998047</ele>
        <time>2014-05-24T14:58:37Z</time>
      </trkpt>
      <trkpt lat="43.43145" lon="6.14465">
        <ele>184.13613891602</ele>
        <time>2014-05-24T14:58:41Z</time>
      </trkpt>
      <trkpt lat="43.43139" lon="6.14454">
        <ele>183.67767333984</ele>
        <time>2014-05-24T14:58:44Z</time>
      </trkpt>
      <trkpt lat="43.43135" lon="6.14438">
        <ele>184.43919372559</ele>
        <time>2014-05-24T14:58:48Z</time>
      </trkpt>
      <trkpt lat="43.43126" lon="6.14426">
        <ele>186.94486999512</ele>
        <time>2014-05-24T14:58:52Z</time>
      </trkpt>
      <trkpt lat="43.43119" lon="6.14408">
        <ele>188.26901245117</ele>
        <time>2014-05-24T14:58:58Z</time>
      </trkpt>
      <trkpt lat="43.43111" lon="6.14383">
        <ele>188.82157897949</ele>
        <time>2014-05-24T14:59:04Z</time>
      </trkpt>
      <trkpt lat="43.43108" lon="6.14351">
        <ele>189.41746520996</ele>
        <time>2014-05-24T14:59:10Z</time>
      </trkpt>
      <trkpt lat="43.4311" lon="6.14316">
        <ele>186.77217102051</ele>
        <time>2014-05-24T14:59:16Z</time>
      </trkpt>
      <trkpt lat="43.43115" lon="6.1429">
        <ele>185.07485961914</ele>
        <time>2014-05-24T14:59:21Z</time>
      </trkpt>
      <trkpt lat="43.4312" lon="6.14254">
        <ele>183.20759582519</ele>
        <time>2014-05-24T14:59:28Z</time>
      </trkpt>
      <trkpt lat="43.43123" lon="6.14245">
        <ele>183</ele>
        <time>2014-05-24T14:59:30Z</time>
      </trkpt>
      <trkpt lat="43.43129" lon="6.14242">
        <ele>183</ele>
        <time>2014-05-24T14:59:32Z</time>
      </trkpt>
      <trkpt lat="43.4314" lon="6.14243">
        <ele>183</ele>
        <time>2014-05-24T14:59:36Z</time>
      </trkpt>
      <trkpt lat="43.43142" lon="6.14243">
        <ele>183</ele>
        <time>2014-05-24T14:59:37Z</time>
      </trkpt>
      <trkpt lat="43.43148" lon="6.14244">
        <ele>183</ele>
        <time>2014-05-24T14:59:40Z</time>
      </trkpt>
      <trkpt lat="43.4315" lon="6.14244">
        <ele>183</ele>
        <time>2014-05-24T14:59:42Z</time>
      </trkpt>
      <trkpt lat="43.4315" lon="6.14244">
        <ele>183</ele>
        <time>2014-05-24T15:00:07Z</time>
      </trkpt>
      <trkpt lat="43.4315" lon="6.14243">
        <ele>183</ele>
        <time>2014-05-24T15:00:26Z</time>
      </trkpt>
      <trkpt lat="43.43151" lon="6.14243">
        <ele>183</ele>
        <time>2014-05-24T15:00:32Z</time>
      </trkpt>
      <trkpt lat="43.43151" lon="6.14243">
        <ele>183</ele>
        <time>2014-05-24T15:01:01Z</time>
      </trkpt>
      <trkpt lat="43.4315" lon="6.14244">
        <ele>183</ele>
        <time>2014-05-24T15:03:07Z</time>
      </trkpt>
      <trkpt lat="43.4315" lon="6.14244">
        <ele>183</ele>
        <time>2014-05-24T15:03:23Z</time>
      </trkpt>
      <trkpt lat="43.4315" lon="6.14244">
        <ele>183</ele>
        <time>2014-05-24T15:03:36Z</time>
      </trkpt>
      <trkpt lat="43.43153" lon="6.14245">
        <ele>183</ele>
        <time>2014-05-24T15:03:43Z</time>
      </trkpt>
      <trkpt lat="43.43153" lon="6.14245">
        <ele>183</ele>
        <time>2014-05-24T15:04:09Z</time>
      </trkpt>
      <trkpt lat="43.43153" lon="6.14245">
        <ele>183</ele>
        <time>2014-05-24T15:04:19Z</time>
      </trkpt>
      <trkpt lat="43.43153" lon="6.14244">
        <ele>183</ele>
        <time>2014-05-24T15:04:23Z</time>
      </trkpt>
      <trkpt lat="43.43153" lon="6.14244">
        <ele>183</ele>
        <time>2014-05-24T15:04:49Z</time>
      </trkpt>
      <trkpt lat="43.43154" lon="6.14245">
        <ele>183</ele>
        <time>2014-05-24T15:05:46Z</time>
      </trkpt>
      <trkpt lat="43.43154" lon="6.14245">
        <ele>183</ele>
        <time>2014-05-24T15:06:13Z</time>
      </trkpt>
      <trkpt lat="43.43154" lon="6.14245">
        <ele>183</ele>
        <time>2014-05-24T15:06:32Z</time>
      </trkpt>
      <trkpt lat="43.43156" lon="6.14244">
        <ele>183</ele>
        <time>2014-05-24T15:06:39Z</time>
      </trkpt>
      <trkpt lat="43.43157" lon="6.14244">
        <ele>183</ele>
        <time>2014-05-24T15:06:40Z</time>
      </trkpt>
      <trkpt lat="43.43164" lon="6.14248">
        <ele>183</ele>
        <time>2014-05-24T15:06:45Z</time>
      </trkpt>
      <trkpt lat="43.43167" lon="6.14249">
        <ele>183.0322265625</ele>
        <time>2014-05-24T15:06:47Z</time>
      </trkpt>
      <trkpt lat="43.43171" lon="6.1425">
        <ele>183.27941894531</ele>
        <time>2014-05-24T15:06:50Z</time>
      </trkpt>
      <trkpt lat="43.43172" lon="6.14251">
        <ele>183.41674804688</ele>
        <time>2014-05-24T15:06:51Z</time>
      </trkpt>
      <trkpt lat="43.43175" lon="6.14251">
        <ele>183.58154296875</ele>
        <time>2014-05-24T15:06:52Z</time>
      </trkpt>
      <trkpt lat="43.43178" lon="6.1425">
        <ele>183.80126953125</ele>
        <time>2014-05-24T15:06:53Z</time>
      </trkpt>
      <trkpt lat="43.4318" lon="6.14247">
        <ele>183.99353027344</ele>
        <time>2014-05-24T15:06:54Z</time>
      </trkpt>
      <trkpt lat="43.43184" lon="6.14238">
        <ele>184.21325683594</ele>
        <time>2014-05-24T15:06:56Z</time>
      </trkpt>
      <trkpt lat="43.43185" lon="6.14233">
        <ele>184.29565429688</ele>
        <time>2014-05-24T15:06:57Z</time>
      </trkpt>
      <trkpt lat="43.43192" lon="6.14225">
        <ele>184.7900390625</ele>
        <time>2014-05-24T15:07:00Z</time>
      </trkpt>
      <trkpt lat="43.43193" lon="6.14227">
        <ele>184.92736816406</ele>
        <time>2014-05-24T15:07:01Z</time>
      </trkpt>
      <trkpt lat="43.43195" lon="6.14236">
        <ele>185.06469726562</ele>
        <time>2014-05-24T15:07:04Z</time>
      </trkpt>
      <trkpt lat="43.43196" lon="6.14238">
        <ele>185.09216308594</ele>
        <time>2014-05-24T15:07:05Z</time>
      </trkpt>
      <trkpt lat="43.43196" lon="6.14243">
        <ele>185.14709472656</ele>
        <time>2014-05-24T15:07:07Z</time>
      </trkpt>
      <trkpt lat="43.43197" lon="6.14245">
        <ele>185.20202636719</ele>
        <time>2014-05-24T15:07:11Z</time>
      </trkpt>
    </trkseg>
  </trk>
</gpx>